[[{"header":{"parameterUnit":"m.s-1","parameterCategory":1,"la1":31.0,"la2":29.5877,"lo1":-88.7671,"lo2":-86.6584,"dy":0.0162,"dx":0.0185,"nx":115,"ny":88,"refTime":"2024-06-21T18:00:00:Z","depth":0,"parameterNumber":2,"parameterNumberName":"U-component_of_WINDS"},"data":[0.0,0.0,0.0,0.0,0.0,0.0,0.0,0.0,0.0,0.0,0.0,0.0,0.0,0.0,0.0,0.0,0.0,0.0,0.0,0.0,0.0,0.0,0.0,0.0,0.0,0.0,0.0,0.0,0.0,0.0,0.0,0.0,0.0,0.0,0.0,0.0,0.0,0.0,0.0,0.0,0.0,0.0,0.0,0.0,0.0,0.0,0.0,0.0,0.0,0.0,0.0,0.0,0.0,0.0,0.0,0.0,0.0,0.0,0.0,0.0,0.0,0.0,0.0,0.0,0.0,0.0,0.0,0.0,0.0,0.0,0.0,0.0,0.0,0.0,0.0,0.0,0.0,0.0,0.0,0.0,0.0,0.0,0.0,0.0,0.0,0.0,0.0,0.0,0.0,0.0,0.0,0.0,0.0,0.0,0.0,0.0,0.0,0.0,0.0,0.0,0.0,0.0,0.0,0.0,0.0,0.0,0.0,0.0,0.0,0.0,0.0,0.0,0.0,0.0,0.0,0.0,0.0,0.0,0.0,0.0,0.0,0.0,0.0,0.0,0.0,0.0,0.0,0.0,0.0,0.0,0.0,0.0,0.0,0.0,0.0,0.0,0.0,0.0,0.0,0.0,0.0,0.0,0.0,0.0,0.0,0.0,0.0,0.0,0.0,0.0,0.0,0.0,0.0,0.0,0.0,0.0,0.0,0.0,0.0,0.0,0.0,0.0,0.0,0.0,0.0,0.0,0.0,0.0,0.0,0.0,0.0,0.0,0.0,0.0,0.0,0.0,0.0,0.0,0.0,0.0,0.0,0.0,0.0,0.0,0.0,0.0,0.0,0.0,0.0,0.0,0.0,0.0,0.0,0.0,0.0,0.0,0.0,0.0,0.0,0.0,0.0,0.0,0.0,0.0,0.0,0.0,0.0,0.0,0.0,0.0,0.0,0.0,0.0,0.0,0.0,0.0,0.0,0.0,0.0,0.0,0.0,0.0,0.0,0.0,0.0,0.0,0.0,0.0,0.0,0.0,0.0,0.0,0.0,0.0,0.0,0.0,0.0,0.0,0.0,0.0,0.0,0.0,0.0,0.0,0.0,0.0,0.0,0.0,0.0,0.0,0.0,0.0,0.0,0.0,0.0,0.0,0.0,0.0,0.0,0.0,0.0,0.0,0.0,0.0,0.0,0.0,0.0,0.0,0.0,0.0,0.0,0.0,0.0,0.0,0.0,0.0,0.0,0.0,0.0,0.0,0.0,0.0,0.0,0.0,0.0,0.0,0.0,0.0,0.0,0.0,0.0,0.0,0.0,0.0,0.0,0.0,0.0,0.0,0.0,0.0,0.0,0.0,0.0,0.0,0.0,0.0,0.0,0.0,0.0,0.0,0.0,0.0,0.0,0.0,0.0,0.0,0.0,0.0,0.0,0.0,0.0,0.0,0.0,0.0,0.0,0.0,0.0,0.0,0.0,0.0,0.0,0.0,0.0,0.0,0.0,0.0,0.0,0.0,0.0,0.0,0.0,0.0,0.0,0.0,0.0,0.0,0.0,0.0,0.0,0.0,0.0,0.0,0.0,0.0,0.0,0.0,0.0,0.0,0.0,0.0,0.0,0.0,0.0,0.0,0.0,0.0,0.0,0.0,0.0,0.0,0.0,0.0,0.0,0.0,0.0,0.0,0.0,0.0,0.0,0.0,0.0,0.0,0.0,0.0,0.0,0.0,0.0,0.0,0.0,0.0,0.0,0.0,0.0,0.0,0.0,0.0,0.0,0.0,0.0,0.0,0.0,0.0,0.0,0.0,0.0,0.0,0.0,0.0,0.0,0.0,0.0,0.0,0.0,0.0,0.0,0.0,0.0,0.0,0.0,0.0,0.0,0.0,0.0,0.0,0.0,0.0,0.0,0.0,0.0,0.0,0.0,0.0,0.0,0.0,0.0,0.0,0.0,0.0,0.0,0.0,0.0,0.0,0.0,0.0,0.0,0.0,0.0,0.0,0.0,0.0,0.0,0.0,0.0,0.0,0.0,0.0,0.0,0.0,0.0,0.0,0.0,0.0,0.0,0.0,0.0,0.0,0.0,0.0,0.0,0.0,0.0,0.0,0.0,0.0,0.0,0.0,0.0,0.0,0.0,0.0,0.0,0.0,0.0,0.0,0.0,0.0,0.0,0.0,0.0,0.0,0.0,0.0,0.0,0.0,0.0,0.0,0.0,0.0,0.0,0.0,0.0,0.0,0.0,0.0,0.0,0.0,0.0,0.0,0.0,0.0,0.0,0.0,0.0,0.0,0.0,0.0,0.0,0.0,0.0,0.0,0.0,0.0,0.0,0.0,0.0,0.0,0.0,0.0,0.0,0.0,0.0,0.0,0.0,0.0,0.0,0.0,0.0,0.0,0.0,0.0,0.0,0.0,0.0,0.0,0.0,0.0,0.0,0.0,0.0,0.0,0.0,0.0,0.0,0.0,0.0,0.0,0.0,0.0,0.0,0.0,0.0,0.0,0.0,0.0,0.0,0.0,0.0,0.0,0.0,0.0,0.0,0.0,0.0,0.0,0.0,0.0,0.0,0.0,0.0,0.0,0.0,0.0,0.0,0.0,0.0,0.0,0.0,0.0,0.0,0.0,0.0,0.0,0.0,0.0,0.0,0.0,0.0,0.0,0.0,0.0,0.0,0.0,0.0,0.0,0.0,0.0,0.0,0.0,0.0,0.0,0.0,0.0,0.0,0.0,0.0,0.0,0.0,0.0,0.0,0.0,0.0,0.0,0.0,0.0,0.0,0.0,0.0,0.0,0.0,0.0,0.0,0.0,0.0,0.0,0.0,0.0,0.0,0.0,0.0,0.0,0.0,0.0,0.0,0.0,0.0,0.0,0.0,0.0,0.0,0.0,0.0,0.0,0.0,0.0,0.0,0.0,0.0,0.0,0.0,0.0,0.0,0.0,0.0,0.0,0.0,0.0,0.0,0.0,0.0,0.0,0.0,0.0,0.0,0.0,0.0,0.0,0.0,0.0,0.0,0.0,0.0,0.0,0.0,0.0,0.0,0.0,0.0,0.0,0.0,0.0,0.0,0.0,0.0,0.0,0.0,0.0,0.0,0.0,0.0,0.0,0.0,0.0,0.0,0.0,0.0,0.0,0.0,0.0,0.0,0.0,0.0,0.0,0.0,0.0,0.0,0.0,0.0,0.0,0.0,0.0,0.0,0.0,0.0,0.0,0.0,0.0,0.0,0.0,0.0,0.0,0.0,0.0,0.0,0.0,0.0,0.0,0.0,0.0,0.0,0.0,0.0,0.0,0.0,0.0,0.0,0.0,0.0,0.0,0.0,0.0,0.0,0.0,0.0,0.0,0.0,0.0,0.0,0.0,0.0,0.0,0.0,0.0,0.0,0.0,0.0,0.0,0.0,0.0,0.0,0.0,0.0,0.0,0.0,0.0,0.0,0.0,0.0,0.0,0.0,0.0,0.0,0.0,0.0,0.0,0.0,0.0,0.0,0.0,0.0,0.0,0.0,0.0,0.0,0.0,0.0,0.0,0.0,0.0,0.0,0.0,0.0,0.0,0.0,0.0,0.0,0.0,0.0,0.0,0.0,0.0,0.0,0.0,0.0,0.0,0.0,0.0,0.0,0.0,0.0,0.0,0.0,0.0,0.0,0.0,0.0,0.0,0.0,0.0,0.0,0.0,0.0,0.0,0.0,0.0,0.0,0.0,0.0,0.0,0.0,0.0,0.0,0.0,0.0,0.0,0.0,0.0,0.0,0.0,0.0,0.0,0.0,0.0,0.0,0.0,0.0,0.0,0.0,0.0,0.0,0.0,0.0,0.0,0.0,0.0,0.0,0.0,0.0,0.0,0.0,0.0,0.0,0.0,0.0,0.0,0.0,0.0,0.0,0.0,0.0,0.0,0.0,0.0,0.0,0.0,0.0,0.0,0.0,0.0,0.0,0.0,0.0,0.0,0.0,0.0,0.0,0.0,0.0,0.0,0.0,0.0,0.0,0.0,0.0,0.0,0.0,0.0,0.0,0.0,0.0,0.0,0.0,0.0,0.0,0.0,0.0,0.0,0.0,0.0,0.0,0.0,0.0,0.0,0.0,0.0,0.0,0.0,0.0,0.0,0.0,0.0,0.0,0.0,0.0,0.0,0.0,0.0,0.0,0.0,0.0,0.0,0.0,0.0,0.0,0.0,0.0,0.0,0.0,0.0,0.0,0.0,0.0,0.0,0.0,0.0,0.0,0.0,0.0,0.0,0.0,0.0,0.0,0.0,0.0,0.0,0.0,0.0,-0.8302,0.0,0.0,0.0,0.0,0.0,0.0,0.0,0.0,0.0,0.0,0.0,0.0,0.0,0.0,0.0,0.0,0.0,0.0,0.0,0.0,0.0,0.0,0.0,0.0,0.0,0.0,0.0,0.0,0.0,0.0,0.0,0.0,0.0,0.0,0.0,0.0,0.0,0.0,0.0,0.0,0.0,0.0,0.0,0.0,0.0,0.0,0.0,0.0,0.0,0.0,0.0,0.0,0.0,0.0,0.0,0.0,0.0,0.0,0.0,0.0,0.0,0.0,0.0,0.0,0.0,0.0,0.0,0.0,0.0,0.0,0.0,0.0,0.0,0.0,0.0,0.0,0.0,0.0,0.0,0.0,0.0,0.0,0.0,0.0,0.0,0.0,0.0,0.0,0.0,0.0,0.0,0.0,0.0,0.0,0.0,0.0,0.0,0.0,0.0,0.0,0.0,0.0,0.0,0.0,0.0,0.0,0.0,0.0,0.0,0.0,-0.8373,-0.8373,-0.8373,-0.8373,-0.8381,0.0,0.0,0.0,0.0,0.0,0.0,0.0,0.0,0.0,0.0,0.0,0.0,0.0,0.0,0.0,0.0,0.0,0.0,0.0,0.0,0.0,0.0,0.0,0.0,0.0,0.0,0.0,0.0,0.0,0.0,0.0,0.0,0.0,0.0,0.0,0.0,0.0,0.0,0.0,0.0,0.0,0.0,0.0,0.0,0.0,0.0,0.0,0.0,0.0,0.0,0.0,0.0,0.0,0.0,0.0,0.0,0.0,0.0,0.0,0.0,0.0,0.0,0.0,0.0,0.0,0.0,0.0,0.0,0.0,0.0,0.0,0.0,0.0,0.0,0.0,0.0,0.0,0.0,0.0,0.0,0.0,0.0,0.0,0.0,0.0,0.0,0.0,0.0,0.0,0.0,0.0,0.0,0.0,0.0,0.0,0.0,0.0,0.0,0.0,0.0,0.0,0.0,0.0,0.0,0.0,0.0,0.0,0.0,0.0,0.0,0.0,0.0,-0.8603,-0.8611,-0.8611,0.0,0.0,0.0,0.0,0.0,0.0,0.0,0.0,0.0,0.0,0.0,0.0,0.0,0.0,0.0,0.0,0.0,0.0,0.0,0.0,0.0,0.0,0.0,0.0,0.0,0.0,0.0,0.0,0.0,0.0,0.0,0.0,0.0,0.0,0.0,0.0,0.0,0.0,0.0,0.0,0.0,0.0,0.0,0.0,0.0,0.0,0.0,0.0,0.0,0.0,0.0,0.0,0.0,0.0,0.0,0.0,0.0,0.0,0.0,0.0,0.0,0.0,0.0,0.0,0.0,0.0,0.0,0.0,0.0,0.0,0.0,0.0,0.0,0.0,0.0,0.0,0.0,0.0,0.0,0.0,0.0,0.0,0.0,0.0,0.0,0.0,0.0,0.0,0.0,0.0,0.0,0.0,0.0,0.0,0.0,0.0,0.0,0.0,0.0,0.0,0.0,0.0,0.0,0.0,0.0,0.0,0.0,0.0,0.0,0.0,-0.8709,-0.9279,-0.9295,0.0,-0.9326,0.0,0.0,0.0,0.0,0.0,0.0,0.0,0.0,0.0,0.0,0.0,0.0,0.0,0.0,0.0,0.0,0.0,0.0,0.0,0.0,0.0,0.0,0.0,0.0,0.0,0.0,0.0,0.0,0.0,0.0,0.0,0.0,0.0,0.0,0.0,0.0,0.0,0.0,0.0,0.0,0.0,0.0,0.0,0.0,0.0,0.0,0.0,0.0,0.0,0.0,0.0,0.0,0.0,0.0,0.0,0.0,0.0,0.0,0.0,0.0,0.0,0.0,0.0,0.0,0.0,0.0,0.0,0.0,0.0,0.0,0.0,0.0,0.0,0.0,0.0,0.0,0.0,0.0,0.0,0.0,0.0,0.0,0.0,0.0,0.0,0.0,0.0,0.0,0.0,0.0,0.0,0.0,0.0,0.0,0.0,0.0,0.0,0.0,0.0,0.0,0.0,0.0,0.0,0.0,0.0,0.0,0.0,0.0,0.0,0.0,0.0,-0.939,-0.939,-0.9398,0.0,0.0,0.0,0.0,0.0,0.0,0.0,0.0,0.0,0.0,0.0,0.0,0.0,0.0,0.0,0.0,0.0,0.0,0.0,0.0,0.0,0.0,0.0,0.0,0.0,0.0,0.0,0.0,0.0,0.0,0.0,0.0,0.0,0.0,0.0,0.0,0.0,0.0,0.0,0.0,0.0,0.0,0.0,0.0,0.0,0.0,0.0,0.0,0.0,0.0,0.0,0.0,0.0,0.0,0.0,0.0,0.0,0.0,0.0,0.0,0.0,0.0,0.0,0.0,0.0,0.0,0.0,0.0,0.0,0.0,0.0,0.0,0.0,0.0,0.0,0.0,0.0,0.0,0.0,0.0,0.0,0.0,0.0,0.0,0.0,0.0,0.0,0.0,0.0,0.0,0.0,0.0,0.0,0.0,0.0,0.0,0.0,0.0,0.0,0.0,0.0,0.0,0.0,0.0,0.0,0.0,0.0,0.0,0.0,0.0,-0.9103,0.0,-0.9533,-0.9391,-0.9173,-0.8959,0.0,0.0,0.0,0.0,0.0,0.0,0.0,0.0,0.0,0.0,0.0,0.0,0.0,0.0,0.0,0.0,0.0,0.0,0.0,0.0,0.0,0.0,0.0,0.0,0.0,0.0,0.0,0.0,0.0,0.0,0.0,0.0,0.0,0.0,0.0,0.0,0.0,0.0,0.0,0.0,0.0,0.0,0.0,0.0,0.0,0.0,0.0,0.0,0.0,0.0,0.0,0.0,0.0,0.0,0.0,0.0,0.0,0.0,0.0,0.0,0.0,0.0,0.0,0.0,0.0,0.0,0.0,0.0,0.0,0.0,0.0,0.0,0.0,0.0,0.0,0.0,0.0,0.0,0.0,0.0,0.0,0.0,0.0,0.0,0.0,0.0,0.0,0.0,0.0,0.0,0.0,0.0,0.0,0.0,0.0,0.0,0.0,0.0,0.0,0.0,0.0,0.0,0.0,0.0,0.0,0.0,0.0,0.0,0.0,-0.9189,-0.9341,-0.9931,-0.9356,-0.8742,0.0,0.0,0.0,0.0,0.0,0.0,0.0,0.0,0.0,0.0,0.0,0.0,0.0,0.0,0.0,0.0,0.0,0.0,0.0,0.0,0.0,0.0,0.0,0.0,0.0,0.0,0.0,0.0,0.0,0.0,0.0,0.0,0.0,0.0,0.0,0.0,0.0,0.0,0.0,0.0,0.0,0.0,0.0,0.0,0.0,0.0,0.0,0.0,0.0,0.0,0.0,0.0,0.0,0.0,0.0,0.0,0.0,0.0,0.0,0.0,0.0,0.0,0.0,0.0,0.0,0.0,0.0,0.0,0.0,0.0,0.0,0.0,0.0,0.0,0.0,0.0,0.0,0.0,0.0,0.0,0.0,0.0,0.0,0.0,0.0,0.0,0.0,0.0,0.0,0.0,0.0,0.0,0.0,0.0,0.0,0.0,0.0,0.0,0.0,0.0,0.0,0.0,0.0,0.0,0.0,0.0,0.0,0.0,0.0,-0.772,-0.8029,-0.8849,0.0,-0.9176,-0.8692,0.0,0.0,0.0,0.0,0.0,0.0,0.0,0.0,0.0,0.0,0.0,0.0,0.0,0.0,0.0,0.0,0.0,0.0,0.0,0.0,0.0,0.0,0.0,0.0,0.0,0.0,0.0,0.0,0.0,0.0,0.0,0.0,0.0,0.0,0.0,0.0,0.0,0.0,0.0,0.0,0.0,0.0,0.0,0.0,0.0,0.0,0.0,0.0,0.0,0.0,0.0,0.0,0.0,0.0,0.0,0.0,0.0,0.0,0.0,0.0,0.0,0.0,0.0,0.0,0.0,0.0,0.0,0.0,0.0,0.0,0.0,0.0,0.0,0.0,0.0,0.0,0.0,0.0,0.0,0.0,0.0,0.0,0.0,0.0,0.0,0.0,0.0,0.0,0.0,0.0,0.0,0.0,0.0,0.0,0.0,0.0,0.0,0.0,0.0,0.0,0.0,0.0,0.0,0.0,0.0,0.0,0.0,0.0,0.0,-0.7086,0.0,-0.8541,0.0,-0.8487,-0.7953,0.0,0.0,0.0,0.0,0.0,0.0,0.0,0.0,0.0,0.0,0.0,0.0,0.0,0.0,0.0,0.0,0.0,0.0,0.0,0.0,0.0,0.0,0.0,0.0,0.0,0.0,0.0,0.0,0.0,0.0,0.0,0.0,0.0,0.0,0.0,0.0,0.0,0.0,0.0,0.0,0.0,0.0,0.0,0.0,0.0,0.0,0.0,0.0,0.0,0.0,0.0,0.0,0.0,0.0,0.0,0.0,0.0,0.0,0.0,0.0,0.0,0.0,0.0,0.0,0.0,0.0,0.0,0.0,0.0,0.0,0.0,0.0,0.0,0.0,0.0,0.0,0.0,0.0,0.0,0.0,0.0,0.0,0.0,0.0,0.0,0.0,0.0,0.0,0.0,0.0,0.0,0.0,0.0,0.0,0.0,0.0,0.0,0.0,0.0,0.0,0.0,0.0,0.0,0.0,0.0,0.0,0.0,0.0,-0.6446,-0.7811,-0.8395,-0.8438,-0.7913,-0.7326,-0.6459,0.0,0.0,0.0,0.0,0.0,0.0,0.0,0.0,0.0,0.0,0.0,0.0,0.0,0.0,0.0,0.0,0.0,0.0,0.0,0.0,0.0,0.0,0.0,0.0,0.0,0.0,0.0,0.0,0.0,0.0,0.0,0.0,0.0,0.0,0.0,0.0,0.0,0.0,0.0,0.0,0.0,0.0,0.0,0.0,0.0,0.0,0.0,0.0,0.0,0.0,0.0,0.0,0.0,0.0,0.0,0.0,0.0,0.0,0.0,0.0,0.0,0.0,0.0,0.0,0.0,0.0,0.0,0.0,0.0,0.0,0.0,0.0,0.0,0.0,0.0,0.0,0.0,0.0,0.0,0.0,0.0,0.0,0.0,0.0,0.0,0.0,0.0,0.0,0.0,0.0,0.0,0.0,0.0,0.0,0.0,0.0,0.0,0.0,0.0,0.0,0.0,0.0,0.0,0.0,0.0,0.0,0.0,0.0,0.0,-0.6987,-0.7128,-0.7512,-0.8069,-0.7063,-0.6668,0.0,0.0,0.0,0.0,0.0,0.0,0.0,0.0,0.0,0.0,0.0,0.0,0.0,0.0,0.0,0.0,0.0,0.0,0.0,0.0,0.0,0.0,0.0,0.0,0.0,0.0,0.0,0.0,0.0,0.0,0.0,0.0,0.0,0.0,0.0,0.0,0.0,0.0,0.0,0.0,0.0,0.0,0.0,0.0,0.0,0.0,0.0,0.0,0.0,0.0,0.0,0.0,0.0,0.0,0.0,0.0,0.0,0.0,0.0,0.0,0.0,0.0,0.0,0.0,0.0,0.0,0.0,0.0,0.0,0.0,0.0,0.0,0.0,0.0,0.0,0.0,0.0,0.0,0.0,0.0,0.0,0.0,0.0,0.0,0.0,0.0,0.0,0.0,0.0,0.0,0.0,0.0,0.0,0.0,0.0,0.0,0.0,0.0,0.0,0.0,0.0,0.0,0.0,0.0,0.0,0.0,0.0,0.0,0.0,-0.7265,-0.7216,-0.7463,-0.8024,-0.7191,-0.6815,-0.7039,0.0,0.0,0.0,0.0,0.0,0.0,0.0,0.0,0.0,0.0,0.0,0.0,0.0,0.0,0.0,0.0,0.0,0.0,0.0,0.0,0.0,0.0,0.0,0.0,0.0,0.0,0.0,0.0,0.0,0.0,0.0,0.0,0.0,0.0,0.0,0.0,0.0,0.0,0.0,0.0,0.0,0.0,0.0,0.0,0.0,0.0,0.0,0.0,0.0,0.0,0.0,0.0,0.0,0.0,0.0,0.0,0.0,0.0,0.0,0.0,0.0,0.0,0.0,0.0,0.0,0.0,0.0,0.0,0.0,0.0,0.0,0.0,0.0,0.0,0.0,0.0,0.0,0.0,0.0,0.0,0.0,0.0,0.0,0.0,0.0,0.0,0.0,0.0,0.0,0.0,0.0,0.0,0.0,0.0,0.0,0.0,0.0,0.0,0.0,0.0,0.0,0.0,0.0,0.0,0.0,0.0,0.0,0.0,-0.8467,-0.8519,-0.8344,-0.7929,-0.7688,-0.7017,0.0,0.0,0.0,0.0,0.0,0.0,0.0,0.0,0.0,0.0,0.0,0.0,0.0,0.0,0.0,0.0,0.0,0.0,0.0,0.0,0.0,0.0,0.0,0.0,0.0,0.0,0.0,0.0,0.0,0.0,0.0,0.0,0.0,0.0,0.0,0.0,0.0,0.0,0.0,0.0,0.0,0.0,0.0,0.0,0.0,0.0,0.0,0.0,0.0,0.0,0.0,0.0,0.0,0.0,0.0,0.0,0.0,0.0,0.0,0.0,0.0,0.0,0.0,0.0,0.0,0.0,0.0,0.0,0.0,0.0,0.0,0.0,0.0,0.0,0.0,0.0,0.0,0.0,0.0,0.0,0.0,0.0,0.0,0.0,0.0,0.0,0.0,0.0,0.0,0.0,0.0,0.0,0.0,0.0,0.0,0.0,0.0,0.0,0.0,0.0,0.0,0.0,0.0,0.0,0.0,0.0,0.0,0.0,0.0,-0.9294,-0.9923,-0.997,-0.9384,-0.8288,-0.7569,0.0,0.0,0.0,0.0,0.0,0.0,0.0,0.0,0.0,0.0,0.0,0.0,0.0,0.0,0.0,0.0,0.0,0.0,0.0,0.0,0.0,0.0,0.0,0.0,0.0,0.0,0.0,0.0,0.0,0.0,0.0,0.0,0.0,0.0,0.0,0.0,0.0,0.0,0.0,0.0,0.0,0.0,0.0,0.0,0.0,0.0,0.0,0.0,0.0,0.0,0.0,0.0,0.0,0.0,0.0,0.0,0.0,0.0,0.0,0.0,0.0,0.0,0.0,0.0,0.0,0.0,0.0,0.0,0.0,0.0,0.0,0.0,0.0,0.0,0.0,0.0,0.0,0.0,0.0,0.0,0.0,0.0,0.0,0.0,0.0,0.0,0.0,0.0,0.0,0.0,0.0,0.0,0.0,0.0,0.0,0.0,0.0,0.0,0.0,0.0,0.0,0.0,0.0,0.0,0.0,0.0,0.0,0.0,-0.8954,-1.0022,-1.1118,-1.1463,-1.1009,-0.9502,-0.8439,0.0,0.0,0.0,0.0,0.0,0.0,0.0,0.0,0.0,0.0,0.0,0.0,0.0,0.0,0.0,0.0,0.0,0.0,0.0,0.0,0.0,0.0,0.0,0.0,0.0,0.0,0.0,0.0,0.0,0.0,0.0,0.0,0.0,0.0,0.0,0.0,0.0,0.0,0.0,0.0,0.0,0.0,0.0,0.0,0.0,0.0,0.0,0.0,0.0,0.0,0.0,0.0,0.0,0.0,0.0,0.0,0.0,0.0,0.0,0.0,0.0,0.0,0.0,0.0,0.0,0.0,0.0,0.0,0.0,0.0,0.0,0.0,0.0,0.0,0.0,0.0,0.0,0.0,0.0,0.0,0.0,0.0,0.0,0.0,0.0,0.0,0.0,0.0,0.0,0.0,0.0,0.0,0.0,0.0,0.0,0.0,0.0,0.0,0.0,0.0,0.0,0.0,0.0,0.0,0.0,0.0,0.0,0.0,-0.9814,-1.0693,-1.2077,-1.2701,-1.2469,-1.0868,-0.9499,0.0,0.0,0.0,0.0,0.0,0.0,0.0,0.0,0.0,0.0,0.0,0.0,0.0,0.0,0.0,0.0,0.0,0.0,0.0,0.0,0.0,0.0,0.0,0.0,0.0,0.0,0.0,0.0,0.0,0.0,0.0,0.0,0.0,0.0,0.0,0.0,0.0,0.0,0.0,0.0,0.0,0.0,0.0,0.0,0.0,0.0,0.0,0.0,0.0,0.0,0.0,0.0,0.0,0.0,0.0,0.0,0.0,0.0,0.0,0.0,0.0,0.0,0.0,0.0,0.0,0.0,0.0,0.0,0.0,0.0,0.0,0.0,0.0,0.0,0.0,0.0,0.0,0.0,0.0,0.0,0.0,0.0,0.0,0.0,0.0,0.0,0.0,0.0,0.0,0.0,0.0,0.0,0.0,0.0,0.0,0.0,0.0,0.0,0.0,0.0,0.0,0.0,0.0,0.0,0.0,0.0,0.0,0.0,-1.0381,-1.1534,-1.2502,-1.298,-1.2928,-1.1161,-0.9771,0.0,0.0,0.0,0.0,0.0,0.0,0.0,0.0,0.0,0.0,0.0,0.0,0.0,0.0,0.0,0.0,0.0,0.0,0.0,0.0,0.0,0.0,0.0,0.0,0.0,0.0,0.0,0.0,0.0,0.0,0.0,0.0,0.0,0.0,0.0,0.0,0.0,0.0,0.0,0.0,0.0,0.0,0.0,0.0,0.0,0.0,0.0,0.0,-0.6015,0.0,0.0,0.0,0.0,0.0,0.0,0.0,0.0,0.0,0.0,0.0,0.0,0.0,0.0,0.0,0.0,0.0,0.0,0.0,0.0,0.0,0.0,0.0,0.0,0.0,0.0,0.0,0.0,0.0,0.0,0.0,0.0,0.0,0.0,0.0,0.0,0.0,0.0,0.0,0.0,0.0,0.0,0.0,0.0,0.0,0.0,0.0,0.0,0.0,0.0,0.0,0.0,0.0,0.0,0.0,0.0,0.0,0.0,0.0,-1.0712,-1.1935,-1.2791,-1.3169,-1.3022,-1.1723,-1.0423,0.0,0.0,0.0,0.0,0.0,0.0,0.0,0.0,0.0,0.0,0.0,0.0,0.0,0.0,0.0,0.0,0.0,0.0,0.0,0.0,0.0,0.0,0.0,0.0,0.0,0.0,0.0,0.0,0.0,0.0,0.0,0.0,0.0,0.0,0.0,0.0,0.0,0.0,0.0,0.0,0.0,0.0,0.0,0.0,0.0,0.0,0.0,0.0,0.0,0.0,0.0,0.0,0.0,0.0,0.0,0.0,0.0,0.0,0.0,0.0,0.0,0.0,0.0,0.0,0.0,0.0,0.0,0.0,0.0,0.0,0.0,0.0,0.0,0.0,0.0,0.0,0.0,0.0,0.0,0.0,0.0,0.0,0.0,0.0,0.0,0.0,0.0,0.0,0.0,0.0,0.0,0.0,0.0,0.0,0.0,0.0,0.0,0.0,0.0,0.0,0.0,0.0,0.0,0.0,0.0,0.0,0.0,-0.9625,-1.0929,-1.2243,-1.3041,-1.3315,-1.3065,-1.2257,-1.1033,-0.9389,0.0,0.0,0.0,0.0,0.0,0.0,0.0,0.0,0.0,0.0,0.0,0.0,0.0,0.0,0.0,0.0,0.0,0.0,0.0,0.0,0.0,0.0,0.0,0.0,0.0,0.0,0.0,0.0,0.0,0.0,0.0,0.0,0.0,0.0,0.0,0.0,0.0,0.0,-0.5467,-0.592,0.0,0.0,0.0,0.0,0.0,0.0,0.0,0.0,-0.6417,0.0,0.0,0.0,0.0,0.0,0.0,0.0,0.0,0.0,0.0,0.0,0.0,0.0,0.0,0.0,0.0,0.0,0.0,0.0,0.0,0.0,0.0,0.0,0.0,0.0,0.0,0.0,0.0,0.0,0.0,0.0,0.0,0.0,0.0,0.0,0.0,0.0,0.0,0.0,0.0,0.0,0.0,0.0,0.0,0.0,0.0,0.0,0.0,0.0,0.0,0.0,0.0,0.0,0.0,0.0,0.0,-0.9606,-1.006,-1.1127,-1.2866,-1.3386,-1.3457,-1.3065,-1.2252,-1.1033,-0.9403,0.0,0.0,0.0,0.0,0.0,0.0,0.0,0.0,0.0,0.0,0.0,0.0,0.0,0.0,0.0,0.0,0.0,0.0,0.0,0.0,0.0,0.0,0.0,0.0,0.0,0.0,0.0,0.0,0.0,0.0,0.0,0.0,0.0,0.0,0.0,0.0,0.0,0.0,0.0,-0.6515,-0.6716,0.0,0.0,0.0,0.0,0.0,0.0,0.0,0.0,-0.6483,0.0,0.0,0.0,0.0,0.0,0.0,0.0,0.0,0.0,0.0,0.0,0.0,0.0,0.0,0.0,0.0,0.0,0.0,0.0,0.0,0.0,0.0,0.0,0.0,0.0,0.0,0.0,0.0,0.0,0.0,0.0,0.0,0.0,0.0,0.0,0.0,0.0,0.0,0.0,0.0,0.0,0.0,0.0,0.0,0.0,0.0,0.0,0.0,0.0,0.0,0.0,0.0,0.0,0.0,0.0,-0.9563,-1.0579,-1.1718,-1.3022,-1.3476,-1.349,-1.3065,-1.2044,-1.0816,0.0,0.0,0.0,0.0,0.0,0.0,0.0,0.0,0.0,0.0,0.0,0.0,0.0,0.0,0.0,0.0,0.0,0.0,0.0,0.0,0.0,0.0,0.0,0.0,0.0,0.0,0.0,0.0,0.0,0.0,0.0,0.0,0.0,0.0,0.0,0.0,0.0,0.0,0.0,0.0,-0.7036,-0.7206,-0.7319,0.0,0.0,0.0,0.0,0.0,0.0,-0.7277,-0.7016,0.0,0.0,0.0,0.0,0.0,0.0,0.0,0.0,0.0,0.0,0.0,0.0,0.0,0.0,0.0,0.0,0.0,0.0,0.0,0.0,0.0,0.0,0.0,0.0,0.0,0.0,0.0,0.0,0.0,0.0,0.0,0.0,0.0,0.0,0.0,0.0,0.0,0.0,0.0,0.0,0.0,0.0,0.0,0.0,0.0,0.0,0.0,0.0,0.0,0.0,0.0,0.0,0.0,0.0,0.0,-0.9302,-1.0953,-1.22,-1.3098,-1.3499,-1.349,-1.306,-1.1855,-1.0608,0.0,0.0,0.0,0.0,0.0,0.0,0.0,0.0,0.0,0.0,0.0,0.0,0.0,0.0,0.0,0.0,0.0,0.0,0.0,0.0,0.0,0.0,0.0,0.0,0.0,0.0,0.0,0.0,0.0,0.0,0.0,0.0,0.0,0.0,0.0,0.0,0.0,0.0,0.0,0.0,0.0,-0.7692,-0.782,-0.7639,0.0,0.0,0.0,0.0,-0.7834,-0.7914,0.0,0.0,0.0,0.0,0.0,0.0,0.0,0.0,0.0,0.0,0.0,0.0,0.0,0.0,0.0,0.0,0.0,0.0,0.0,0.0,0.0,0.0,0.0,0.0,0.0,0.0,0.0,0.0,0.0,0.0,0.0,0.0,0.0,0.0,0.0,0.0,0.0,0.0,0.0,0.0,0.0,0.0,0.0,0.0,0.0,0.0,0.0,0.0,0.0,0.0,0.0,0.0,0.0,0.0,0.0,0.0,-0.941,-1.0791,-1.2134,-1.3291,-1.357,-1.349,-1.3065,-1.1855,-1.0515,0.0,0.0,0.0,0.0,0.0,0.0,0.0,0.0,0.0,0.0,0.0,0.0,0.0,0.0,0.0,0.0,0.0,0.0,0.0,0.0,0.0,0.0,0.0,0.0,0.0,0.0,0.0,0.0,0.0,0.0,0.0,0.0,0.0,0.0,0.0,0.0,0.0,0.0,0.0,0.0,0.0,-0.8236,-0.807,-0.7606,-0.7513,0.0,0.0,-0.8156,-0.8969,-0.9417,0.0,0.0,0.0,0.0,0.0,0.0,0.0,0.0,0.0,0.0,0.0,0.0,0.0,0.0,0.0,0.0,0.0,0.0,0.0,0.0,0.0,0.0,0.0,0.0,0.0,0.0,0.0,0.0,0.0,0.0,0.0,0.0,0.0,0.0,0.0,0.0,0.0,0.0,0.0,0.0,0.0,0.0,0.0,0.0,0.0,0.0,0.0,0.0,0.0,0.0,0.0,0.0,0.0,0.0,0.0,-0.8291,-0.939,-1.1245,-1.2602,-1.3358,-1.3584,-1.349,-1.3074,-1.1624,-1.0276,0.0,0.0,0.0,0.0,0.0,0.0,0.0,0.0,0.0,0.0,0.0,0.0,0.0,0.0,0.0,0.0,0.0,0.0,0.0,0.0,0.0,0.0,0.0,0.0,0.0,0.0,0.0,0.0,0.0,0.0,0.0,0.0,0.0,0.0,0.0,0.0,0.0,0.0,0.0,0.0,0.0,0.0,-0.8784,-0.8342,0.0,0.0,0.0,-0.8363,-0.8578,0.0,0.0,0.0,0.0,0.0,0.0,0.0,0.0,0.0,0.0,0.0,0.0,0.0,0.0,0.0,0.0,0.0,0.0,0.0,0.0,0.0,0.0,0.0,0.0,0.0,0.0,0.0,0.0,0.0,0.0,0.0,0.0,0.0,0.0,0.0,0.0,0.0,0.0,0.0,0.0,0.0,0.0,0.0,0.0,0.0,0.0,0.0,0.0,0.0,0.0,0.0,0.0,0.0,0.0,0.0,0.0,0.0,-0.9473,-1.1676,-1.3046,-1.3447,-1.3613,-1.349,-1.3055,-1.1647,0.0,0.0,0.0,0.0,0.0,0.0,0.0,0.0,0.0,0.0,0.0,0.0,0.0,0.0,0.0,0.0,0.0,0.0,0.0,0.0,0.0,0.0,0.0,0.0,0.0,0.0,0.0,-0.4078,0.0,0.0,0.0,0.0,0.0,0.0,0.0,0.0,0.0,0.0,0.0,0.0,0.0,0.0,-0.9246,-0.9196,-0.8884,-0.8899,0.0,0.0,-0.8309,-0.8218,-0.8834,-0.8717,0.0,0.0,0.0,0.0,0.0,0.0,0.0,0.0,0.0,0.0,0.0,0.0,0.0,0.0,0.0,0.0,0.0,0.0,0.0,0.0,0.0,0.0,0.0,0.0,0.0,0.0,0.0,0.0,0.0,0.0,0.0,0.0,0.0,0.0,0.0,0.0,0.0,0.0,0.0,0.0,0.0,0.0,0.0,0.0,0.0,0.0,0.0,0.0,0.0,0.0,0.0,0.0,0.0,0.0,0.0,-0.9524,-1.1878,-1.3244,-1.3651,-1.3679,-1.349,-1.3069,-1.22,-1.0875,0.0,0.0,0.0,0.0,0.0,0.0,0.0,0.0,0.0,0.0,0.0,0.0,0.0,0.0,0.0,0.0,0.0,0.0,0.0,0.0,0.0,0.0,0.0,0.0,0.0,0.0,0.0,0.0,0.0,0.0,0.0,0.0,0.0,0.0,0.0,0.0,0.0,0.0,0.0,0.0,0.0,-0.9699,-0.8922,-0.8734,-0.8791,0.0,0.0,-0.777,-0.8578,-0.9245,-0.9039,-0.6953,0.0,0.0,0.0,0.0,0.0,0.0,0.0,0.0,0.0,0.0,0.0,0.0,0.0,0.0,0.0,0.0,0.0,0.0,0.0,0.0,0.0,0.0,0.0,0.0,0.0,0.0,0.0,0.0,0.0,0.0,0.0,0.0,0.0,0.0,0.0,0.0,0.0,0.0,0.0,0.0,0.0,0.0,0.0,0.0,0.0,0.0,0.0,0.0,0.0,0.0,0.0,0.0,0.0,-0.8475,-0.9165,-1.137,-1.2682,-1.3062,-1.3324,-1.3314,-1.3036,-1.1999,-1.0803,0.0,0.0,0.0,0.0,0.0,0.0,0.0,0.0,0.0,0.0,0.0,0.0,0.0,0.0,0.0,0.0,0.0,0.0,0.0,0.0,0.0,0.0,0.0,0.0,0.0,0.0,0.0,0.0,-0.5727,-0.5817,-0.5684,0.0,0.0,0.0,0.0,0.0,0.0,0.0,0.0,0.0,0.0,-1.0365,-1.0803,-1.047,0.0,0.0,-0.9831,-0.8904,-0.9098,-0.8657,-0.7717,-0.6225,-0.5618,0.0,0.0,0.0,0.0,0.0,0.0,0.0,0.0,0.0,0.0,0.0,0.0,0.0,0.0,0.0,0.0,0.0,0.0,0.0,0.0,0.0,0.0,0.0,0.0,0.0,0.0,0.0,0.0,0.0,0.0,0.0,0.0,0.0,0.0,0.0,0.0,0.0,0.0,0.0,0.0,0.0,0.0,0.0,0.0,0.0,0.0,0.0,0.0,0.0,0.0,0.0,0.0,-0.832,-0.9071,-1.108,-1.2328,-1.2711,-1.296,-1.2994,-1.2786,-1.2,-1.0938,0.0,0.0,0.0,0.0,0.0,0.0,0.0,0.0,0.0,0.0,0.0,0.0,0.0,0.0,0.0,0.0,0.0,0.0,0.0,0.0,0.0,0.0,0.0,0.0,0.0,0.0,0.0,0.0,-0.6157,-0.6117,-0.602,0.0,0.0,0.0,0.0,0.0,0.0,0.0,0.0,0.0,0.0,-1.1049,-1.159,-1.1167,-1.0902,-1.1088,-0.9811,-0.8755,-0.8573,-0.7726,-0.6799,-0.5891,0.0,0.0,0.0,0.0,0.0,0.0,0.0,0.0,0.0,0.0,0.0,0.0,0.0,0.0,0.0,0.0,0.0,0.0,0.0,0.0,0.0,0.0,0.0,0.0,0.0,0.0,0.0,0.0,0.0,0.0,-0.4534,0.0,0.0,0.0,0.0,0.0,0.0,0.0,0.0,0.0,0.0,0.0,0.0,0.0,0.0,0.0,0.0,0.0,0.0,0.0,0.0,0.0,0.0,-0.8516,-0.9276,-1.1154,-1.2333,-1.2702,-1.2719,-1.2631,-1.2447,-1.2052,-1.1176,-0.9806,0.0,0.0,0.0,0.0,0.0,0.0,0.0,0.0,0.0,0.0,0.0,0.0,0.0,0.0,0.0,0.0,0.0,0.0,0.0,0.0,0.0,0.0,0.0,0.0,0.0,0.0,-0.5675,-0.5991,-0.6232,0.0,0.0,0.0,0.0,0.0,0.0,0.0,0.0,0.0,0.0,-1.1184,-1.1778,-1.0852,-1.0313,-0.973,-0.8689,-0.7401,-0.6517,-0.6865,-0.6802,-0.6497,0.0,0.0,0.0,0.0,0.0,0.0,0.0,0.0,0.0,0.0,0.0,0.0,0.0,0.0,0.0,0.0,0.0,0.0,0.0,0.0,0.0,0.0,0.0,0.0,0.0,0.0,0.0,-0.5835,-0.5557,0.0,0.0,0.0,0.0,0.0,0.0,0.0,0.0,0.0,0.0,0.0,-0.8377,-0.8617,0.0,0.0,0.0,0.0,0.0,0.0,0.0,0.0,0.0,0.0,0.0,0.0,-0.845,-0.9225,-1.0804,-1.1879,-1.2122,-1.2242,-1.2329,-1.2265,-1.1786,-1.0716,-0.9055,0.0,0.0,0.0,0.0,0.0,0.0,0.0,0.0,0.0,0.0,0.0,0.0,0.0,0.0,0.0,0.0,0.0,0.0,0.0,0.0,0.0,0.0,0.0,0.0,0.0,-0.6147,0.0,0.0,0.0,0.0,0.0,0.0,0.0,0.0,0.0,0.0,0.0,-0.9738,-1.0849,-1.1293,-1.1611,-1.1827,-1.1684,-1.1354,0.0,0.0,0.0,0.0,0.0,0.0,0.0,0.0,0.0,0.0,0.0,0.0,0.0,0.0,-0.6091,-0.4977,-0.4869,-0.4821,-0.452,0.0,0.0,0.0,0.0,0.0,0.0,0.0,0.0,0.0,0.0,0.0,0.0,0.0,0.0,-0.7291,0.0,-0.686,0.0,0.0,0.0,0.0,0.0,0.0,0.0,0.0,-0.884,-0.9368,-0.9482,-0.9713,-0.9665,0.0,-0.9145,-0.8353,0.0,0.0,0.0,0.0,0.0,0.0,0.0,0.0,-0.856,-0.9307,-1.0745,-1.1589,-1.1764,-1.2005,-1.2005,-1.2113,-1.1475,-1.0567,-0.9064,-0.8304,-0.7508,0.0,0.0,0.0,0.0,0.0,0.0,0.0,0.0,0.0,0.0,0.0,0.0,0.0,0.0,0.0,0.0,0.0,0.0,0.0,0.0,0.0,0.0,0.0,-0.636,0.0,0.0,0.0,0.0,0.0,0.0,0.0,0.0,0.0,-0.9048,-0.9767,-1.0683,-1.1704,-1.1841,-1.1968,-1.229,0.0,0.0,0.0,0.0,0.0,0.0,0.0,-0.7594,-0.716,-0.6991,-0.6594,-0.5838,-0.6204,-0.6587,-0.6616,0.0,0.0,-0.5878,-0.5735,-0.5672,-0.5521,-0.5429,-0.5412,-0.538,-0.546,-0.5516,0.0,0.0,0.0,0.0,0.0,0.0,0.0,0.0,-0.9294,-0.9271,0.0,-0.8577,0.0,0.0,0.0,0.0,0.0,-0.8568,0.0,0.0,-1.059,-1.1029,-1.0729,-1.0716,-1.0744,-1.0692,-1.0564,-1.0104,-0.9405,-0.8193,0.0,0.0,0.0,0.0,0.0,0.0,-0.895,-0.9681,-1.0887,-1.1593,-1.1768,-1.1776,-1.1772,-1.1752,-1.1265,-1.0651,-0.9933,-0.9384,-0.8636,-0.7635,-0.6646,0.0,0.0,0.0,0.0,0.0,0.0,0.0,0.0,0.0,0.0,0.0,0.0,0.0,0.0,0.0,0.0,0.0,0.0,0.0,0.0,-0.6253,0.0,0.0,0.0,0.0,0.0,0.0,0.0,0.0,0.0,0.0,-0.9828,-1.0768,-1.1746,-1.2337,0.0,0.0,0.0,0.0,-1.1039,-1.0343,-0.9593,-0.906,-0.9225,-0.9591,-0.9838,-0.9892,0.0,0.0,-0.7674,-0.7532,-0.7467,-0.7239,-0.7573,-0.7736,-0.726,-0.6907,-0.6733,-0.6828,-0.6588,-0.6556,-0.6651,-0.6701,-0.6768,-1.1399,0.0,0.0,0.0,0.0,-0.9753,-1.0099,-1.0702,-1.0569,-1.0263,-0.9901,-0.9643,0.0,0.0,0.0,0.0,0.0,0.0,-0.947,-1.0136,-1.0627,-1.1066,-1.1459,-1.1464,-1.1439,-1.1503,-1.1256,-1.1062,-1.0904,-1.0245,-0.8962,-0.7033,0.0,0.0,0.0,0.0,-0.9677,-1.0391,-1.1252,-1.1719,-1.1772,-1.1776,-1.1715,-1.1581,-1.1431,-1.1066,-1.0481,-1.0273,-0.9647,-0.8677,-0.7943,0.0,0.0,0.0,0.0,0.0,0.0,0.0,0.0,0.0,0.0,0.0,0.0,0.0,0.0,0.0,0.0,0.0,0.0,0.0,-0.6482,-0.6823,-0.7121,0.0,0.0,0.0,0.0,0.0,0.0,0.0,0.0,0.0,-1.1614,-1.1685,-1.185,0.0,0.0,-1.1842,-1.09,-1.0937,-1.0606,-0.937,-0.891,0.0,0.0,-0.8603,-0.8732,-0.8308,-0.8263,-0.821,-0.7903,-0.7915,-0.8008,-0.7929,-0.8035,-0.8081,-0.7962,-0.785,-0.778,-0.7812,-0.7766,-0.7731,-0.7766,-0.7804,-0.7815,-1.3426,-1.193,-1.1173,-1.1078,-1.1282,-1.1169,-1.1586,-1.2174,-1.1946,-1.1584,-1.1313,-1.0985,-1.0348,-0.9486,-0.9177,0.0,0.0,0.0,-1.0249,-1.0972,-1.107,-1.1358,-1.176,-1.1776,-1.1776,-1.1768,-1.1663,-1.161,-1.1606,-1.1244,-1.0205,-0.8548,0.0,0.0,-0.8524,-0.9462,-1.0229,-1.0802,-1.1443,-1.1776,-1.1776,-1.1776,-1.1723,-1.1614,-1.1541,-1.1309,-1.0915,-1.0736,-1.0356,-0.9538,-0.8857,-0.8132,0.0,0.0,0.0,0.0,0.0,0.0,0.0,0.0,0.0,0.0,0.0,-0.586,0.0,0.0,0.0,0.0,-0.6426,-0.6903,-0.7466,-0.7773,0.0,0.0,0.0,0.0,0.0,0.0,0.0,-1.0891,-1.1746,-1.2436,-1.2762,-1.2597,-1.2554,-1.2843,-1.2696,-1.2265,-1.1518,0.0,-1.1621,-1.0732,-1.0514,-1.0483,-1.0251,-1.052,-1.0487,-0.9863,-0.9548,-0.9283,-0.8916,-0.8537,-0.8372,-0.8375,-0.8375,-0.8378,-0.8375,-0.8378,-0.8337,-0.8255,-0.8233,-0.8233,-0.8233,-0.8233,-0.8233,-1.503,-1.4782,-1.3049,-1.2361,-1.2556,-1.2537,-1.2868,-1.3462,-1.3103,-1.3086,-1.3089,-1.2312,-1.1526,-1.0949,-1.0125,0.0,-1.0785,-1.0956,-1.1293,-1.1772,-1.1776,-1.1776,-1.1776,-1.1776,-1.1784,-1.1797,-1.1797,-1.1797,-1.178,-1.1455,-1.1025,-1.0521,-1.018,-0.9892,-0.9689,-1.0184,-1.0631,-1.0988,-1.148,-1.1744,-1.1776,-1.1776,-1.1776,-1.1772,-1.1598,-1.1411,-1.1228,-1.1062,-1.0761,-1.028,-0.9623,-0.8932,-0.8264,0.0,0.0,0.0,0.0,0.0,0.0,0.0,0.0,0.0,0.0,0.0,0.0,0.0,0.0,0.0,-0.7678,0.0,-0.8793,-0.903,0.0,0.0,0.0,-1.0126,-1.0976,-1.159,-1.2096,-1.2493,0.0,0.0,-1.3485,-1.3509,-1.3665,-1.4081,-1.3892,-1.3651,-1.3344,-1.3508,-1.3592,-1.3072,-1.3191,-1.3274,-1.3039,-1.3296,-1.3216,-1.2608,-1.2196,-1.0986,-1.0041,-0.925,-0.8734,-0.8573,-0.8584,-0.8581,-0.8584,-0.8571,-0.8522,-0.831,-0.8274,-0.8269,-0.828,-0.8282,-0.8285,-1.5886,-1.5815,-1.4857,-1.4337,-1.4046,-1.3887,-1.3996,-1.409,-1.3967,-1.3743,-1.3265,-1.2864,-1.226,-1.1565,-1.1321,-1.1358,-1.152,-1.1565,-1.1654,-1.1772,-1.1776,-1.1776,-1.1776,-1.1776,-1.1845,-1.1967,-1.1967,-1.1971,-1.1967,-1.1882,-1.1638,-1.1261,-1.1159,-1.0684,-0.988,-1.0359,-1.081,-1.1159,-1.1289,-1.1492,-1.1764,-1.1776,-1.1776,-1.1776,-1.1598,-1.1528,-1.1578,-1.1398,-1.1202,-1.1063,-1.0593,-1.0139,-0.9405,-0.7973,0.0,0.0,0.0,0.0,0.0,0.0,0.0,0.0,0.0,-0.7677,-0.6492,0.0,-0.8037,0.0,-0.8916,-0.9625,-1.0083,-1.0178,0.0,0.0,-1.1165,-1.1463,-1.2441,-1.2824,-1.3112,-1.3362,-1.3759,-1.4156,-1.452,-1.4567,-1.4718,-1.5115,-1.4463,-1.3672,-1.3008,-1.3169,-1.3144,-1.2365,-1.2487,-1.2608,-1.2644,-1.1885,-1.1621,-1.1302,-1.0359,-0.9516,-0.9149,-0.8993,-0.8698,-0.8611,-0.8587,-0.8587,-0.8595,-0.8587,-0.8576,-0.8516,-0.8503,-0.8503,-0.8505,-0.85,-0.85,-1.6457,-1.6419,-1.5975,-1.555,-1.5148,-1.4756,-1.4539,-1.4459,-1.4327,-1.3888,-1.3295,-1.2944,-1.2423,-1.1902,-1.1975,-1.2016,-1.2012,-1.2012,-1.2052,-1.2125,-1.213,-1.217,-1.2239,-1.2085,-1.2101,-1.2259,-1.2105,-1.2028,-1.2275,-1.2275,-1.2175,-1.2221,-1.2217,-1.1862,-1.1194,-1.1193,-1.1214,-1.1448,-1.1527,-1.1749,-1.223,-1.2251,-1.2132,-1.1779,-1.1737,-1.1596,-1.1197,-1.1078,-1.0957,-1.0578,-1.0192,-0.993,-0.9513,-0.844,-0.7771,0.0,0.0,0.0,0.0,0.0,0.0,0.0,0.0,0.0,0.0,0.0,-0.9271,-0.9365,-1.023,-1.0915,-1.1236,-1.1515,-1.1945,-1.2583,-1.255,-1.2857,-1.3797,-1.4005,-1.4194,-1.4487,-1.4723,-1.4955,-1.5182,-1.521,-1.5328,-1.5649,-1.5196,-1.4669,-1.4083,-1.4204,-1.409,-1.3605,-1.3701,-1.3738,-1.3629,-1.315,-1.2936,-1.2803,-1.1975,-1.1121,-1.1043,-1.0756,-1.0185,-0.9706,-0.9552,-0.9287,-0.8886,-0.875,-0.875,-0.875,-0.875,-0.8709,-0.8611,-0.8587,-0.8587,-1.684,-1.6821,-1.6613,-1.6316,-1.5938,-1.5404,-1.4964,-1.4629,-1.4217,-1.383,-1.3264,-1.2645,-1.2291,-1.2131,-1.219,-1.2272,-1.2272,-1.232,-1.2422,-1.2689,-1.2693,-1.2779,-1.2919,-1.259,-1.2508,-1.264,-1.2336,-1.23,-1.2526,-1.2547,-1.2781,-1.2987,-1.3005,-1.2921,-1.284,-1.2273,-1.1871,-1.1871,-1.2069,-1.2333,-1.2636,-1.2601,-1.2337,-1.175,-1.1824,-1.1603,-1.0684,-1.072,-1.0436,-0.9878,-0.955,-0.9401,-0.9527,-0.8849,-0.8453,0.0,-0.8038,0.0,0.0,0.0,0.0,0.0,0.0,0.0,0.0,-1.0367,-1.065,-1.0872,-1.16,-1.2157,-1.2394,-1.2909,-1.3391,-1.3792,-1.3849,-1.4156,-1.4903,-1.5011,-1.5163,-1.5555,-1.5597,-1.5602,-1.5635,-1.564,-1.5715,-1.5867,-1.5862,-1.5749,-1.5659,-1.5626,-1.5489,-1.5607,-1.5597,-1.5352,-1.5375,-1.5238,-1.4968,-1.4959,-1.3725,-1.3409,-1.298,-1.2287,-1.1586,-1.0596,-1.0304,-1.0037,-0.9087,-0.8943,-0.8943,-0.8932,-0.8929,-0.8872,-0.8706,-0.8655,-0.8638,-1.7048,-1.7024,-1.6831,-1.6698,-1.6613,-1.65,-1.5758,-1.4624,-1.4318,-1.4006,-1.345,-1.308,-1.272,-1.2556,-1.2492,-1.2457,-1.2473,-1.2512,-1.2664,-1.2951,-1.2951,-1.3229,-1.3513,-1.3291,-1.3195,-1.3226,-1.3026,-1.3043,-1.2899,-1.3047,-1.3088,-1.291,-1.2943,-1.317,-1.3218,0.0,0.0,0.0,-1.2205,-1.2342,-1.2245,-1.1946,-1.1624,-1.1507,-1.1241,0.0,-1.1142,-1.1092,-1.1002,-1.0956,-1.0868,0.0,0.0,0.0,0.0,0.0,0.0,0.0,0.0,0.0,0.0,0.0,-1.0683,-1.0683,-1.074,-1.1524,-1.2191,-1.2564,-1.3051,-1.349,-1.3859,-1.4,-1.4246,-1.4643,-1.4695,-1.4898,-1.5375,-1.5441,-1.5541,-1.5767,-1.58,-1.5871,-1.6023,-1.6065,-1.6075,-1.6098,-1.6122,-1.6108,-1.606,-1.6041,-1.5994,-1.5848,-1.5805,-1.5871,-1.6037,-1.4625,-1.3617,-1.3082,-1.1514,-1.0472,-1.0383,-1.0079,-0.9754,-0.9399,-0.9226,-0.9232,-0.8962,-0.8951,-0.8973,-0.8954,-0.8959,-0.8938,-0.8891,-0.8883,-0.891,-1.7261,0.0,-1.7152,-1.6996,0.0,-1.6694,-1.6112,-1.5243,-1.5342,-1.4964,-1.4121,-1.382,-1.3462,-1.3023,-1.3187,-1.3031,-1.2781,-1.272,-1.3084,-1.3475,-1.3384,-1.367,-1.4156,-1.3774,-1.3638,-1.3721,-1.3541,-1.3527,-1.3568,-1.3658,-1.373,-1.366,-1.3765,-1.3936,-1.4057,-1.4052,-1.3755,-1.2912,-1.2912,-1.2958,-1.304,-1.2753,-1.2452,-1.2169,0.0,0.0,0.0,0.0,0.0,0.0,0.0,0.0,0.0,0.0,0.0,-1.1063,-1.0705,-1.0573,-1.0956,-1.1081,-1.1508,-1.2126,-1.236,-1.2413,-1.2002,-1.2824,-1.3447,-1.366,-1.3972,-1.4279,-1.4581,-1.4704,-1.4893,-1.52,-1.5243,-1.5366,-1.5645,-1.5711,-1.5791,-1.5975,-1.6023,-1.6065,-1.6169,-1.6188,-1.6188,-1.6188,-1.6188,-1.6188,-1.6188,-1.6188,-1.6131,-1.6037,-1.6023,-1.606,-1.6155,-1.5323,-1.4466,-1.4177,-1.3028,-1.1994,-1.1785,-1.1206,-1.0757,-1.0125,-0.9971,-0.9847,-0.9347,-0.9215,-0.9215,-0.9223,-0.9264,-0.9277,-0.9228,-0.9125,-0.9038,-1.7421,-1.7421,-1.7421,-1.7232,-1.6901,-1.6727,-1.6457,-1.6145,0.0,0.0,0.0,-1.476,-1.4316,-1.3611,-1.3917,-1.3798,-1.3363,-1.3295,-1.3567,-1.3976,-1.3822,-1.4064,-1.4747,-1.4254,-1.4081,-1.4321,-1.3886,-1.3837,-1.4189,-1.4226,-1.4377,-1.4638,-1.4666,-1.4766,-1.4922,-1.4936,-1.4681,-1.418,-1.3726,-1.3632,-1.3887,-1.3655,-1.3263,-1.2724,-1.2833,-1.2578,-1.1907,-1.1874,-1.169,-1.142,-1.1153,-1.1276,-1.1499,-1.148,-1.1573,-1.2016,-1.2072,-1.2247,-1.2583,-1.2677,-1.2956,-1.3514,-1.3901,-1.3901,-1.3381,-1.3972,-1.4383,-1.4416,-1.4615,-1.4808,-1.4974,-1.5167,-1.5375,-1.5593,-1.5611,-1.5692,-1.5886,-1.5914,-1.5985,-1.6145,-1.6174,-1.6183,-1.6183,-1.6188,-1.6188,-1.6188,-1.6188,-1.6188,-1.6188,-1.6188,-1.6183,-1.6164,-1.6155,-1.6178,-1.6183,-1.5895,-1.5895,-1.5607,-1.4746,-1.4173,-1.4026,-1.3317,-1.2463,-1.1435,-1.1168,-1.063,-1.0006,-0.9565,-0.9462,-0.9481,-0.9563,-0.9617,-0.953,-0.9383,-0.9256,-1.7421,-1.7421,-1.7421,-1.7388,-1.7336,-1.7308,-1.7261,-1.7123,-1.6136,-1.5626,-1.5512,-1.5213,-1.5077,-1.4974,-1.464,-1.4489,-1.4435,-1.4498,-1.4605,-1.4787,-1.4756,-1.4841,-1.517,-1.4922,-1.4725,-1.459,-1.4529,-1.4407,-1.4271,-1.4416,-1.4505,-1.4657,-1.4804,-1.4903,-1.4931,-1.4936,-1.4893,-1.4794,-1.4222,-1.3778,-1.348,-1.3098,-1.2767,-1.2502,-1.2365,-1.2228,-1.2106,-1.2106,-1.2082,-1.1948,-1.1915,-1.2079,-1.2554,-1.2304,-1.2479,-1.2862,-1.3065,-1.3197,-1.3258,-1.3584,-1.3901,-1.4161,-1.4407,-1.4506,-1.443,-1.452,-1.4657,-1.4827,-1.5016,-1.5158,-1.52,-1.5389,-1.5593,-1.5782,-1.5819,-1.5904,-1.6103,-1.6127,-1.6136,-1.6178,-1.6188,-1.6188,-1.6188,-1.6188,-1.6188,-1.6188,-1.624,-1.6207,-1.6226,-1.6188,-1.6188,-1.6188,-1.6188,-1.6188,-1.6183,-1.5319,-1.503,-1.4742,-1.3888,-1.3174,-1.3321,-1.2888,-1.2606,-1.2463,-1.1603,-1.1044,-1.0643,-0.9908,-0.9543,-0.9478,-0.9541,-0.9568,-0.9631,-0.9666,-0.9707,-1.7421,-1.7421,-1.7421,-1.7421,-1.7421,-1.7421,-1.7421,-1.7379,-1.6826,-1.6443,-1.623,-1.6127,-1.5895,-1.5588,-1.5442,-1.5125,-1.4818,-1.4764,-1.4861,-1.5097,-1.4999,-1.5152,-1.538,-1.5196,-1.4988,-1.4808,-1.4794,-1.4742,-1.4666,-1.4752,-1.4799,-1.4804,-1.4889,-1.4936,-1.4936,-1.4936,-1.4936,-1.4922,-1.4548,-1.426,-1.4062,-1.366,-1.3391,-1.3291,-1.3093,-1.298,-1.298,-1.298,-1.298,-1.298,-1.298,-1.3069,-1.3249,-1.3173,-1.3202,-1.3391,-1.3495,-1.3603,-1.3721,-1.4005,-1.4265,-1.4468,-1.4577,-1.4681,-1.4789,-1.4794,-1.4884,-1.5073,-1.5182,-1.5333,-1.5541,-1.5663,-1.5805,-1.6013,-1.6037,-1.6075,-1.616,-1.6188,-1.6188,-1.6188,-1.6188,-1.6188,-1.6188,-1.6188,-1.6235,-1.632,-1.6434,-1.6514,-1.6514,-1.6509,-1.6429,-1.624,-1.6188,-1.6188,-1.6188,-1.5753,-1.5465,-1.5461,-1.4457,-1.3745,-1.3607,-1.3317,-1.2749,-1.2606,-1.1746,-1.1063,-1.1118,-1.019,-0.967,-0.9571,-0.9704,-0.9772,-0.9788,-0.9854,-0.993,-1.7421,-1.7421,-1.7421,-1.7421,-1.7421,-1.7421,-1.7421,-1.7421,-1.7416,-1.7246,-1.6963,-1.6897,-1.6599,-1.616,-1.6098,-1.581,-1.5375,-1.5144,-1.52,-1.5408,-1.5238,-1.5295,-1.5526,-1.5385,-1.52,-1.5021,-1.5002,-1.4978,-1.4941,-1.4936,-1.4936,-1.4936,-1.4936,-1.4936,-1.4936,-1.4936,-1.4936,-1.4922,-1.478,-1.4681,-1.4624,-1.4317,-1.4133,-1.4066,-1.391,-1.3811,-1.3769,-1.3759,-1.374,-1.3693,-1.3688,-1.3688,-1.3693,-1.3736,-1.3764,-1.3764,-1.3807,-1.3925,-1.4133,-1.4293,-1.4477,-1.4681,-1.47,-1.4785,-1.4974,-1.4997,-1.5059,-1.521,-1.5323,-1.5522,-1.5786,-1.5904,-1.6004,-1.6164,-1.6188,-1.6178,-1.6183,-1.6188,-1.6188,-1.6188,-1.6188,-1.6188,-1.6188,-1.6221,-1.6339,-1.6538,-1.6703,-1.6793,-1.6802,-1.6802,-1.6651,-1.6443,-1.6325,-1.6344,-1.632,-1.6282,-1.6264,-1.6249,-1.5488,-1.5039,-1.4746,-1.4034,-1.3603,-1.3603,-1.2745,-1.1921,-1.161,-1.0675,-1.0008,-0.9747,-0.9715,-0.9835,-0.9796,-0.9875,-0.9984,-1.7421,-1.7421,-1.7421,-1.7421,-1.7416,-1.7416,-1.7412,-1.7416,-1.7421,-1.7412,-1.7331,-1.7166,-1.7048,-1.6968,-1.6783,-1.6642,-1.6566,-1.6401,-1.6212,-1.606,-1.5876,-1.5701,-1.5578,-1.5541,-1.5418,-1.5224,-1.52,-1.5101,-1.4955,-1.4936,-1.4936,-1.4936,-1.4936,-1.4936,-1.4936,-1.4936,-1.4936,-1.4936,-1.4917,-1.4818,-1.4643,-1.4596,-1.4487,-1.4288,-1.4265,-1.4166,-1.3991,-1.3986,-1.3892,-1.3707,-1.3703,-1.3698,-1.3717,-1.3877,-1.3981,-1.3986,-1.4151,-1.435,-1.4544,-1.4596,-1.4685,-1.4879,-1.4903,-1.4983,-1.5172,-1.521,-1.521,-1.5304,-1.5588,-1.5796,-1.5867,-1.6027,-1.6145,-1.6174,-1.6188,-1.6188,-1.6188,-1.6188,-1.6188,-1.6188,-1.6188,-1.6188,-1.6212,-1.6363,-1.6552,-1.6745,-1.6835,-1.6878,-1.6873,-1.6868,-1.6859,-1.6774,-1.675,-1.6736,-1.6698,-1.6571,-1.6476,-1.6443,-1.6306,-1.5965,-1.5822,-1.5809,-1.5763,-1.5149,-1.463,-1.365,-1.2643,-1.1647,-1.0705,-0.9951,-0.9722,-0.959,-0.9669,-0.9777,-0.9878,-1.7421,-1.7421,-1.7421,-1.735,-1.7242,-1.7237,-1.7237,-1.7246,-1.7374,-1.7421,-1.7416,-1.7331,-1.7294,-1.7284,-1.7072,-1.6982,-1.6968,-1.6764,-1.6556,-1.6363,-1.6264,-1.6056,-1.5758,-1.5739,-1.5626,-1.5422,-1.5295,-1.5186,-1.5106,-1.4993,-1.4936,-1.4936,-1.4936,-1.4936,-1.4936,-1.4936,-1.4936,-1.4936,-1.4936,-1.4893,-1.4808,-1.469,-1.4591,-1.4501,-1.4378,-1.4279,-1.4199,-1.4189,-1.4151,-1.4066,-1.4057,-1.4057,-1.4052,-1.4142,-1.4189,-1.4199,-1.4388,-1.4539,-1.4629,-1.4742,-1.4846,-1.4931,-1.5044,-1.5148,-1.5233,-1.5456,-1.5607,-1.5626,-1.5763,-1.5904,-1.6032,-1.6131,-1.6188,-1.6188,-1.6188,-1.6188,-1.6188,-1.6188,-1.6188,-1.6188,-1.6188,-1.623,-1.6377,-1.6646,-1.6864,-1.6991,-1.7072,-1.7147,-1.7161,-1.7171,-1.7171,-1.7171,-1.7171,-1.7053,-1.6873,-1.6745,-1.6679,-1.666,-1.6608,-1.6552,-1.6528,-1.6547,-1.6552,-1.6538,-1.5565,-1.4775,-1.4062,-1.2891,-1.1755,-1.0807,-0.9857,-0.9614,-0.9661,-0.9704,-0.9783,-1.7421,-1.7421,-1.7421,-1.7303,-1.7109,-1.7105,-1.7072,-1.7043,-1.719,-1.7284,-1.7331,-1.7336,-1.7341,-1.7322,-1.7227,-1.719,-1.7166,-1.6982,-1.6807,-1.6642,-1.6542,-1.632,-1.6041,-1.5966,-1.5843,-1.5649,-1.5489,-1.5347,-1.5233,-1.5092,-1.4993,-1.4941,-1.4936,-1.4936,-1.4936,-1.4936,-1.4936,-1.4936,-1.4936,-1.4936,-1.4912,-1.4789,-1.4714,-1.4704,-1.4567,-1.4459,-1.4402,-1.4397,-1.4369,-1.4312,-1.4312,-1.4312,-1.4317,-1.4364,-1.4426,-1.4482,-1.4624,-1.4714,-1.4718,-1.4851,-1.4955,-1.5021,-1.5153,-1.5285,-1.5427,-1.5687,-1.5876,-1.5942,-1.5952,-1.6027,-1.6145,-1.6188,-1.6188,-1.6188,-1.6188,-1.6188,-1.6188,-1.6188,-1.6188,-1.6188,-1.6188,-1.6287,-1.6552,-1.6864,-1.71,-1.719,-1.7317,-1.7421,-1.7421,-1.7407,-1.7407,-1.7421,-1.7416,-1.7308,-1.7029,-1.692,-1.6901,-1.6868,-1.6835,-1.6764,-1.6802,-1.6797,-1.6793,-1.6519,-1.5735,-1.5121,-1.4671,-1.3787,-1.2868,-1.156,-1.0444,-0.9753,-0.9544,-0.959,-0.9666,-1.7421,-1.7421,-1.7421,-1.7298,-1.7105,-1.7095,-1.6991,-1.6835,-1.6845,-1.6949,-1.7109,-1.7119,-1.7119,-1.7128,-1.7275,-1.7398,-1.7369,-1.7166,-1.7053,-1.6986,-1.667,-1.6481,-1.6443,-1.6259,-1.606,-1.5881,-1.58,-1.5602,-1.5267,-1.5219,-1.5125,-1.495,-1.4941,-1.4936,-1.4936,-1.4945,-1.4941,-1.4955,-1.4955,-1.4945,-1.4941,-1.4926,-1.4907,-1.4898,-1.4903,-1.4794,-1.4648,-1.4619,-1.4529,-1.4326,-1.434,-1.4331,-1.434,-1.4511,-1.47,-1.486,-1.4903,-1.4912,-1.4907,-1.4936,-1.5016,-1.5177,-1.5252,-1.5404,-1.573,-1.5843,-1.5961,-1.6141,-1.6141,-1.616,-1.6178,-1.6188,-1.6188,-1.6188,-1.6188,-1.6188,-1.6188,-1.6188,-1.6188,-1.6207,-1.6249,-1.6424,-1.675,-1.6972,-1.7194,-1.7331,-1.7412,-1.7421,-1.7421,-1.7421,-1.7421,-1.7421,-1.7421,-1.7412,-1.7369,-1.7213,-1.7105,-1.7076,-1.6996,-1.6849,-1.6812,-1.6797,-1.6821,-1.6821,-1.6513,-1.6053,-1.545,-1.4514,-1.3563,-1.2353,-1.0703,-0.9962,-0.9664,-0.9481,-0.9568,-1.7421,-1.7412,-1.7275,-1.7175,-1.7095,-1.6968,-1.6868,-1.6802,-1.6802,-1.6845,-1.6901,-1.6911,-1.6911,-1.692,-1.6991,-1.71,-1.7204,-1.7138,-1.7034,-1.6925,-1.6887,-1.6736,-1.6486,-1.6401,-1.6344,-1.6235,-1.5989,-1.572,-1.5456,-1.5309,-1.52,-1.5111,-1.4993,-1.4936,-1.4955,-1.5059,-1.5125,-1.5125,-1.5125,-1.5125,-1.5111,-1.5002,-1.4936,-1.4936,-1.4936,-1.4903,-1.4827,-1.4822,-1.4789,-1.4714,-1.4709,-1.4709,-1.4714,-1.4785,-1.4855,-1.4922,-1.4936,-1.4936,-1.4945,-1.5054,-1.5153,-1.5233,-1.5489,-1.5678,-1.5848,-1.5985,-1.6103,-1.6164,-1.6188,-1.6188,-1.6188,-1.6188,-1.6188,-1.6188,-1.6188,-1.6188,-1.6188,-1.6188,-1.6226,-1.6377,-1.6585,-1.6849,-1.6958,-1.718,-1.7336,-1.7407,-1.7421,-1.7421,-1.7421,-1.7421,-1.7421,-1.7421,-1.7421,-1.7421,-1.7421,-1.7374,-1.7308,-1.7298,-1.7246,-1.7218,-1.718,-1.7152,-1.7166,-1.7123,-1.7081,-1.6852,-1.6089,-1.5253,-1.4288,-1.3045,-1.1373,-1.0322,-0.9697,-0.9552,-0.9633,-1.7421,-1.7402,-1.727,-1.7166,-1.7086,-1.6963,-1.6821,-1.6717,-1.6698,-1.6703,-1.6698,-1.6698,-1.6698,-1.6703,-1.6703,-1.6769,-1.6906,-1.6968,-1.6934,-1.6816,-1.6873,-1.6755,-1.6514,-1.6415,-1.6386,-1.6344,-1.6108,-1.5862,-1.5663,-1.5512,-1.5366,-1.5224,-1.5153,-1.5096,-1.5078,-1.5233,-1.5337,-1.5337,-1.5337,-1.5342,-1.5314,-1.5139,-1.5026,-1.5021,-1.4964,-1.4936,-1.4936,-1.4936,-1.4936,-1.4936,-1.4936,-1.4936,-1.4936,-1.4936,-1.4936,-1.4936,-1.4936,-1.4964,-1.5035,-1.5158,-1.529,-1.5432,-1.5682,-1.5881,-1.5956,-1.6103,-1.6174,-1.6188,-1.6188,-1.6188,-1.6188,-1.6188,-1.6188,-1.6188,-1.6188,-1.6212,-1.6268,-1.6278,-1.6377,-1.658,-1.6864,-1.7062,-1.7128,-1.7298,-1.7398,-1.7421,-1.7421,-1.7421,-1.7421,-1.7421,-1.7421,-1.7421,-1.7421,-1.7421,-1.7421,-1.7398,-1.7379,-1.7374,-1.7369,-1.7407,-1.7421,-1.7421,-1.7416,-1.7398,-1.7341,-1.7246,-1.6701,-1.6011,-1.489,-1.363,-1.2258,-1.0898,-1.0272,-0.965,-0.9723,-1.7421,-1.7421,-1.7421,-1.7294,-1.7142,-1.709,-1.6864,-1.6571,-1.6509,-1.6505,-1.649,-1.6481,-1.6481,-1.6481,-1.6481,-1.649,-1.6538,-1.6689,-1.6774,-1.676,-1.6623,-1.6542,-1.6471,-1.6325,-1.623,-1.6216,-1.6183,-1.6065,-1.5867,-1.5805,-1.5621,-1.5356,-1.5437,-1.5399,-1.5238,-1.5446,-1.556,-1.556,-1.5555,-1.556,-1.5536,-1.5352,-1.5233,-1.5215,-1.5059,-1.4959,-1.495,-1.4941,-1.4936,-1.4936,-1.4936,-1.4936,-1.4936,-1.4936,-1.4936,-1.4936,-1.4941,-1.504,-1.5196,-1.5257,-1.5474,-1.572,-1.5857,-1.5966,-1.6112,-1.6169,-1.6188,-1.6188,-1.6188,-1.6188,-1.6188,-1.6207,-1.6207,-1.6188,-1.6202,-1.6292,-1.6415,-1.6486,-1.6571,-1.6788,-1.701,-1.7105,-1.7152,-1.7298,-1.7421,-1.7421,-1.7421,-1.7421,-1.7421,-1.7421,-1.7421,-1.7421,-1.7421,-1.7421,-1.7421,-1.7421,-1.7421,-1.7416,-1.7412,-1.7421,-1.7421,-1.7421,-1.7421,-1.7407,-1.7407,-1.7327,-1.717,-1.6326,-1.5232,-1.3968,-1.2729,-1.1334,-1.0401,-0.978,-0.9786,-1.7421,-1.7421,-1.7421,-1.7393,-1.7308,-1.7166,-1.6944,-1.6698,-1.6552,-1.6405,-1.6297,-1.6273,-1.6278,-1.6278,-1.6278,-1.6278,-1.6282,-1.6353,-1.6448,-1.6571,-1.6656,-1.6604,-1.6486,-1.6415,-1.6316,-1.6207,-1.6188,-1.615,-1.6065,-1.5938,-1.5772,-1.5682,-1.5588,-1.5526,-1.547,-1.5659,-1.5763,-1.5767,-1.5763,-1.5763,-1.5749,-1.5564,-1.546,-1.5437,-1.5252,-1.5139,-1.5134,-1.5007,-1.4936,-1.4936,-1.4936,-1.4936,-1.4936,-1.4936,-1.4936,-1.4945,-1.5068,-1.5153,-1.5257,-1.5498,-1.5701,-1.5862,-1.5994,-1.6098,-1.6169,-1.6188,-1.6188,-1.6188,-1.6188,-1.6188,-1.6202,-1.6316,-1.632,-1.6202,-1.6306,-1.6415,-1.6528,-1.6736,-1.692,-1.701,-1.7194,-1.7308,-1.7327,-1.7412,-1.7421,-1.7421,-1.7421,-1.7421,-1.7421,-1.7421,-1.7421,-1.7421,-1.7421,-1.7421,-1.7421,-1.7421,-1.7421,-1.7421,-1.7421,-1.7421,-1.7421,-1.7421,-1.7421,-1.7421,-1.7421,-1.7269,-1.7269,-1.6631,-1.5506,-1.4432,-1.3169,-1.1766,-1.0375,-0.9908,-0.99,-1.7421,-1.7421,-1.7421,-1.7421,-1.7398,-1.7194,-1.6991,-1.6788,-1.6575,-1.6367,-1.6212,-1.6188,-1.6188,-1.6188,-1.6188,-1.6188,-1.6188,-1.6188,-1.6254,-1.6372,-1.6495,-1.649,-1.6377,-1.6372,-1.6316,-1.6212,-1.6188,-1.6188,-1.6178,-1.6046,-1.5938,-1.5848,-1.581,-1.5744,-1.5701,-1.5867,-1.598,-1.598,-1.598,-1.598,-1.5938,-1.5777,-1.5673,-1.5645,-1.5465,-1.5361,-1.5337,-1.5153,-1.5007,-1.495,-1.4936,-1.4936,-1.4936,-1.4997,-1.5044,-1.5078,-1.5229,-1.5385,-1.5479,-1.5701,-1.59,-1.5985,-1.6108,-1.6178,-1.6188,-1.6188,-1.6188,-1.6188,-1.6188,-1.6188,-1.6212,-1.6358,-1.6405,-1.6316,-1.6486,-1.6623,-1.6731,-1.7015,-1.7199,-1.7251,-1.7341,-1.7407,-1.7421,-1.7421,-1.7421,-1.7421,-1.7421,-1.7421,-1.7421,-1.7421,-1.7421,-1.7421,-1.7421,-1.7421,-1.7421,-1.7421,-1.7421,-1.7421,-1.7421,-1.7421,-1.7421,-1.7421,-1.7421,-1.7421,-1.7421,-1.6806,-1.6802,-1.6496,-1.5697,-1.4645,-1.3417,-1.2159,-1.0895,-1.0136,-0.9979,-1.7421,-1.7421,-1.7421,-1.7412,-1.7369,-1.7185,-1.6968,-1.676,-1.6571,-1.6367,-1.6212,-1.6188,-1.6188,-1.6188,-1.6188,-1.6188,-1.6188,-1.6188,-1.6188,-1.6207,-1.6235,-1.623,-1.6221,-1.6221,-1.6207,-1.6188,-1.6188,-1.6188,-1.6183,-1.616,-1.6079,-1.5928,-1.6046,-1.6075,-1.5942,-1.6089,-1.616,-1.615,-1.616,-1.616,-1.6155,-1.5985,-1.5881,-1.5867,-1.5682,-1.5574,-1.5545,-1.5371,-1.5163,-1.4988,-1.4978,-1.4993,-1.5011,-1.5153,-1.5248,-1.5262,-1.5456,-1.564,-1.58,-1.5876,-1.5975,-1.6131,-1.6164,-1.6188,-1.6188,-1.6188,-1.6188,-1.6188,-1.6188,-1.6188,-1.6216,-1.6401,-1.6514,-1.6571,-1.6731,-1.6887,-1.7095,-1.7294,-1.7364,-1.7398,-1.7421,-1.7421,-1.7421,-1.7421,-1.7421,-1.7421,-1.7421,-1.7421,-1.7421,-1.7421,-1.7421,-1.7421,-1.7421,-1.7421,-1.7421,-1.7421,-1.7421,-1.7421,-1.7421,-1.7421,-1.7421,-1.7421,-1.7421,-1.7421,-1.7269,-1.6802,-1.6492,-1.6492,-1.5722,-1.4341,-1.3263,-1.2343,-1.1414,-1.0486,-1.0019,-1.7421,-1.7421,-1.7421,-1.7336,-1.7194,-1.7123,-1.6892,-1.6585,-1.6514,-1.6358,-1.6216,-1.6188,-1.6188,-1.6188,-1.6188,-1.6188,-1.6188,-1.6188,-1.6188,-1.6188,-1.6188,-1.6188,-1.6188,-1.6188,-1.6188,-1.6188,-1.6188,-1.6188,-1.6188,-1.6188,-1.6145,-1.6103,-1.6141,-1.616,-1.6122,-1.615,-1.6183,-1.6188,-1.6188,-1.6188,-1.6178,-1.6131,-1.6098,-1.6079,-1.5895,-1.5786,-1.5763,-1.5583,-1.5375,-1.5177,-1.5153,-1.5233,-1.5361,-1.5437,-1.5474,-1.5503,-1.5659,-1.5796,-1.5881,-1.6008,-1.6122,-1.6169,-1.6188,-1.6188,-1.6188,-1.6188,-1.6188,-1.6188,-1.6188,-1.6188,-1.624,-1.65,-1.6797,-1.7109,-1.7081,-1.71,-1.7279,-1.7383,-1.7421,-1.7421,-1.7421,-1.7421,-1.7421,-1.7421,-1.7421,-1.7421,-1.7421,-1.7421,-1.7421,-1.7421,-1.7421,-1.7421,-1.7421,-1.7421,-1.7421,-1.7421,-1.7421,-1.7421,-1.7421,-1.7421,-1.7421,-1.7421,-1.7421,-1.7421,-1.7421,-1.6959,-1.6963,-1.7116,-1.5573,-1.4184,-1.3263,-1.2494,-1.1104,-1.0019,-1.0019,-1.7289,-1.7279,-1.7199,-1.709,-1.6968,-1.6883,-1.6703,-1.6495,-1.6386,-1.6301,-1.6202,-1.6188,-1.6188,-1.6188,-1.6188,-1.6188,-1.6188,-1.6188,-1.6188,-1.6197,-1.6273,-1.6264,-1.6212,-1.6188,-1.6188,-1.6188,-1.6188,-1.6188,-1.6188,-1.6188,-1.6188,-1.6178,-1.6188,-1.6188,-1.6178,-1.6188,-1.6188,-1.6188,-1.6188,-1.6188,-1.6188,-1.6188,-1.6183,-1.6164,-1.6051,-1.5966,-1.5862,-1.5744,-1.5588,-1.5418,-1.5375,-1.5432,-1.555,-1.5649,-1.5682,-1.5697,-1.5876,-1.5994,-1.6013,-1.6122,-1.6178,-1.6188,-1.6188,-1.6188,-1.6188,-1.6188,-1.6188,-1.6188,-1.6188,-1.6188,-1.6254,-1.6556,-1.6972,-1.7294,-1.7312,-1.7289,-1.7416,-1.7416,-1.7421,-1.7421,-1.7421,-1.7421,-1.7421,-1.7421,-1.7421,-1.7421,-1.7421,-1.7421,-1.7421,-1.7421,-1.7421,-1.7421,-1.7421,-1.7421,-1.7421,-1.7421,-1.7421,-1.7421,-1.7421,-1.7421,-1.7421,-1.7421,-1.7421,-1.7421,-1.7421,-1.7269,-1.7116,-1.6806,-1.5876,-1.4645,-1.388,-1.2958,-1.1721,-1.0019,-1.0019,-1.7072,-1.7057,-1.6878,-1.6793,-1.6745,-1.6571,-1.6486,-1.6415,-1.6273,-1.6197,-1.6188,-1.6188,-1.6207,-1.6212,-1.6207,-1.6197,-1.6221,-1.6202,-1.6188,-1.6254,-1.6367,-1.6429,-1.6264,-1.6311,-1.6259,-1.6212,-1.6197,-1.6202,-1.6193,-1.6188,-1.6188,-1.6188,-1.6188,-1.6188,-1.6188,-1.6188,-1.6188,-1.6188,-1.6188,-1.6188,-1.6188,-1.6188,-1.6188,-1.6178,-1.6169,-1.6075,-1.5961,-1.5886,-1.5815,-1.564,-1.5607,-1.5616,-1.5649,-1.5819,-1.5881,-1.5914,-1.6051,-1.6155,-1.6169,-1.6169,-1.6188,-1.6188,-1.6188,-1.6188,-1.6188,-1.6188,-1.6188,-1.6188,-1.6188,-1.6226,-1.6349,-1.6618,-1.6972,-1.7317,-1.7412,-1.7421,-1.7421,-1.7421,-1.7421,-1.7421,-1.7421,-1.7421,-1.7421,-1.7421,-1.7421,-1.7421,-1.7421,-1.7421,-1.7421,-1.7421,-1.7421,-1.7421,-1.7421,-1.7421,-1.7421,-1.7421,-1.7421,-1.7421,-1.7421,-1.7421,-1.7421,-1.7421,-1.7421,-1.7421,-1.7421,-1.7111,-1.6649,-1.6182,-1.5871,-1.5101,-1.4184,-1.3571,-1.2804,-1.0793,-1.0019,-1.6868,-1.6864,-1.6821,-1.6703,-1.6556,-1.65,-1.6391,-1.6254,-1.6207,-1.6188,-1.6188,-1.6188,-1.6273,-1.6405,-1.6273,-1.6264,-1.6372,-1.6278,-1.6188,-1.623,-1.658,-1.6594,-1.6495,-1.6566,-1.6476,-1.6311,-1.6353,-1.6325,-1.6226,-1.6188,-1.6188,-1.6188,-1.6188,-1.6188,-1.6188,-1.6188,-1.6188,-1.6188,-1.6188,-1.6188,-1.6188,-1.6188,-1.6188,-1.6188,-1.6188,-1.6169,-1.6131,-1.6112,-1.6089,-1.6023,-1.5904,-1.5857,-1.5985,-1.606,-1.6089,-1.6098,-1.6136,-1.6188,-1.6188,-1.6188,-1.6188,-1.6188,-1.6188,-1.6188,-1.6188,-1.6188,-1.6188,-1.6188,-1.6193,-1.6311,-1.6585,-1.6727,-1.701,-1.7303,-1.7421,-1.7421,-1.7421,-1.7421,-1.7421,-1.7421,-1.7421,-1.7421,-1.7421,-1.7421,-1.7421,-1.7421,-1.7421,-1.7421,-1.7421,-1.7421,-1.7421,-1.7421,-1.7421,-1.7421,-1.7421,-1.7421,-1.7421,-1.7421,-1.7421,-1.7421,-1.7421,-1.7421,-1.7421,-1.7421,-1.7421,-1.6959,-1.6649,-1.6802,-1.6649,-1.5569,-1.4491,-1.3722,-1.28,-1.1101,-1.0019,-1.6656,-1.6642,-1.6552,-1.6448,-1.6349,-1.6339,-1.6278,-1.6197,-1.6188,-1.6235,-1.6311,-1.632,-1.6386,-1.6471,-1.6382,-1.6391,-1.6467,-1.6495,-1.6481,-1.6552,-1.6797,-1.6821,-1.6712,-1.6793,-1.6731,-1.6396,-1.6419,-1.6363,-1.623,-1.6188,-1.6188,-1.6188,-1.6188,-1.6188,-1.6188,-1.6188,-1.6188,-1.6188,-1.6188,-1.6188,-1.6188,-1.6188,-1.6188,-1.6188,-1.6188,-1.6188,-1.6178,-1.6178,-1.6183,-1.615,-1.6075,-1.6051,-1.615,-1.6188,-1.6188,-1.6188,-1.6188,-1.6188,-1.6188,-1.6188,-1.6188,-1.6188,-1.6188,-1.6188,-1.6188,-1.6188,-1.6188,-1.6188,-1.6221,-1.6349,-1.6736,-1.6797,-1.701,-1.7308,-1.7421,-1.7421,-1.7421,-1.7421,-1.7421,-1.7421,-1.7421,-1.7421,-1.7421,-1.7421,-1.7421,-1.7421,-1.7421,-1.7421,-1.7421,-1.7421,-1.7421,-1.7421,-1.7421,-1.7421,-1.7421,-1.7421,-1.7421,-1.7421,-1.7421,-1.7421,-1.7421,-1.7421,-1.7421,-1.7421,-1.7421,-1.7421,-1.7116,-1.7273,-1.7273,-1.6501,-1.5573,-1.4184,-1.2951,-1.1876,-1.0793,-1.6434,-1.6424,-1.6254,-1.6188,-1.6188,-1.6221,-1.6249,-1.624,-1.6268,-1.6405,-1.6505,-1.6528,-1.6566,-1.658,-1.6552,-1.6533,-1.659,-1.6731,-1.6793,-1.6694,-1.6939,-1.6892,-1.6802,-1.6845,-1.6821,-1.6514,-1.6481,-1.6372,-1.623,-1.6188,-1.6188,-1.6188,-1.6188,-1.6188,-1.6188,-1.6188,-1.6188,-1.6188,-1.6188,-1.6188,-1.6188,-1.6188,-1.6188,-1.6188,-1.6188,-1.6188,-1.6188,-1.6188,-1.6188,-1.6188,-1.6188,-1.6188,-1.6188,-1.6188,-1.6188,-1.6188,-1.6188,-1.6188,-1.6188,-1.6188,-1.6188,-1.6188,-1.6188,-1.6188,-1.6188,-1.6188,-1.6188,-1.6188,-1.6216,-1.6349,-1.6731,-1.6802,-1.701,-1.7308,-1.7421,-1.7421,-1.7421,-1.7421,-1.7421,-1.7421,-1.7421,-1.7421,-1.7421,-1.7421,-1.7421,-1.7421,-1.7421,-1.7421,-1.7421,-1.7421,-1.7421,-1.7421,-1.7421,-1.7421,-1.7421,-1.7421,-1.7421,-1.7421,-1.7421,-1.7421,-1.7421,-1.7421,-1.7421,-1.7421,-1.7421,-1.7421,-1.7421,-1.7426,-1.7273,-1.7269,-1.6343,-1.4798,-1.3722,-1.2649,-1.1569,-1.623,-1.623,-1.6197,-1.6188,-1.6216,-1.6358,-1.6434,-1.6462,-1.6604,-1.6717,-1.6741,-1.6755,-1.684,-1.6906,-1.6807,-1.6755,-1.6797,-1.6925,-1.6878,-1.6712,-1.6901,-1.6906,-1.6698,-1.6755,-1.6708,-1.6552,-1.6462,-1.6349,-1.6226,-1.6188,-1.6188,-1.6188,-1.6188,-1.6188,-1.6188,-1.6188,-1.6188,-1.6188,-1.6188,-1.6188,-1.6188,-1.6188,-1.6188,-1.6188,-1.6188,-1.6188,-1.6188,-1.6188,-1.6188,-1.6188,-1.6188,-1.6188,-1.6188,-1.6188,-1.6188,-1.6188,-1.6188,-1.6188,-1.6188,-1.6188,-1.6188,-1.6188,-1.6188,-1.6188,-1.6188,-1.6188,-1.6188,-1.6188,-1.6216,-1.6349,-1.675,-1.6802,-1.7005,-1.7284,-1.7421,-1.7421,-1.7421,-1.7421,-1.7421,-1.7421,-1.7421,-1.7421,-1.7421,-1.7421,-1.7421,-1.7421,-1.7421,-1.7421,-1.7421,-1.7421,-1.7421,-1.7421,-1.7421,-1.7421,-1.7421,-1.7421,-1.7421,-1.7421,-1.7421,-1.7421,-1.7421,-1.7421,-1.7421,-1.7421,-1.7421,-1.7421,-1.7421,-1.7421,-1.7421,-1.7269,-1.6339,-1.5259,-1.403,-1.2804,-1.1569,-1.6438,-1.6349,-1.6453,-1.6505,-1.6523,-1.6604,-1.6646,-1.6665,-1.676,-1.6864,-1.6934,-1.6963,-1.701,-1.7062,-1.7015,-1.6958,-1.6986,-1.7038,-1.6982,-1.6868,-1.6892,-1.6873,-1.6613,-1.6656,-1.6575,-1.6471,-1.6382,-1.6292,-1.6193,-1.6188,-1.6188,-1.6188,-1.6188,-1.6188,-1.6188,-1.6188,-1.6188,-1.6188,-1.6188,-1.6188,-1.6188,-1.6188,-1.6188,-1.6188,-1.6188,-1.6188,-1.6188,-1.6188,-1.6188,-1.6188,-1.6188,-1.6188,-1.6188,-1.6188,-1.6188,-1.6188,-1.6188,-1.6188,-1.6188,-1.6188,-1.6188,-1.6188,-1.6188,-1.6188,-1.6188,-1.6188,-1.6188,-1.6188,-1.6197,-1.6353,-1.6755,-1.6793,-1.701,-1.7312,-1.7421,-1.7421,-1.7421,-1.7421,-1.7421,-1.7421,-1.7421,-1.7421,-1.7421,-1.7421,-1.7421,-1.7421,-1.7421,-1.7421,-1.7421,-1.7421,-1.7421,-1.7421,-1.7421,-1.7421,-1.7421,-1.7421,-1.7421,-1.7421,-1.7421,-1.7421,-1.7421,-1.7421,-1.7421,-1.7421,-1.7421,-1.7421,-1.7421,-1.7421,-1.7421,-1.7421,-1.6649,-1.588,-1.4337,-1.2954,-1.1721,-1.6703,-1.6561,-1.6731,-1.6802,-1.6807,-1.6849,-1.6864,-1.6868,-1.692,-1.7034,-1.7152,-1.7166,-1.7171,-1.7171,-1.7166,-1.7152,-1.7114,-1.7105,-1.7034,-1.6883,-1.6793,-1.6722,-1.6627,-1.6538,-1.641,-1.6372,-1.6282,-1.6188,-1.6188,-1.6188,-1.6188,-1.6188,-1.6188,-1.6188,-1.6188,-1.6188,-1.6188,-1.6188,-1.6188,-1.6188,-1.6188,-1.6188,-1.6188,-1.6188,-1.6188,-1.6188,-1.6188,-1.6188,-1.6188,-1.6188,-1.6188,-1.6188,-1.6188,-1.6188,-1.6188,-1.6188,-1.6188,-1.6188,-1.6188,-1.6188,-1.6188,-1.6188,-1.6188,-1.6188,-1.6188,-1.6188,-1.6188,-1.6188,-1.6193,-1.6358,-1.6717,-1.6797,-1.7015,-1.7298,-1.7421,-1.7421,-1.7421,-1.7421,-1.7421,-1.7421,-1.7421,-1.7421,-1.7421,-1.7421,-1.7421,-1.7421,-1.7421,-1.7421,-1.7421,-1.7421,-1.7421,-1.7421,-1.7421,-1.7421,-1.7421,-1.7421,-1.7421,-1.7421,-1.7421,-1.7421,-1.7421,-1.7421,-1.7421,-1.7421,-1.7421,-1.7421,-1.7421,-1.7421,-1.7421,-1.7269,-1.7269,-1.619,-1.4337,-1.2954,-1.1876,-1.6793,-1.6769,-1.6802,-1.6802,-1.6845,-1.7001,-1.7067,-1.7095,-1.7246,-1.736,-1.736,-1.7374,-1.7364,-1.7336,-1.7331,-1.7251,-1.7138,-1.7034,-1.6883,-1.6656,-1.6556,-1.6448,-1.6301,-1.6245,-1.6254,-1.6259,-1.6207,-1.6188,-1.6188,-1.6188,-1.6188,-1.6188,-1.6188,-1.6188,-1.6188,-1.6188,-1.6188,-1.6188,-1.6188,-1.6188,-1.6188,-1.6188,-1.6188,-1.6188,-1.6188,-1.6188,-1.6188,-1.6188,-1.6188,-1.6188,-1.6188,-1.6188,-1.6188,-1.6188,-1.6188,-1.6188,-1.6188,-1.6188,-1.6188,-1.6188,-1.6188,-1.6188,-1.6188,-1.6188,-1.6188,-1.6188,-1.6188,-1.6188,-1.6188,-1.6377,-1.6698,-1.6793,-1.7029,-1.7251,-1.7421,-1.7421,-1.7421,-1.7421,-1.7421,-1.7421,-1.7421,-1.7421,-1.7421,-1.7421,-1.7421,-1.7421,-1.7421,-1.7421,-1.7421,-1.7421,-1.7421,-1.7421,-1.7421,-1.7421,-1.7421,-1.7421,-1.7421,-1.7421,-1.7421,-1.7421,-1.7421,-1.7421,-1.7421,-1.7421,-1.7421,-1.7421,-1.7421,-1.7421,-1.7421,-1.7116,-1.6806,-1.5569,-1.403,-1.2951,-1.1879,-1.7086,-1.6982,-1.7105,-1.7157,-1.7166,-1.7256,-1.7289,-1.7303,-1.7379,-1.7421,-1.7421,-1.7421,-1.7364,-1.7251,-1.7138,-1.702,-1.692,-1.6821,-1.6675,-1.6481,-1.6372,-1.6273,-1.6216,-1.6188,-1.6188,-1.6188,-1.6188,-1.6188,-1.6188,-1.6188,-1.6188,-1.6188,-1.6188,-1.6188,-1.6188,-1.6188,-1.6188,-1.6188,-1.6188,-1.6188,-1.6188,-1.6188,-1.6188,-1.6188,-1.6188,-1.6188,-1.6188,-1.6188,-1.6188,-1.6188,-1.6188,-1.6188,-1.6188,-1.6188,-1.6188,-1.6188,-1.6188,-1.6188,-1.6188,-1.6188,-1.6188,-1.6188,-1.6188,-1.6188,-1.6188,-1.6188,-1.6188,-1.6188,-1.6188,-1.6386,-1.6698,-1.6793,-1.7048,-1.727,-1.7416,-1.7421,-1.7421,-1.7421,-1.7421,-1.7421,-1.7421,-1.7421,-1.7421,-1.7421,-1.7421,-1.7421,-1.7421,-1.7421,-1.7421,-1.7421,-1.7421,-1.7421,-1.7421,-1.7421,-1.7421,-1.7421,-1.7421,-1.7421,-1.7421,-1.7421,-1.7421,-1.7421,-1.7421,-1.7421,-1.7421,-1.7421,-1.7421,-1.7421,-1.7421,-1.6959,-1.6496,-1.5259,-1.3872,-1.2649,-1.1569,-1.7171,-1.7057,-1.7317,-1.7421,-1.7421,-1.7421,-1.7388,-1.7341,-1.7336,-1.7312,-1.7279,-1.7246,-1.7161,-1.7038,-1.6892,-1.6802,-1.6712,-1.6552,-1.6457,-1.6367,-1.6278,-1.6202,-1.6188,-1.6188,-1.6188,-1.6188,-1.6188,-1.6188,-1.6188,-1.6188,-1.6188,-1.6188,-1.6188,-1.6188,-1.6188,-1.6188,-1.6188,-1.6188,-1.6188,-1.6188,-1.6188,-1.6188,-1.6188,-1.6188,-1.6188,-1.6188,-1.6188,-1.6188,-1.6188,-1.6188,-1.6188,-1.6188,-1.6188,-1.6188,-1.6188,-1.6188,-1.6188,-1.6188,-1.6188,-1.6188,-1.6188,-1.6188,-1.6188,-1.6188,-1.6188,-1.6188,-1.6188,-1.6188,-1.6188,-1.6405,-1.6684,-1.6797,-1.7029,-1.7251,-1.7421,-1.7421,-1.7421,-1.7421,-1.7421,-1.7421,-1.7421,-1.7421,-1.7421,-1.7421,-1.7421,-1.7421,-1.7421,-1.7421,-1.7421,-1.7421,-1.7421,-1.7421,-1.7421,-1.7421,-1.7421,-1.7421,-1.7421,-1.7421,-1.7421,-1.7421,-1.7421,-1.7421,-1.7421,-1.7421,-1.7421,-1.7421,-1.7421,-1.7421,-1.7421,-1.6959,-1.6496,-1.5259,-1.3876,-1.2649,-1.1417,-1.684,-1.6854,-1.7246,-1.7393,-1.7398,-1.7421,-1.7303,-1.7133,-1.7128,-1.7034,-1.6916,-1.6854,-1.6859,-1.6812,-1.6755,-1.6646,-1.65,-1.6486,-1.6372,-1.6259,-1.6188,-1.6188,-1.6188,-1.6188,-1.6188,-1.6188,-1.6188,-1.6188,-1.6188,-1.6188,-1.6188,-1.6188,-1.6188,-1.6188,-1.6188,-1.6188,-1.6188,-1.6188,-1.6188,-1.6188,-1.6188,-1.6188,-1.6188,-1.6188,-1.6188,-1.6188,-1.6188,-1.6188,-1.6188,-1.6188,-1.6188,-1.6188,-1.6188,-1.6188,-1.6188,-1.6188,-1.6188,-1.6188,-1.6188,-1.6188,-1.6188,-1.6188,-1.6188,-1.6188,-1.6188,-1.6188,-1.6188,-1.6188,-1.6188,-1.6386,-1.6646,-1.684,-1.701,-1.727,-1.7421,-1.7421,-1.7421,-1.7421,-1.7421,-1.7421,-1.7421,-1.7421,-1.7421,-1.7421,-1.7421,-1.7421,-1.7421,-1.7421,-1.7421,-1.7421,-1.7421,-1.7421,-1.7421,-1.7421,-1.7421,-1.7421,-1.7421,-1.7421,-1.7421,-1.7421,-1.7421,-1.7421,-1.7421,-1.7421,-1.7421,-1.7421,-1.7421,-1.7421,-1.7269,-1.7116,-1.6343,-1.5105,-1.341,-1.1876,-1.0949,-1.6608,-1.6613,-1.6651,-1.6807,-1.7038,-1.7043,-1.6996,-1.693,-1.692,-1.6883,-1.6783,-1.6675,-1.6608,-1.658,-1.6462,-1.6386,-1.6301,-1.6297,-1.624,-1.6212,-1.6188,-1.6188,-1.6188,-1.6188,-1.6188,-1.6188,-1.6188,-1.6188,-1.6188,-1.6188,-1.6188,-1.6188,-1.6188,-1.6188,-1.6188,-1.6188,-1.6188,-1.6188,-1.6188,-1.6188,-1.6188,-1.6188,-1.6188,-1.6188,-1.6188,-1.6188,-1.6188,-1.6188,-1.6188,-1.6188,-1.6188,-1.6188,-1.6188,-1.6188,-1.6188,-1.6188,-1.6188,-1.6188,-1.6188,-1.6188,-1.6188,-1.6188,-1.6188,-1.6188,-1.6188,-1.6188,-1.6188,-1.6188,-1.6202,-1.6391,-1.6712,-1.6821,-1.6953,-1.727,-1.7421,-1.7421,-1.7421,-1.7421,-1.7421,-1.7421,-1.7421,-1.7421,-1.7421,-1.7421,-1.7421,-1.7421,-1.7421,-1.7421,-1.7421,-1.7421,-1.7421,-1.7421,-1.7421,-1.7421,-1.7421,-1.7421,-1.7421,-1.7421,-1.7421,-1.7421,-1.7421,-1.7421,-1.7421,-1.7421,-1.7421,-1.7421,-1.7421,-1.7421,-1.7269,-1.7269,-1.619,-1.4798,-1.3105,-1.1256,-1.0483,-1.6207,-1.6193,-1.6056,-1.6311,-1.6764,-1.6736,-1.6712,-1.6708,-1.6708,-1.6665,-1.6613,-1.6457,-1.6391,-1.6349,-1.6268,-1.6202,-1.6207,-1.6202,-1.6193,-1.6188,-1.6188,-1.6188,-1.6188,-1.6188,-1.6188,-1.6188,-1.6188,-1.6188,-1.6188,-1.6188,-1.6188,-1.6188,-1.6188,-1.6188,-1.6188,-1.6188,-1.6188,-1.6188,-1.6188,-1.6188,-1.6188,-1.6188,-1.6188,-1.6188,-1.6188,-1.6188,-1.6188,-1.6188,-1.6188,-1.6188,-1.6188,-1.6188,-1.6188,-1.6188,-1.6188,-1.6188,-1.6188,-1.6188,-1.6188,-1.6188,-1.6188,-1.6188,-1.6188,-1.6188,-1.6188,-1.6188,-1.6188,-1.6193,-1.624,-1.6415,-1.6779,-1.6878,-1.7038,-1.7355,-1.7412,-1.7421,-1.7421,-1.7421,-1.7421,-1.7421,-1.7421,-1.7421,-1.7421,-1.7421,-1.7421,-1.7421,-1.7421,-1.7421,-1.7421,-1.7421,-1.7421,-1.7421,-1.7421,-1.7421,-1.7421,-1.7421,-1.7421,-1.7421,-1.7421,-1.7421,-1.7421,-1.7421,-1.7421,-1.7421,-1.7421,-1.7421,-1.7421,-1.7421,-1.7421,-1.7421,-1.588,-1.4333,-1.3256,-1.1718,-1.0638,-1.5597,-1.5578,-1.5578,-1.6032,-1.6646,-1.6561,-1.6462,-1.6419,-1.6429,-1.6344,-1.6207,-1.6169,-1.6183,-1.6188,-1.6164,-1.6188,-1.6188,-1.6188,-1.6188,-1.6188,-1.6188,-1.6188,-1.6188,-1.6188,-1.6188,-1.6188,-1.6188,-1.6188,-1.6188,-1.6188,-1.6188,-1.6188,-1.6188,-1.6188,-1.6188,-1.6188,-1.6188,-1.6188,-1.6188,-1.6188,-1.6188,-1.6188,-1.6188,-1.6188,-1.6188,-1.6188,-1.6188,-1.6188,-1.6188,-1.6188,-1.6188,-1.6188,-1.6188,-1.6188,-1.6188,-1.6188,-1.6188,-1.6188,-1.6188,-1.6188,-1.6188,-1.6188,-1.6188,-1.6188,-1.6188,-1.6188,-1.6188,-1.6193,-1.633,-1.6533,-1.6774,-1.6977,-1.718,-1.7336,-1.7398,-1.7421,-1.7421,-1.7421,-1.7421,-1.7421,-1.7421,-1.7421,-1.7421,-1.7421,-1.7421,-1.7421,-1.7421,-1.7421,-1.7421,-1.7421,-1.7421,-1.7421,-1.7421,-1.7421,-1.7421,-1.7421,-1.7421,-1.7421,-1.7421,-1.7421,-1.7421,-1.7421,-1.7421,-1.7421,-1.7421,-1.7421,-1.7421,-1.7421,-1.7421,-1.7116,-1.5263,-1.3722,-1.2951,-1.2024,-1.0635,-1.5342,-1.5328,-1.52,-1.538,-1.5749,-1.5848,-1.5871,-1.5871,-1.5867,-1.5838,-1.5815,-1.5895,-1.5966,-1.6004,-1.6103,-1.6155,-1.6164,-1.6188,-1.6188,-1.6178,-1.6169,-1.6188,-1.6188,-1.6188,-1.6188,-1.6188,-1.6188,-1.6188,-1.6188,-1.6188,-1.6188,-1.6188,-1.6188,-1.6188,-1.6188,-1.6188,-1.6188,-1.6188,-1.6188,-1.6188,-1.6188,-1.6188,-1.6188,-1.6188,-1.6188,-1.6188,-1.6188,-1.6188,-1.6188,-1.6188,-1.6188,-1.6188,-1.6188,-1.6188,-1.6188,-1.6188,-1.6188,-1.6188,-1.6188,-1.6188,-1.6188,-1.6188,-1.6188,-1.6188,-1.6188,-1.6188,-1.6188,-1.6226,-1.6372,-1.6571,-1.6783,-1.6982,-1.718,-1.7355,-1.7421,-1.7421,-1.7421,-1.7421,-1.7421,-1.7421,-1.7421,-1.7421,-1.7421,-1.7421,-1.7421,-1.7421,-1.7421,-1.7421,-1.7421,-1.7421,-1.7421,-1.7421,-1.7421,-1.7421,-1.7421,-1.7421,-1.7421,-1.7421,-1.7421,-1.7421,-1.7421,-1.7421,-1.7421,-1.7421,-1.7421,-1.7421,-1.7421,-1.7421,-1.7421,-1.6806,-1.5109,-1.403,-1.3564,-1.2179,-1.0328,-1.5233,-1.5224,-1.5177,-1.5224,-1.5347,-1.5422,-1.5484,-1.555,-1.5564,-1.5564,-1.5597,-1.5706,-1.5758,-1.58,-1.5886,-1.5966,-1.5966,-1.5966,-1.6046,-1.6056,-1.6065,-1.6108,-1.6155,-1.6188,-1.6188,-1.6188,-1.6188,-1.6188,-1.6188,-1.6188,-1.6188,-1.6188,-1.6188,-1.6188,-1.6188,-1.6188,-1.6188,-1.6188,-1.6188,-1.6188,-1.6188,-1.6188,-1.6188,-1.6188,-1.6188,-1.6188,-1.6188,-1.6188,-1.6188,-1.6188,-1.6188,-1.6188,-1.6188,-1.6188,-1.6188,-1.6188,-1.6188,-1.6188,-1.6188,-1.6188,-1.6188,-1.6188,-1.6188,-1.6188,-1.6188,-1.6188,-1.6188,-1.624,-1.6377,-1.6575,-1.6783,-1.6982,-1.7175,-1.7355,-1.7421,-1.7421,-1.7421,-1.7421,-1.7421,-1.7421,-1.7421,-1.7421,-1.7421,-1.7421,-1.7421,-1.7421,-1.7421,-1.7421,-1.7421,-1.7421,-1.7421,-1.7421,-1.7421,-1.7421,-1.7421,-1.7421,-1.7421,-1.7421,-1.7421,-1.7421,-1.7421,-1.7421,-1.7421,-1.7421,-1.7421,-1.7421,-1.7421,-1.7421,-1.7421,-1.6959,-1.5727,-1.4952,-1.4333,-1.2947,-1.1101,-1.5243,-1.5271,-1.547,-1.5536,-1.5508,-1.5309,-1.5333,-1.5512,-1.5517,-1.5517,-1.5526,-1.5517,-1.5545,-1.5555,-1.5578,-1.5616,-1.5635,-1.5626,-1.5749,-1.5848,-1.5919,-1.6023,-1.6131,-1.6188,-1.6188,-1.6188,-1.6188,-1.6188,-1.6188,-1.6188,-1.6188,-1.6188,-1.6188,-1.6188,-1.6188,-1.6188,-1.6188,-1.6188,-1.6188,-1.6188,-1.6188,-1.6188,-1.6188,-1.6188,-1.6188,-1.6188,-1.6188,-1.6188,-1.6188,-1.6188,-1.6188,-1.6188,-1.6188,-1.6188,-1.6188,-1.6188,-1.6188,-1.6188,-1.6188,-1.6188,-1.6188,-1.6188,-1.6188,-1.6188,-1.6188,-1.6188,-1.6188,-1.6245,-1.6363,-1.6575,-1.6779,-1.6986,-1.719,-1.7312,-1.7412,-1.7421,-1.7421,-1.7421,-1.7421,-1.7421,-1.7421,-1.7421,-1.7421,-1.7421,-1.7421,-1.7421,-1.7421,-1.7421,-1.7421,-1.7421,-1.7421,-1.7421,-1.7421,-1.7421,-1.7421,-1.7421,-1.7421,-1.7421,-1.7421,-1.7421,-1.7421,-1.7421,-1.7421,-1.7421,-1.7421,-1.7421,-1.7421,-1.7421,-1.7421,-1.6806,-1.619,-1.5722,-1.5101,-1.418,-1.2797,-1.547,-1.5474,-1.5536,-1.5474,-1.5309,-1.5111,-1.4983,-1.4926,-1.5044,-1.5115,-1.512,-1.5267,-1.5356,-1.5333,-1.5484,-1.5541,-1.5564,-1.5588,-1.5706,-1.5791,-1.5862,-1.6004,-1.6112,-1.6188,-1.6188,-1.6188,-1.6188,-1.6188,-1.6188,-1.6188,-1.6188,-1.6188,-1.6188,-1.6188,-1.6188,-1.6188,-1.6188,-1.6188,-1.6188,-1.6188,-1.6188,-1.6188,-1.6188,-1.6188,-1.6188,-1.6188,-1.6188,-1.6188,-1.6188,-1.6188,-1.6188,-1.6188,-1.6188,-1.6188,-1.6188,-1.6188,-1.6188,-1.6188,-1.6188,-1.6188,-1.6188,-1.6188,-1.6188,-1.6188,-1.6188,-1.6188,-1.6188,-1.6249,-1.6334,-1.6514,-1.6722,-1.693,-1.7138,-1.7284,-1.7379,-1.7421,-1.7421,-1.7421,-1.7421,-1.7421,-1.7421,-1.7421,-1.7421,-1.7421,-1.7421,-1.7421,-1.7421,-1.7421,-1.7421,-1.7421,-1.7421,-1.7421,-1.7421,-1.7421,-1.7421,-1.7421,-1.7421,-1.7421,-1.7421,-1.7421,-1.7421,-1.7421,-1.7421,-1.7421,-1.7421,-1.7421,-1.7421,-1.7421,-1.7421,-1.7421,-1.6959,-1.6339,-1.5718,-1.4952,-1.4184,-1.5607,-1.5687,-1.5777,-1.5635,-1.5385,-1.5319,-1.5144,-1.4936,-1.5002,-1.5054,-1.5068,-1.5186,-1.5276,-1.5371,-1.5422,-1.547,-1.5564,-1.5569,-1.5668,-1.5819,-1.5862,-1.6004,-1.6117,-1.6188,-1.6188,-1.6188,-1.6188,-1.6188,-1.6188,-1.6188,-1.6188,-1.6188,-1.6188,-1.6188,-1.6188,-1.6188,-1.6188,-1.6188,-1.6188,-1.6188,-1.6188,-1.6188,-1.6188,-1.6188,-1.6188,-1.6188,-1.6188,-1.6188,-1.6188,-1.6188,-1.6188,-1.6188,-1.6188,-1.6188,-1.6188,-1.6188,-1.6188,-1.6188,-1.6188,-1.6188,-1.6188,-1.6188,-1.6188,-1.6188,-1.6188,-1.6188,-1.6188,-1.6216,-1.6311,-1.6438,-1.6646,-1.6859,-1.7062,-1.7261,-1.7341,-1.7416,-1.7421,-1.7421,-1.7421,-1.7421,-1.7421,-1.7421,-1.7421,-1.7421,-1.7421,-1.7421,-1.7421,-1.7421,-1.7421,-1.7421,-1.7421,-1.7421,-1.7421,-1.7421,-1.7421,-1.7421,-1.7421,-1.7421,-1.7421,-1.7421,-1.7421,-1.7421,-1.7421,-1.7421,-1.7421,-1.7421,-1.7421,-1.7421,-1.7421,-1.7421,-1.7421,-1.6959,-1.6649,-1.619,-1.5727,-1.5663,-1.5834,-1.6046,-1.5881,-1.563,-1.572,-1.5588,-1.53,-1.53,-1.5276,-1.5267,-1.5262,-1.538,-1.5474,-1.5427,-1.5437,-1.5522,-1.5569,-1.5668,-1.5857,-1.5862,-1.5975,-1.6127,-1.6188,-1.6188,-1.6188,-1.6188,-1.6188,-1.6188,-1.6188,-1.6188,-1.6188,-1.6188,-1.6188,-1.6188,-1.6188,-1.6188,-1.6188,-1.6188,-1.6188,-1.6188,-1.6188,-1.6188,-1.6188,-1.6188,-1.6188,-1.6188,-1.6188,-1.6188,-1.6188,-1.6188,-1.6188,-1.6188,-1.6188,-1.6188,-1.6188,-1.6188,-1.6188,-1.6188,-1.6188,-1.6188,-1.6188,-1.6188,-1.6188,-1.6188,-1.6188,-1.6188,-1.6188,-1.6268,-1.6367,-1.6552,-1.6694,-1.6873,-1.7095,-1.7246,-1.735,-1.7421,-1.7421,-1.7421,-1.7421,-1.7421,-1.7421,-1.7421,-1.7421,-1.7421,-1.7421,-1.7421,-1.7421,-1.7421,-1.7421,-1.7421,-1.7421,-1.7421,-1.7421,-1.7421,-1.7421,-1.7421,-1.7421,-1.7421,-1.7421,-1.7421,-1.7421,-1.7421,-1.7421,-1.7421,-1.7421,-1.7421,-1.7421,-1.7421,-1.7421,-1.7421,-1.7421,-1.7269,-1.6963,-1.6806,-1.5588,-1.564,-1.5687,-1.5725,-1.5767,-1.5673,-1.5673,-1.5706,-1.5711,-1.5607,-1.5503,-1.5484,-1.5517,-1.5578,-1.5531,-1.5541,-1.5578,-1.5663,-1.5697,-1.5829,-1.5886,-1.5999,-1.615,-1.6188,-1.6188,-1.6188,-1.6188,-1.6188,-1.6188,-1.6188,-1.6188,-1.6188,-1.6188,-1.6188,-1.6188,-1.6188,-1.6188,-1.6188,-1.6188,-1.6188,-1.6188,-1.6188,-1.6188,-1.6188,-1.6188,-1.6188,-1.6188,-1.6188,-1.6188,-1.6188,-1.6188,-1.6188,-1.6188,-1.6188,-1.6188,-1.6188,-1.6188,-1.6188,-1.6188,-1.6188,-1.6188,-1.6188,-1.6188,-1.6188,-1.6188,-1.6188,-1.6188,-1.6188,-1.6226,-1.6325,-1.6424,-1.6547,-1.6679,-1.6916,-1.7161,-1.7284,-1.7407,-1.7421,-1.7421,-1.7421,-1.7421,-1.7421,-1.7421,-1.7421,-1.7421,-1.7421,-1.7421,-1.7421,-1.7421,-1.7421,-1.7421,-1.7421,-1.7421,-1.7421,-1.7421,-1.7421,-1.7421,-1.7421,-1.7421,-1.7421,-1.7421,-1.7421,-1.7421,-1.7421,-1.7421,-1.7421,-1.7421,-1.7421,-1.7421,-1.7421,-1.7421,-1.7421,-1.7421,-1.7269,-1.7269,-1.6405,-1.635,-1.5827,-1.5621,-1.5697,-1.5607,-1.5626,-1.5711,-1.573,-1.572,-1.5701,-1.5701,-1.5739,-1.5777,-1.5744,-1.5763,-1.5796,-1.5843,-1.5928,-1.5989,-1.5999,-1.6075,-1.615,-1.6188,-1.6188,-1.6188,-1.6188,-1.6188,-1.6188,-1.6188,-1.6188,-1.6188,-1.6188,-1.6188,-1.6188,-1.6188,-1.6188,-1.6188,-1.6188,-1.6188,-1.6188,-1.6188,-1.6188,-1.6188,-1.6188,-1.6188,-1.6188,-1.6188,-1.6188,-1.6188,-1.6188,-1.6188,-1.6188,-1.6188,-1.6188,-1.6188,-1.6188,-1.6188,-1.6188,-1.6188,-1.6188,-1.6188,-1.6188,-1.6188,-1.6188,-1.6188,-1.6188,-1.6188,-1.6188,-1.6268,-1.633,-1.6434,-1.6533,-1.6712,-1.7005,-1.7223,-1.7346,-1.7421,-1.7421,-1.7421,-1.7421,-1.7421,-1.7421,-1.7421,-1.7421,-1.7421,-1.7421,-1.7421,-1.7421,-1.7421,-1.7421,-1.7421,-1.7421,-1.7421,-1.7421,-1.7421,-1.7421,-1.7421,-1.7421,-1.7421,-1.7421,-1.7421,-1.7421,-1.7421,-1.7421,-1.7421,-1.7421,-1.7421,-1.7421,-1.7421,-1.7421,-1.7421,-1.7421,-1.7421,-1.7269,-1.7675,-1.7588,-1.6535,-1.6025,-1.605,-1.618,-1.6205,-1.6234,-1.5968,-1.606,-1.6038,-1.592,-1.5961,-1.6046,-1.6013,-1.6079,-1.6103,-1.6065,-1.6141,-1.6155,-1.616,-1.616,-1.6164,-1.6188,-1.6188,-1.6188,-1.6188,-1.6188,-1.6188,-1.6188,-1.6188,-1.6188,-1.6188,-1.6188,-1.6188,-1.6188,-1.6188,-1.6188,-1.6188,-1.6188,-1.6188,-1.6188,-1.6188,-1.6188,-1.6188,-1.6188,-1.6188,-1.6188,-1.6188,-1.6188,-1.6188,-1.6188,-1.6188,-1.6188,-1.6188,-1.6188,-1.6188,-1.6188,-1.6188,-1.6188,-1.6188,-1.6188,-1.6188,-1.6188,-1.6188,-1.6188,-1.6188,-1.6188,-1.6188,-1.6202,-1.6264,-1.6311,-1.6405,-1.6566,-1.6873,-1.7147,-1.727,-1.7398,-1.7416,-1.7416,-1.7421,-1.7421,-1.7421,-1.7421,-1.7421,-1.7421,-1.7421,-1.7421,-1.7421,-1.7421,-1.7421,-1.7421,-1.7421,-1.7421,-1.7421,-1.7421,-1.7421,-1.7421,-1.7421,-1.7421,-1.7421,-1.7421,-1.7421,-1.7421,-1.7421,-1.7421,-1.7421,-1.7421,-1.7421,-1.7421,-1.7421,-1.7421,-1.7421,-1.7421,-1.7269,-1.8753,-1.8665,-1.8412,-1.8398,-1.8565,-1.8582,-1.8703,-1.8747,-1.7674,-1.7188,-1.7073,-1.6182,-1.581,-1.6174,-1.615,-1.6136,-1.606,-1.6127,-1.6174,-1.6183,-1.6178,-1.6183,-1.6188,-1.6188,-1.6188,-1.6188,-1.6188,-1.6188,-1.6188,-1.6188,-1.6188,-1.6188,-1.6188,-1.6188,-1.6188,-1.6188,-1.6188,-1.6188,-1.6188,-1.6188,-1.6188,-1.6188,-1.6188,-1.6188,-1.6188,-1.6188,-1.6188,-1.6188,-1.6188,-1.6188,-1.6188,-1.6188,-1.6188,-1.6188,-1.6188,-1.6188,-1.6188,-1.6188,-1.6188,-1.6188,-1.6188,-1.6188,-1.6188,-1.6188,-1.6188,-1.6188,-1.6188,-1.6188,-1.6188,-1.6188,-1.6221,-1.6221,-1.6301,-1.6533,-1.6812,-1.7005,-1.7166,-1.7298,-1.7393,-1.7407,-1.7421,-1.7421,-1.7421,-1.7421,-1.7421,-1.7421,-1.7421,-1.7421,-1.7421,-1.7421,-1.7421,-1.7421,-1.7421,-1.7421,-1.7421,-1.7421,-1.7421,-1.7421,-1.7421,-1.7421,-1.7421,-1.7421,-1.7421,-1.7421,-1.7421,-1.7421,-1.7421,-1.7421,-1.7421,-1.7421,-1.7421,-1.7421,-1.7421,-1.7111,-1.6806]},{"header":{"parameterUnit":"m.s-1","parameterCategory":1,"la1":31.0,"la2":29.5877,"lo1":-88.7671,"lo2":-86.6584,"dy":0.0162,"dx":0.0185,"nx":115,"ny":88,"refTime":"2024-06-21T18:00:00:Z","depth":0,"parameterNumber":3,"parameterNumberName":"V-component_of_WINDS"},"data":[0.0,0.0,0.0,0.0,0.0,0.0,0.0,0.0,0.0,0.0,0.0,0.0,0.0,0.0,0.0,0.0,0.0,0.0,0.0,0.0,0.0,0.0,0.0,0.0,0.0,0.0,0.0,0.0,0.0,0.0,0.0,0.0,0.0,0.0,0.0,0.0,0.0,0.0,0.0,0.0,0.0,0.0,0.0,0.0,0.0,0.0,0.0,0.0,0.0,0.0,0.0,0.0,0.0,0.0,0.0,0.0,0.0,0.0,0.0,0.0,0.0,0.0,0.0,0.0,0.0,0.0,0.0,0.0,0.0,0.0,0.0,0.0,0.0,0.0,0.0,0.0,0.0,0.0,0.0,0.0,0.0,0.0,0.0,0.0,0.0,0.0,0.0,0.0,0.0,0.0,0.0,0.0,0.0,0.0,0.0,0.0,0.0,0.0,0.0,0.0,0.0,0.0,0.0,0.0,0.0,0.0,0.0,0.0,0.0,0.0,0.0,0.0,0.0,0.0,0.0,0.0,0.0,0.0,0.0,0.0,0.0,0.0,0.0,0.0,0.0,0.0,0.0,0.0,0.0,0.0,0.0,0.0,0.0,0.0,0.0,0.0,0.0,0.0,0.0,0.0,0.0,0.0,0.0,0.0,0.0,0.0,0.0,0.0,0.0,0.0,0.0,0.0,0.0,0.0,0.0,0.0,0.0,0.0,0.0,0.0,0.0,0.0,0.0,0.0,0.0,0.0,0.0,0.0,0.0,0.0,0.0,0.0,0.0,0.0,0.0,0.0,0.0,0.0,0.0,0.0,0.0,0.0,0.0,0.0,0.0,0.0,0.0,0.0,0.0,0.0,0.0,0.0,0.0,0.0,0.0,0.0,0.0,0.0,0.0,0.0,0.0,0.0,0.0,0.0,0.0,0.0,0.0,0.0,0.0,0.0,0.0,0.0,0.0,0.0,0.0,0.0,0.0,0.0,0.0,0.0,0.0,0.0,0.0,0.0,0.0,0.0,0.0,0.0,0.0,0.0,0.0,0.0,0.0,0.0,0.0,0.0,0.0,0.0,0.0,0.0,0.0,0.0,0.0,0.0,0.0,0.0,0.0,0.0,0.0,0.0,0.0,0.0,0.0,0.0,0.0,0.0,0.0,0.0,0.0,0.0,0.0,0.0,0.0,0.0,0.0,0.0,0.0,0.0,0.0,0.0,0.0,0.0,0.0,0.0,0.0,0.0,0.0,0.0,0.0,0.0,0.0,0.0,0.0,0.0,0.0,0.0,0.0,0.0,0.0,0.0,0.0,0.0,0.0,0.0,0.0,0.0,0.0,0.0,0.0,0.0,0.0,0.0,0.0,0.0,0.0,0.0,0.0,0.0,0.0,0.0,0.0,0.0,0.0,0.0,0.0,0.0,0.0,0.0,0.0,0.0,0.0,0.0,0.0,0.0,0.0,0.0,0.0,0.0,0.0,0.0,0.0,0.0,0.0,0.0,0.0,0.0,0.0,0.0,0.0,0.0,0.0,0.0,0.0,0.0,0.0,0.0,0.0,0.0,0.0,0.0,0.0,0.0,0.0,0.0,0.0,0.0,0.0,0.0,0.0,0.0,0.0,0.0,0.0,0.0,0.0,0.0,0.0,0.0,0.0,0.0,0.0,0.0,0.0,0.0,0.0,0.0,0.0,0.0,0.0,0.0,0.0,0.0,0.0,0.0,0.0,0.0,0.0,0.0,0.0,0.0,0.0,0.0,0.0,0.0,0.0,0.0,0.0,0.0,0.0,0.0,0.0,0.0,0.0,0.0,0.0,0.0,0.0,0.0,0.0,0.0,0.0,0.0,0.0,0.0,0.0,0.0,0.0,0.0,0.0,0.0,0.0,0.0,0.0,0.0,0.0,0.0,0.0,0.0,0.0,0.0,0.0,0.0,0.0,0.0,0.0,0.0,0.0,0.0,0.0,0.0,0.0,0.0,0.0,0.0,0.0,0.0,0.0,0.0,0.0,0.0,0.0,0.0,0.0,0.0,0.0,0.0,0.0,0.0,0.0,0.0,0.0,0.0,0.0,0.0,0.0,0.0,0.0,0.0,0.0,0.0,0.0,0.0,0.0,0.0,0.0,0.0,0.0,0.0,0.0,0.0,0.0,0.0,0.0,0.0,0.0,0.0,0.0,0.0,0.0,0.0,0.0,0.0,0.0,0.0,0.0,0.0,0.0,0.0,0.0,0.0,0.0,0.0,0.0,0.0,0.0,0.0,0.0,0.0,0.0,0.0,0.0,0.0,0.0,0.0,0.0,0.0,0.0,0.0,0.0,0.0,0.0,0.0,0.0,0.0,0.0,0.0,0.0,0.0,0.0,0.0,0.0,0.0,0.0,0.0,0.0,0.0,0.0,0.0,0.0,0.0,0.0,0.0,0.0,0.0,0.0,0.0,0.0,0.0,0.0,0.0,0.0,0.0,0.0,0.0,0.0,0.0,0.0,0.0,0.0,0.0,0.0,0.0,0.0,0.0,0.0,0.0,0.0,0.0,0.0,0.0,0.0,0.0,0.0,0.0,0.0,0.0,0.0,0.0,0.0,0.0,0.0,0.0,0.0,0.0,0.0,0.0,0.0,0.0,0.0,0.0,0.0,0.0,0.0,0.0,0.0,0.0,0.0,0.0,0.0,0.0,0.0,0.0,0.0,0.0,0.0,0.0,0.0,0.0,0.0,0.0,0.0,0.0,0.0,0.0,0.0,0.0,0.0,0.0,0.0,0.0,0.0,0.0,0.0,0.0,0.0,0.0,0.0,0.0,0.0,0.0,0.0,0.0,0.0,0.0,0.0,0.0,0.0,0.0,0.0,0.0,0.0,0.0,0.0,0.0,0.0,0.0,0.0,0.0,0.0,0.0,0.0,0.0,0.0,0.0,0.0,0.0,0.0,0.0,0.0,0.0,0.0,0.0,0.0,0.0,0.0,0.0,0.0,0.0,0.0,0.0,0.0,0.0,0.0,0.0,0.0,0.0,0.0,0.0,0.0,0.0,0.0,0.0,0.0,0.0,0.0,0.0,0.0,0.0,0.0,0.0,0.0,0.0,0.0,0.0,0.0,0.0,0.0,0.0,0.0,0.0,0.0,0.0,0.0,0.0,0.0,0.0,0.0,0.0,0.0,0.0,0.0,0.0,0.0,0.0,0.0,0.0,0.0,0.0,0.0,0.0,0.0,0.0,0.0,0.0,0.0,0.0,0.0,0.0,0.0,0.0,0.0,0.0,0.0,0.0,0.0,0.0,0.0,0.0,0.0,0.0,0.0,0.0,0.0,0.0,0.0,0.0,0.0,0.0,0.0,0.0,0.0,0.0,0.0,0.0,0.0,0.0,0.0,0.0,0.0,0.0,0.0,0.0,0.0,0.0,0.0,0.0,0.0,0.0,0.0,0.0,0.0,0.0,0.0,0.0,0.0,0.0,0.0,0.0,0.0,0.0,0.0,0.0,0.0,0.0,0.0,0.0,0.0,0.0,0.0,0.0,0.0,0.0,0.0,0.0,0.0,0.0,0.0,0.0,0.0,0.0,0.0,0.0,0.0,0.0,0.0,0.0,0.0,0.0,0.0,0.0,0.0,0.0,0.0,0.0,0.0,0.0,0.0,0.0,0.0,0.0,0.0,0.0,0.0,0.0,0.0,0.0,0.0,0.0,0.0,0.0,0.0,0.0,0.0,0.0,0.0,0.0,0.0,0.0,0.0,0.0,0.0,0.0,0.0,0.0,0.0,0.0,0.0,0.0,0.0,0.0,0.0,0.0,0.0,0.0,0.0,0.0,0.0,0.0,0.0,0.0,0.0,0.0,0.0,0.0,0.0,0.0,0.0,0.0,0.0,0.0,0.0,0.0,0.0,0.0,0.0,0.0,0.0,0.0,0.0,0.0,0.0,0.0,0.0,0.0,0.0,0.0,0.0,0.0,0.0,0.0,0.0,0.0,0.0,0.0,0.0,0.0,0.0,0.0,0.0,0.0,0.0,0.0,0.0,0.0,0.0,0.0,0.0,0.0,0.0,0.0,0.0,0.0,0.0,0.0,0.0,0.0,0.0,0.0,0.0,0.0,0.0,0.0,0.0,0.0,0.0,0.0,0.0,0.0,0.0,0.0,0.0,0.0,0.0,0.0,0.0,0.0,0.0,0.0,0.0,0.0,0.0,0.0,0.0,0.0,0.0,0.0,0.0,0.0,0.0,0.0,0.0,0.0,0.0,0.0,0.0,0.0,0.0,0.0,0.0,0.0,0.0,0.0,0.0,0.0,0.0,0.0,-1.8646,0.0,0.0,0.0,0.0,0.0,0.0,0.0,0.0,0.0,0.0,0.0,0.0,0.0,0.0,0.0,0.0,0.0,0.0,0.0,0.0,0.0,0.0,0.0,0.0,0.0,0.0,0.0,0.0,0.0,0.0,0.0,0.0,0.0,0.0,0.0,0.0,0.0,0.0,0.0,0.0,0.0,0.0,0.0,0.0,0.0,0.0,0.0,0.0,0.0,0.0,0.0,0.0,0.0,0.0,0.0,0.0,0.0,0.0,0.0,0.0,0.0,0.0,0.0,0.0,0.0,0.0,0.0,0.0,0.0,0.0,0.0,0.0,0.0,0.0,0.0,0.0,0.0,0.0,0.0,0.0,0.0,0.0,0.0,0.0,0.0,0.0,0.0,0.0,0.0,0.0,0.0,0.0,0.0,0.0,0.0,0.0,0.0,0.0,0.0,0.0,0.0,0.0,0.0,0.0,0.0,0.0,0.0,0.0,0.0,0.0,-1.8806,-1.8806,-1.8806,-1.8806,-1.8824,0.0,0.0,0.0,0.0,0.0,0.0,0.0,0.0,0.0,0.0,0.0,0.0,0.0,0.0,0.0,0.0,0.0,0.0,0.0,0.0,0.0,0.0,0.0,0.0,0.0,0.0,0.0,0.0,0.0,0.0,0.0,0.0,0.0,0.0,0.0,0.0,0.0,0.0,0.0,0.0,0.0,0.0,0.0,0.0,0.0,0.0,0.0,0.0,0.0,0.0,0.0,0.0,0.0,0.0,0.0,0.0,0.0,0.0,0.0,0.0,0.0,0.0,0.0,0.0,0.0,0.0,0.0,0.0,0.0,0.0,0.0,0.0,0.0,0.0,0.0,0.0,0.0,0.0,0.0,0.0,0.0,0.0,0.0,0.0,0.0,0.0,0.0,0.0,0.0,0.0,0.0,0.0,0.0,0.0,0.0,0.0,0.0,0.0,0.0,0.0,0.0,0.0,0.0,0.0,0.0,0.0,0.0,0.0,0.0,0.0,0.0,0.0,-1.9324,-1.9341,-1.9341,0.0,0.0,0.0,0.0,0.0,0.0,0.0,0.0,0.0,0.0,0.0,0.0,0.0,0.0,0.0,0.0,0.0,0.0,0.0,0.0,0.0,0.0,0.0,0.0,0.0,0.0,0.0,0.0,0.0,0.0,0.0,0.0,0.0,0.0,0.0,0.0,0.0,0.0,0.0,0.0,0.0,0.0,0.0,0.0,0.0,0.0,0.0,0.0,0.0,0.0,0.0,0.0,0.0,0.0,0.0,0.0,0.0,0.0,0.0,0.0,0.0,0.0,0.0,0.0,0.0,0.0,0.0,0.0,0.0,0.0,0.0,0.0,0.0,0.0,0.0,0.0,0.0,0.0,0.0,0.0,0.0,0.0,0.0,0.0,0.0,0.0,0.0,0.0,0.0,0.0,0.0,0.0,0.0,0.0,0.0,0.0,0.0,0.0,0.0,0.0,0.0,0.0,0.0,0.0,0.0,0.0,0.0,0.0,0.0,0.0,-1.9447,-2.084,-2.0876,0.0,-2.0947,0.0,0.0,0.0,0.0,0.0,0.0,0.0,0.0,0.0,0.0,0.0,0.0,0.0,0.0,0.0,0.0,0.0,0.0,0.0,0.0,0.0,0.0,0.0,0.0,0.0,0.0,0.0,0.0,0.0,0.0,0.0,0.0,0.0,0.0,0.0,0.0,0.0,0.0,0.0,0.0,0.0,0.0,0.0,0.0,0.0,0.0,0.0,0.0,0.0,0.0,0.0,0.0,0.0,0.0,0.0,0.0,0.0,0.0,0.0,0.0,0.0,0.0,0.0,0.0,0.0,0.0,0.0,0.0,0.0,0.0,0.0,0.0,0.0,0.0,0.0,0.0,0.0,0.0,0.0,0.0,0.0,0.0,0.0,0.0,0.0,0.0,0.0,0.0,0.0,0.0,0.0,0.0,0.0,0.0,0.0,0.0,0.0,0.0,0.0,0.0,0.0,0.0,0.0,0.0,0.0,0.0,0.0,0.0,0.0,0.0,0.0,-2.109,-2.109,-2.1108,0.0,0.0,0.0,0.0,0.0,0.0,0.0,0.0,0.0,0.0,0.0,0.0,0.0,0.0,0.0,0.0,0.0,0.0,0.0,0.0,0.0,0.0,0.0,0.0,0.0,0.0,0.0,0.0,0.0,0.0,0.0,0.0,0.0,0.0,0.0,0.0,0.0,0.0,0.0,0.0,0.0,0.0,0.0,0.0,0.0,0.0,0.0,0.0,0.0,0.0,0.0,0.0,0.0,0.0,0.0,0.0,0.0,0.0,0.0,0.0,0.0,0.0,0.0,0.0,0.0,0.0,0.0,0.0,0.0,0.0,0.0,0.0,0.0,0.0,0.0,0.0,0.0,0.0,0.0,0.0,0.0,0.0,0.0,0.0,0.0,0.0,0.0,0.0,0.0,0.0,0.0,0.0,0.0,0.0,0.0,0.0,0.0,0.0,0.0,0.0,0.0,0.0,0.0,0.0,0.0,0.0,0.0,0.0,0.0,0.0,-2.0811,0.0,-2.1795,-2.1857,-2.161,-2.0979,0.0,0.0,0.0,0.0,0.0,0.0,0.0,0.0,0.0,0.0,0.0,0.0,0.0,0.0,0.0,0.0,0.0,0.0,0.0,0.0,0.0,0.0,0.0,0.0,0.0,0.0,0.0,0.0,0.0,0.0,0.0,0.0,0.0,0.0,0.0,0.0,0.0,0.0,0.0,0.0,0.0,0.0,0.0,0.0,0.0,0.0,0.0,0.0,0.0,0.0,0.0,0.0,0.0,0.0,0.0,0.0,0.0,0.0,0.0,0.0,0.0,0.0,0.0,0.0,0.0,0.0,0.0,0.0,0.0,0.0,0.0,0.0,0.0,0.0,0.0,0.0,0.0,0.0,0.0,0.0,0.0,0.0,0.0,0.0,0.0,0.0,0.0,0.0,0.0,0.0,0.0,0.0,0.0,0.0,0.0,0.0,0.0,0.0,0.0,0.0,0.0,0.0,0.0,0.0,0.0,0.0,0.0,0.0,0.0,-2.2048,-2.2006,-2.3538,-2.3751,-2.2774,0.0,0.0,0.0,0.0,0.0,0.0,0.0,0.0,0.0,0.0,0.0,0.0,0.0,0.0,0.0,0.0,0.0,0.0,0.0,0.0,0.0,0.0,0.0,0.0,0.0,0.0,0.0,0.0,0.0,0.0,0.0,0.0,0.0,0.0,0.0,0.0,0.0,0.0,0.0,0.0,0.0,0.0,0.0,0.0,0.0,0.0,0.0,0.0,0.0,0.0,0.0,0.0,0.0,0.0,0.0,0.0,0.0,0.0,0.0,0.0,0.0,0.0,0.0,0.0,0.0,0.0,0.0,0.0,0.0,0.0,0.0,0.0,0.0,0.0,0.0,0.0,0.0,0.0,0.0,0.0,0.0,0.0,0.0,0.0,0.0,0.0,0.0,0.0,0.0,0.0,0.0,0.0,0.0,0.0,0.0,0.0,0.0,0.0,0.0,0.0,0.0,0.0,0.0,0.0,0.0,0.0,0.0,0.0,0.0,-2.0926,-2.1332,-2.2754,0.0,-2.3444,-2.2207,0.0,0.0,0.0,0.0,0.0,0.0,0.0,0.0,0.0,0.0,0.0,0.0,0.0,0.0,0.0,0.0,0.0,0.0,0.0,0.0,0.0,0.0,0.0,0.0,0.0,0.0,0.0,0.0,0.0,0.0,0.0,0.0,0.0,0.0,0.0,0.0,0.0,0.0,0.0,0.0,0.0,0.0,0.0,0.0,0.0,0.0,0.0,0.0,0.0,0.0,0.0,0.0,0.0,0.0,0.0,0.0,0.0,0.0,0.0,0.0,0.0,0.0,0.0,0.0,0.0,0.0,0.0,0.0,0.0,0.0,0.0,0.0,0.0,0.0,0.0,0.0,0.0,0.0,0.0,0.0,0.0,0.0,0.0,0.0,0.0,0.0,0.0,0.0,0.0,0.0,0.0,0.0,0.0,0.0,0.0,0.0,0.0,0.0,0.0,0.0,0.0,0.0,0.0,0.0,0.0,0.0,0.0,0.0,0.0,-2.1025,0.0,-2.4118,0.0,-2.364,-2.2151,0.0,0.0,0.0,0.0,0.0,0.0,0.0,0.0,0.0,0.0,0.0,0.0,0.0,0.0,0.0,0.0,0.0,0.0,0.0,0.0,0.0,0.0,0.0,0.0,0.0,0.0,0.0,0.0,0.0,0.0,0.0,0.0,0.0,0.0,0.0,0.0,0.0,0.0,0.0,0.0,0.0,0.0,0.0,0.0,0.0,0.0,0.0,0.0,0.0,0.0,0.0,0.0,0.0,0.0,0.0,0.0,0.0,0.0,0.0,0.0,0.0,0.0,0.0,0.0,0.0,0.0,0.0,0.0,0.0,0.0,0.0,0.0,0.0,0.0,0.0,0.0,0.0,0.0,0.0,0.0,0.0,0.0,0.0,0.0,0.0,0.0,0.0,0.0,0.0,0.0,0.0,0.0,0.0,0.0,0.0,0.0,0.0,0.0,0.0,0.0,0.0,0.0,0.0,0.0,0.0,0.0,0.0,0.0,-2.1251,-2.4221,-2.5838,-2.5968,-2.4537,-2.4535,-2.2713,0.0,0.0,0.0,0.0,0.0,0.0,0.0,0.0,0.0,0.0,0.0,0.0,0.0,0.0,0.0,0.0,0.0,0.0,0.0,0.0,0.0,0.0,0.0,0.0,0.0,0.0,0.0,0.0,0.0,0.0,0.0,0.0,0.0,0.0,0.0,0.0,0.0,0.0,0.0,0.0,0.0,0.0,0.0,0.0,0.0,0.0,0.0,0.0,0.0,0.0,0.0,0.0,0.0,0.0,0.0,0.0,0.0,0.0,0.0,0.0,0.0,0.0,0.0,0.0,0.0,0.0,0.0,0.0,0.0,0.0,0.0,0.0,0.0,0.0,0.0,0.0,0.0,0.0,0.0,0.0,0.0,0.0,0.0,0.0,0.0,0.0,0.0,0.0,0.0,0.0,0.0,0.0,0.0,0.0,0.0,0.0,0.0,0.0,0.0,0.0,0.0,0.0,0.0,0.0,0.0,0.0,0.0,0.0,0.0,-2.378,-2.5487,-2.6637,-2.7024,-2.4429,-2.2876,0.0,0.0,0.0,0.0,0.0,0.0,0.0,0.0,0.0,0.0,0.0,0.0,0.0,0.0,0.0,0.0,0.0,0.0,0.0,0.0,0.0,0.0,0.0,0.0,0.0,0.0,0.0,0.0,0.0,0.0,0.0,0.0,0.0,0.0,0.0,0.0,0.0,0.0,0.0,0.0,0.0,0.0,0.0,0.0,0.0,0.0,0.0,0.0,0.0,0.0,0.0,0.0,0.0,0.0,0.0,0.0,0.0,0.0,0.0,0.0,0.0,0.0,0.0,0.0,0.0,0.0,0.0,0.0,0.0,0.0,0.0,0.0,0.0,0.0,0.0,0.0,0.0,0.0,0.0,0.0,0.0,0.0,0.0,0.0,0.0,0.0,0.0,0.0,0.0,0.0,0.0,0.0,0.0,0.0,0.0,0.0,0.0,0.0,0.0,0.0,0.0,0.0,0.0,0.0,0.0,0.0,0.0,0.0,0.0,-2.7352,-2.8414,-2.9117,-2.9433,-2.6604,-2.4783,-2.4151,0.0,0.0,0.0,0.0,0.0,0.0,0.0,0.0,0.0,0.0,0.0,0.0,0.0,0.0,0.0,0.0,0.0,0.0,0.0,0.0,0.0,0.0,0.0,0.0,0.0,0.0,0.0,0.0,0.0,0.0,0.0,0.0,0.0,0.0,0.0,0.0,0.0,0.0,0.0,0.0,0.0,0.0,0.0,0.0,0.0,0.0,0.0,0.0,0.0,0.0,0.0,0.0,0.0,0.0,0.0,0.0,0.0,0.0,0.0,0.0,0.0,0.0,0.0,0.0,0.0,0.0,0.0,0.0,0.0,0.0,0.0,0.0,0.0,0.0,0.0,0.0,0.0,0.0,0.0,0.0,0.0,0.0,0.0,0.0,0.0,0.0,0.0,0.0,0.0,0.0,0.0,0.0,0.0,0.0,0.0,0.0,0.0,0.0,0.0,0.0,0.0,0.0,0.0,0.0,0.0,0.0,0.0,0.0,-3.396,-3.4169,-3.3468,-3.18,-3.0551,-2.8142,0.0,0.0,0.0,0.0,0.0,0.0,0.0,0.0,0.0,0.0,0.0,0.0,0.0,0.0,0.0,0.0,0.0,0.0,0.0,0.0,0.0,0.0,0.0,0.0,0.0,0.0,0.0,0.0,0.0,0.0,0.0,0.0,0.0,0.0,0.0,0.0,0.0,0.0,0.0,0.0,0.0,0.0,0.0,0.0,0.0,0.0,0.0,0.0,0.0,0.0,0.0,0.0,0.0,0.0,0.0,0.0,0.0,0.0,0.0,0.0,0.0,0.0,0.0,0.0,0.0,0.0,0.0,0.0,0.0,0.0,0.0,0.0,0.0,0.0,0.0,0.0,0.0,0.0,0.0,0.0,0.0,0.0,0.0,0.0,0.0,0.0,0.0,0.0,0.0,0.0,0.0,0.0,0.0,0.0,0.0,0.0,0.0,0.0,0.0,0.0,0.0,0.0,0.0,0.0,0.0,0.0,0.0,0.0,0.0,-3.7277,-3.9797,-3.9987,-3.7637,-3.324,-3.036,0.0,0.0,0.0,0.0,0.0,0.0,0.0,0.0,0.0,0.0,0.0,0.0,0.0,0.0,0.0,0.0,0.0,0.0,0.0,0.0,0.0,0.0,0.0,0.0,0.0,0.0,0.0,0.0,0.0,0.0,0.0,0.0,0.0,0.0,0.0,0.0,0.0,0.0,0.0,0.0,0.0,0.0,0.0,0.0,0.0,0.0,0.0,0.0,0.0,0.0,0.0,0.0,0.0,0.0,0.0,0.0,0.0,0.0,0.0,0.0,0.0,0.0,0.0,0.0,0.0,0.0,0.0,0.0,0.0,0.0,0.0,0.0,0.0,0.0,0.0,0.0,0.0,0.0,0.0,0.0,0.0,0.0,0.0,0.0,0.0,0.0,0.0,0.0,0.0,0.0,0.0,0.0,0.0,0.0,0.0,0.0,0.0,0.0,0.0,0.0,0.0,0.0,0.0,0.0,0.0,0.0,0.0,0.0,-3.5912,-4.0195,-4.4592,-4.5975,-4.4156,-3.8111,-3.3847,0.0,0.0,0.0,0.0,0.0,0.0,0.0,0.0,0.0,0.0,0.0,0.0,0.0,0.0,0.0,0.0,0.0,0.0,0.0,0.0,0.0,0.0,0.0,0.0,0.0,0.0,0.0,0.0,0.0,0.0,0.0,0.0,0.0,0.0,0.0,0.0,0.0,0.0,0.0,0.0,0.0,0.0,0.0,0.0,0.0,0.0,0.0,0.0,0.0,0.0,0.0,0.0,0.0,0.0,0.0,0.0,0.0,0.0,0.0,0.0,0.0,0.0,0.0,0.0,0.0,0.0,0.0,0.0,0.0,0.0,0.0,0.0,0.0,0.0,0.0,0.0,0.0,0.0,0.0,0.0,0.0,0.0,0.0,0.0,0.0,0.0,0.0,0.0,0.0,0.0,0.0,0.0,0.0,0.0,0.0,0.0,0.0,0.0,0.0,0.0,0.0,0.0,0.0,0.0,0.0,0.0,0.0,0.0,-3.9361,-4.2886,-4.8439,-5.094,-5.0012,-4.3587,-3.7749,0.0,0.0,0.0,0.0,0.0,0.0,0.0,0.0,0.0,0.0,0.0,0.0,0.0,0.0,0.0,0.0,0.0,0.0,0.0,0.0,0.0,0.0,0.0,0.0,0.0,0.0,0.0,0.0,0.0,0.0,0.0,0.0,0.0,0.0,0.0,0.0,0.0,0.0,0.0,0.0,0.0,0.0,0.0,0.0,0.0,0.0,0.0,0.0,0.0,0.0,0.0,0.0,0.0,0.0,0.0,0.0,0.0,0.0,0.0,0.0,0.0,0.0,0.0,0.0,0.0,0.0,0.0,0.0,0.0,0.0,0.0,0.0,0.0,0.0,0.0,0.0,0.0,0.0,0.0,0.0,0.0,0.0,0.0,0.0,0.0,0.0,0.0,0.0,0.0,0.0,0.0,0.0,0.0,0.0,0.0,0.0,0.0,0.0,0.0,0.0,0.0,0.0,0.0,0.0,0.0,0.0,0.0,0.0,-4.1635,-4.6259,-5.0144,-5.2059,-5.185,-4.4762,-3.9191,0.0,0.0,0.0,0.0,0.0,0.0,0.0,0.0,0.0,0.0,0.0,0.0,0.0,0.0,0.0,0.0,0.0,0.0,0.0,0.0,0.0,0.0,0.0,0.0,0.0,0.0,0.0,0.0,0.0,0.0,0.0,0.0,0.0,0.0,0.0,0.0,0.0,0.0,0.0,0.0,0.0,0.0,0.0,0.0,0.0,0.0,0.0,0.0,-2.4125,0.0,0.0,0.0,0.0,0.0,0.0,0.0,0.0,0.0,0.0,0.0,0.0,0.0,0.0,0.0,0.0,0.0,0.0,0.0,0.0,0.0,0.0,0.0,0.0,0.0,0.0,0.0,0.0,0.0,0.0,0.0,0.0,0.0,0.0,0.0,0.0,0.0,0.0,0.0,0.0,0.0,0.0,0.0,0.0,0.0,0.0,0.0,0.0,0.0,0.0,0.0,0.0,0.0,0.0,0.0,0.0,0.0,0.0,0.0,-4.2962,-4.787,-5.13,-5.2817,-5.2229,-4.7018,-4.1806,0.0,0.0,0.0,0.0,0.0,0.0,0.0,0.0,0.0,0.0,0.0,0.0,0.0,0.0,0.0,0.0,0.0,0.0,0.0,0.0,0.0,0.0,0.0,0.0,0.0,0.0,0.0,0.0,0.0,0.0,0.0,0.0,0.0,0.0,0.0,0.0,0.0,0.0,0.0,0.0,0.0,0.0,0.0,0.0,0.0,0.0,0.0,0.0,0.0,0.0,0.0,0.0,0.0,0.0,0.0,0.0,0.0,0.0,0.0,0.0,0.0,0.0,0.0,0.0,0.0,0.0,0.0,0.0,0.0,0.0,0.0,0.0,0.0,0.0,0.0,0.0,0.0,0.0,0.0,0.0,0.0,0.0,0.0,0.0,0.0,0.0,0.0,0.0,0.0,0.0,0.0,0.0,0.0,0.0,0.0,0.0,0.0,0.0,0.0,0.0,0.0,0.0,0.0,0.0,0.0,0.0,0.0,-3.8603,-4.3834,-4.9102,-5.2305,-5.3404,-5.24,-4.9159,-4.4251,-3.7656,0.0,0.0,0.0,0.0,0.0,0.0,0.0,0.0,0.0,0.0,0.0,0.0,0.0,0.0,0.0,0.0,0.0,0.0,0.0,0.0,0.0,0.0,0.0,0.0,0.0,0.0,0.0,0.0,0.0,0.0,0.0,0.0,0.0,0.0,0.0,0.0,0.0,0.0,-2.1926,-2.3967,0.0,0.0,0.0,0.0,0.0,0.0,0.0,0.0,-2.5977,0.0,0.0,0.0,0.0,0.0,0.0,0.0,0.0,0.0,0.0,0.0,0.0,0.0,0.0,0.0,0.0,0.0,0.0,0.0,0.0,0.0,0.0,0.0,0.0,0.0,0.0,0.0,0.0,0.0,0.0,0.0,0.0,0.0,0.0,0.0,0.0,0.0,0.0,0.0,0.0,0.0,0.0,0.0,0.0,0.0,0.0,0.0,0.0,0.0,0.0,0.0,0.0,0.0,0.0,0.0,0.0,-3.8527,-4.0347,-4.463,-5.1604,-5.3688,-5.3973,-5.24,-4.914,-4.4251,-3.7713,0.0,0.0,0.0,0.0,0.0,0.0,0.0,0.0,0.0,0.0,0.0,0.0,0.0,0.0,0.0,0.0,0.0,0.0,0.0,0.0,0.0,0.0,0.0,0.0,0.0,0.0,0.0,0.0,0.0,0.0,0.0,0.0,0.0,0.0,0.0,0.0,0.0,0.0,0.0,-2.6375,-2.7191,0.0,0.0,0.0,0.0,0.0,0.0,0.0,0.0,-2.6745,0.0,0.0,0.0,0.0,0.0,0.0,0.0,0.0,0.0,0.0,0.0,0.0,0.0,0.0,0.0,0.0,0.0,0.0,0.0,0.0,0.0,0.0,0.0,0.0,0.0,0.0,0.0,0.0,0.0,0.0,0.0,0.0,0.0,0.0,0.0,0.0,0.0,0.0,0.0,0.0,0.0,0.0,0.0,0.0,0.0,0.0,0.0,0.0,0.0,0.0,0.0,0.0,0.0,0.0,0.0,-3.8357,-4.2431,-4.6999,-5.2229,-5.4048,-5.4105,-5.24,-4.8306,-4.3379,0.0,0.0,0.0,0.0,0.0,0.0,0.0,0.0,0.0,0.0,0.0,0.0,0.0,0.0,0.0,0.0,0.0,0.0,0.0,0.0,0.0,0.0,0.0,0.0,0.0,0.0,0.0,0.0,0.0,0.0,0.0,0.0,0.0,0.0,0.0,0.0,0.0,0.0,0.0,0.0,-2.8218,-2.89,-2.9355,0.0,0.0,0.0,0.0,0.0,0.0,-2.9185,-2.8404,0.0,0.0,0.0,0.0,0.0,0.0,0.0,0.0,0.0,0.0,0.0,0.0,0.0,0.0,0.0,0.0,0.0,0.0,0.0,0.0,0.0,0.0,0.0,0.0,0.0,0.0,0.0,0.0,0.0,0.0,0.0,0.0,0.0,0.0,0.0,0.0,0.0,0.0,0.0,0.0,0.0,0.0,0.0,0.0,0.0,0.0,0.0,0.0,0.0,0.0,0.0,0.0,0.0,0.0,0.0,-3.7657,-4.3929,-4.8932,-5.2532,-5.4143,-5.4105,-5.2381,-4.7548,-4.2545,0.0,0.0,0.0,0.0,0.0,0.0,0.0,0.0,0.0,0.0,0.0,0.0,0.0,0.0,0.0,0.0,0.0,0.0,0.0,0.0,0.0,0.0,0.0,0.0,0.0,0.0,0.0,0.0,0.0,0.0,0.0,0.0,0.0,0.0,0.0,0.0,0.0,0.0,0.0,0.0,0.0,-3.0852,-3.1364,-3.0926,0.0,0.0,0.0,0.0,-3.1421,-3.1743,0.0,0.0,0.0,0.0,0.0,0.0,0.0,0.0,0.0,0.0,0.0,0.0,0.0,0.0,0.0,0.0,0.0,0.0,0.0,0.0,0.0,0.0,0.0,0.0,0.0,0.0,0.0,0.0,0.0,0.0,0.0,0.0,0.0,0.0,0.0,0.0,0.0,0.0,0.0,0.0,0.0,0.0,0.0,0.0,0.0,0.0,0.0,0.0,0.0,0.0,0.0,0.0,0.0,0.0,0.0,0.0,-3.8455,-4.3687,-4.8666,-5.3309,-5.4427,-5.4105,-5.24,-4.7548,-4.2568,0.0,0.0,0.0,0.0,0.0,0.0,0.0,0.0,0.0,0.0,0.0,0.0,0.0,0.0,0.0,0.0,0.0,0.0,0.0,0.0,0.0,0.0,0.0,0.0,0.0,0.0,0.0,0.0,0.0,0.0,0.0,0.0,0.0,0.0,0.0,0.0,0.0,0.0,0.0,0.0,0.0,-3.3032,-3.2368,-3.23,-3.2222,0.0,0.0,-3.498,-3.6311,-3.7769,0.0,0.0,0.0,0.0,0.0,0.0,0.0,0.0,0.0,0.0,0.0,0.0,0.0,0.0,0.0,0.0,0.0,0.0,0.0,0.0,0.0,0.0,0.0,0.0,0.0,0.0,0.0,0.0,0.0,0.0,0.0,0.0,0.0,0.0,0.0,0.0,0.0,0.0,0.0,0.0,0.0,0.0,0.0,0.0,0.0,0.0,0.0,0.0,0.0,0.0,0.0,0.0,0.0,0.0,0.0,-3.3883,-3.8741,-4.5526,-5.0542,-5.3575,-5.4484,-5.4105,-5.2438,-4.662,-4.1601,0.0,0.0,0.0,0.0,0.0,0.0,0.0,0.0,0.0,0.0,0.0,0.0,0.0,0.0,0.0,0.0,0.0,0.0,0.0,0.0,0.0,0.0,0.0,0.0,0.0,0.0,0.0,0.0,0.0,0.0,0.0,0.0,0.0,0.0,0.0,0.0,0.0,0.0,0.0,0.0,0.0,0.0,-3.523,-3.5778,0.0,0.0,0.0,-3.7337,-3.7528,0.0,0.0,0.0,0.0,0.0,0.0,0.0,0.0,0.0,0.0,0.0,0.0,0.0,0.0,0.0,0.0,0.0,0.0,0.0,0.0,0.0,0.0,0.0,0.0,0.0,0.0,0.0,0.0,0.0,0.0,0.0,0.0,0.0,0.0,0.0,0.0,0.0,0.0,0.0,0.0,0.0,0.0,0.0,0.0,0.0,0.0,0.0,0.0,0.0,0.0,0.0,0.0,0.0,0.0,0.0,0.0,0.0,-3.9083,-4.7271,-5.2324,-5.3935,-5.4598,-5.4105,-5.2362,-4.6714,0.0,0.0,0.0,0.0,0.0,0.0,0.0,0.0,0.0,0.0,0.0,0.0,0.0,0.0,0.0,0.0,0.0,0.0,0.0,0.0,0.0,0.0,0.0,0.0,0.0,0.0,0.0,-1.6355,0.0,0.0,0.0,0.0,0.0,0.0,0.0,0.0,0.0,0.0,0.0,0.0,0.0,0.0,-3.743,-3.8306,-3.9261,-4.0139,0.0,0.0,-3.9946,-3.9945,-4.2011,-4.1457,0.0,0.0,0.0,0.0,0.0,0.0,0.0,0.0,0.0,0.0,0.0,0.0,0.0,0.0,0.0,0.0,0.0,0.0,0.0,0.0,0.0,0.0,0.0,0.0,0.0,0.0,0.0,0.0,0.0,0.0,0.0,0.0,0.0,0.0,0.0,0.0,0.0,0.0,0.0,0.0,0.0,0.0,0.0,0.0,0.0,0.0,0.0,0.0,0.0,0.0,0.0,0.0,0.0,0.0,0.0,-4.0055,-4.8086,-5.312,-5.475,-5.4863,-5.4105,-5.2419,-4.8932,-4.4028,0.0,0.0,0.0,0.0,0.0,0.0,0.0,0.0,0.0,0.0,0.0,0.0,0.0,0.0,0.0,0.0,0.0,0.0,0.0,0.0,0.0,0.0,0.0,0.0,0.0,0.0,0.0,0.0,0.0,0.0,0.0,0.0,0.0,0.0,0.0,0.0,0.0,0.0,0.0,0.0,0.0,-4.0013,-4.1093,-4.1992,-4.3695,0.0,0.0,-4.3511,-4.5726,-4.8124,-4.705,-3.8935,0.0,0.0,0.0,0.0,0.0,0.0,0.0,0.0,0.0,0.0,0.0,0.0,0.0,0.0,0.0,0.0,0.0,0.0,0.0,0.0,0.0,0.0,0.0,0.0,0.0,0.0,0.0,0.0,0.0,0.0,0.0,0.0,0.0,0.0,0.0,0.0,0.0,0.0,0.0,0.0,0.0,0.0,0.0,0.0,0.0,0.0,0.0,0.0,0.0,0.0,0.0,0.0,0.0,-3.671,-4.0099,-4.8289,-5.3337,-5.4933,-5.4971,-5.441,-5.3272,-4.9504,-4.4569,0.0,0.0,0.0,0.0,0.0,0.0,0.0,0.0,0.0,0.0,0.0,0.0,0.0,0.0,0.0,0.0,0.0,0.0,0.0,0.0,0.0,0.0,0.0,0.0,0.0,0.0,0.0,0.0,-2.2969,-2.3329,-2.2798,0.0,0.0,0.0,0.0,0.0,0.0,0.0,0.0,0.0,0.0,-4.1961,-4.5432,-4.6272,0.0,0.0,-4.7788,-4.6897,-4.7357,-4.7876,-4.6116,-3.9868,-3.759,0.0,0.0,0.0,0.0,0.0,0.0,0.0,0.0,0.0,0.0,0.0,0.0,0.0,0.0,0.0,0.0,0.0,0.0,0.0,0.0,0.0,0.0,0.0,0.0,0.0,0.0,0.0,0.0,0.0,0.0,0.0,0.0,0.0,0.0,0.0,0.0,0.0,0.0,0.0,0.0,0.0,0.0,0.0,0.0,0.0,0.0,0.0,0.0,0.0,0.0,0.0,0.0,-3.7146,-4.05,-4.8476,-5.34,-5.5056,-5.5038,-5.4648,-5.3774,-5.0468,-4.6003,0.0,0.0,0.0,0.0,0.0,0.0,0.0,0.0,0.0,0.0,0.0,0.0,0.0,0.0,0.0,0.0,0.0,0.0,0.0,0.0,0.0,0.0,0.0,0.0,0.0,0.0,0.0,0.0,-2.4693,-2.4763,-2.4144,0.0,0.0,0.0,0.0,0.0,0.0,0.0,0.0,0.0,0.0,-4.473,-4.8277,-4.8857,-4.9177,-5.0016,-4.8769,-4.7818,-4.801,-4.7441,-4.5491,-4.1261,0.0,0.0,0.0,0.0,0.0,0.0,0.0,0.0,0.0,0.0,0.0,0.0,0.0,0.0,0.0,0.0,0.0,0.0,0.0,0.0,0.0,0.0,0.0,0.0,0.0,0.0,0.0,0.0,0.0,0.0,-2.0241,0.0,0.0,0.0,0.0,0.0,0.0,0.0,0.0,0.0,0.0,0.0,0.0,0.0,0.0,0.0,0.0,0.0,0.0,0.0,0.0,0.0,0.0,-3.8023,-4.1415,-4.88,-5.3419,-5.5018,-5.5094,-5.4713,-5.3914,-5.2201,-4.8895,-4.3778,0.0,0.0,0.0,0.0,0.0,0.0,0.0,0.0,0.0,0.0,0.0,0.0,0.0,0.0,0.0,0.0,0.0,0.0,0.0,0.0,0.0,0.0,0.0,0.0,0.0,0.0,-2.276,-2.403,-2.4996,0.0,0.0,0.0,0.0,0.0,0.0,0.0,0.0,0.0,0.0,-4.4857,-4.8593,-4.8948,-4.9045,-4.9482,-5.0567,-4.7394,-4.565,-4.8087,-4.7642,-4.6225,0.0,0.0,0.0,0.0,0.0,0.0,0.0,0.0,0.0,0.0,0.0,0.0,0.0,0.0,0.0,0.0,0.0,0.0,0.0,0.0,0.0,0.0,0.0,0.0,0.0,0.0,0.0,-2.6874,-2.5595,0.0,0.0,0.0,0.0,0.0,0.0,0.0,0.0,0.0,0.0,0.0,-3.9412,-4.054,0.0,0.0,0.0,0.0,0.0,0.0,0.0,0.0,0.0,0.0,0.0,0.0,-3.8917,-4.2487,-4.9759,-5.4142,-5.5248,-5.5222,-5.5042,-5.4756,-5.2622,-4.8338,-4.1704,0.0,0.0,0.0,0.0,0.0,0.0,0.0,0.0,0.0,0.0,0.0,0.0,0.0,0.0,0.0,0.0,0.0,0.0,0.0,0.0,0.0,0.0,0.0,0.0,0.0,-2.4655,0.0,0.0,0.0,0.0,0.0,0.0,0.0,0.0,0.0,0.0,0.0,-3.9058,-4.3512,-4.5293,-4.7005,-4.9264,-4.9619,-5.0177,0.0,0.0,0.0,0.0,0.0,0.0,0.0,0.0,0.0,0.0,0.0,0.0,0.0,0.0,-4.4034,-3.8449,-3.7616,-3.7898,-3.819,0.0,0.0,0.0,0.0,0.0,0.0,0.0,0.0,0.0,0.0,0.0,0.0,0.0,0.0,-3.2553,0.0,-3.0628,0.0,0.0,0.0,0.0,0.0,0.0,0.0,0.0,-4.159,-4.4074,-4.4609,-4.5698,-4.5468,0.0,-4.3023,-3.8878,0.0,0.0,0.0,0.0,0.0,0.0,0.0,0.0,-4.0272,-4.3787,-5.055,-5.4524,-5.5345,-5.5294,-5.5294,-5.521,-5.2851,-4.8671,-4.2641,-3.785,-3.3865,0.0,0.0,0.0,0.0,0.0,0.0,0.0,0.0,0.0,0.0,0.0,0.0,0.0,0.0,0.0,0.0,0.0,0.0,0.0,0.0,0.0,0.0,0.0,-2.5749,0.0,0.0,0.0,0.0,0.0,0.0,0.0,0.0,0.0,-3.6291,-3.9172,-4.2848,-4.6942,-4.7491,-4.8003,-4.9292,0.0,0.0,0.0,0.0,0.0,0.0,0.0,-4.5998,-4.5851,-4.5422,-4.5481,-4.6707,-4.8767,-5.0037,-4.9422,0.0,0.0,-4.3905,-4.284,-4.3085,-4.34,-4.3431,-4.3296,-4.3044,-4.3683,-4.4129,0.0,0.0,0.0,0.0,0.0,0.0,0.0,0.0,-3.9086,-3.8991,0.0,-3.6426,0.0,0.0,0.0,0.0,0.0,-4.031,0.0,0.0,-4.9824,-5.1888,-5.0474,-5.0417,-5.0011,-4.9243,-4.9171,-4.7032,-4.2867,-3.8134,0.0,0.0,0.0,0.0,0.0,0.0,-4.2106,-4.5545,-5.1219,-5.4543,-5.5365,-5.5403,-5.5384,-5.5288,-5.2996,-5.0111,-4.6729,-4.415,-4.0196,-3.4437,-3.0935,0.0,0.0,0.0,0.0,0.0,0.0,0.0,0.0,0.0,0.0,0.0,0.0,0.0,0.0,0.0,0.0,0.0,0.0,0.0,0.0,-2.5313,0.0,0.0,0.0,0.0,0.0,0.0,0.0,0.0,0.0,0.0,-3.9418,-4.3189,-4.7112,-4.9481,0.0,0.0,0.0,0.0,-4.9286,-4.714,-4.6122,-4.6071,-4.6914,-4.8215,-4.9461,-5.0306,0.0,0.0,-5.3752,-5.3594,-5.313,-5.1505,-5.3884,-5.5045,-5.166,-4.9146,-4.7908,-4.8585,-4.7632,-4.6651,-4.7328,-4.8445,-4.8929,-4.7941,0.0,0.0,0.0,0.0,-4.1827,-4.3311,-4.5898,-4.5327,-4.4456,-4.3316,-4.2614,0.0,0.0,0.0,0.0,0.0,0.0,-4.4551,-4.7685,-4.9996,-5.2059,-5.3913,-5.3932,-5.3817,-5.3544,-5.2957,-5.204,-5.0756,-4.82,-4.2163,-3.3089,0.0,0.0,0.0,0.0,-4.5526,-4.8888,-5.2938,-5.5135,-5.5384,-5.5403,-5.5116,-5.4486,-5.3779,-5.2059,-4.9308,-4.7315,-4.4433,-4.0387,-3.5829,0.0,0.0,0.0,0.0,0.0,0.0,0.0,0.0,0.0,0.0,0.0,0.0,0.0,0.0,0.0,0.0,0.0,0.0,0.0,-2.6242,-2.7365,-2.8559,0.0,0.0,0.0,0.0,0.0,0.0,0.0,0.0,0.0,-4.6582,-4.6866,-4.7529,0.0,0.0,-4.8396,-4.7215,-4.8829,-5.044,-5.118,-5.1183,0.0,0.0,-5.2107,-5.1491,-5.2452,-5.4474,-5.5766,-5.5357,-5.6321,-5.6979,-5.6418,-5.7172,-5.7501,-5.665,-5.5857,-5.5354,-5.5586,-5.5258,-5.5006,-5.5258,-5.5528,-5.5606,-5.4866,-4.9219,-4.6991,-4.6592,-4.7447,-4.6972,-4.8258,-5.0707,-5.024,-4.9683,-4.9004,-4.8057,-4.6199,-4.3689,-4.2717,0.0,0.0,0.0,-4.822,-5.162,-5.2079,-5.3435,-5.5326,-5.5403,-5.5403,-5.5365,-5.4868,-5.4619,-5.46,-5.29,-4.8009,-4.0215,0.0,0.0,-4.01,-4.4513,-4.8124,-5.0818,-5.3836,-5.5403,-5.5403,-5.5403,-5.5154,-5.4639,-5.4295,-5.3206,-5.1353,-4.9973,-4.7697,-4.4397,-4.0368,-3.6307,0.0,0.0,0.0,0.0,0.0,0.0,0.0,0.0,0.0,0.0,0.0,-2.4645,0.0,0.0,0.0,0.0,-2.6015,-2.7687,-3.0224,-3.1174,0.0,0.0,0.0,0.0,0.0,0.0,0.0,-4.3682,-4.7112,-4.9879,-5.1187,-5.0523,-5.0353,-5.1509,-5.0921,-5.0123,-4.9398,0.0,-5.2419,-5.3345,-5.3468,-5.3932,-5.5308,-5.476,-5.4588,-5.5934,-5.7058,-5.7794,-5.7931,-5.8876,-5.9571,-5.959,-5.959,-5.9609,-5.959,-5.9609,-5.9319,-5.8739,-5.8584,-5.8584,-5.8584,-5.8584,-5.8584,-6.0283,-5.9842,-5.4354,-5.1988,-5.1801,-5.1725,-5.2589,-5.3992,-5.4059,-5.4506,-5.5047,-5.2802,-5.0939,-4.9387,-4.7128,0.0,-5.0741,-5.1544,-5.3129,-5.5384,-5.5403,-5.5403,-5.5403,-5.5403,-5.5441,-5.5498,-5.5498,-5.5498,-5.5422,-5.3894,-5.1868,-4.95,-4.7895,-4.6538,-4.5583,-4.7914,-5.0015,-5.1697,-5.4008,-5.525,-5.5403,-5.5403,-5.5403,-5.5384,-5.4562,-5.3683,-5.2824,-5.204,-5.0087,-4.6854,-4.4319,-4.0711,-3.5797,0.0,0.0,0.0,0.0,0.0,0.0,0.0,0.0,0.0,0.0,0.0,0.0,0.0,0.0,0.0,-3.0795,0.0,-3.5268,-3.6215,0.0,0.0,0.0,-4.0612,-4.4023,-4.6487,-4.8515,-5.0107,0.0,0.0,-5.4086,-5.4181,-5.4806,-5.6474,-5.5716,-5.475,-5.4021,-5.4684,-5.5026,-5.4449,-5.442,-5.4762,-5.5922,-5.7025,-5.8406,-5.9958,-6.0621,-6.0753,-6.0817,-6.0982,-6.1176,-6.1002,-6.1079,-6.106,-6.1079,-6.0983,-6.0634,-5.9126,-5.8874,-5.8836,-5.8913,-5.8932,-5.8952,-6.3713,-6.3429,-6.0145,-5.8041,-5.6865,-5.622,-5.6133,-5.6512,-5.6543,-5.6698,-5.6892,-5.5722,-5.4737,-5.383,-5.3263,-5.3435,-5.4199,-5.4409,-5.483,-5.5384,-5.5403,-5.5403,-5.5403,-5.5403,-5.5728,-5.6301,-5.6301,-5.632,-5.6301,-5.5899,-5.4753,-5.2977,-5.2499,-5.0264,-4.6481,-4.8735,-5.0856,-5.2499,-5.311,-5.4065,-5.5345,-5.5403,-5.5403,-5.5403,-5.4562,-5.3658,-5.2768,-5.1948,-5.0531,-4.84,-4.5883,-4.3061,-3.9943,-3.3859,0.0,0.0,0.0,0.0,0.0,0.0,0.0,0.0,0.0,-3.1078,-2.628,0.0,-3.2538,0.0,-3.5761,-3.8603,-4.0442,-4.0821,0.0,0.0,-4.4781,-4.5975,-4.9898,-5.1433,-5.2589,-5.3594,-5.5185,-5.6777,-5.8237,-5.8426,-5.9033,-6.0624,-5.8009,-5.5871,-5.5789,-5.7616,-5.8683,-5.8173,-5.9385,-6.0617,-6.013,-6.1141,-6.1947,-6.2502,-6.2744,-6.2739,-6.2143,-6.2027,-6.1892,-6.1273,-6.1099,-6.1099,-6.1157,-6.1099,-6.1021,-6.0596,-6.0499,-6.0499,-6.0518,-6.048,-6.048,-6.6006,-6.5855,-6.4073,-6.2368,-6.0757,-5.9184,-5.8312,-5.799,-5.8003,-5.7848,-5.7587,-5.7206,-5.6622,-5.5995,-5.6339,-5.653,-5.6511,-5.6511,-5.6702,-5.7046,-5.7065,-5.7256,-5.7581,-5.6855,-5.6931,-5.7676,-5.695,-5.6587,-5.6534,-5.6534,-5.6076,-5.5126,-5.5107,-5.3505,-5.0493,-5.1013,-5.1648,-5.2177,-5.2539,-5.355,-5.5164,-5.526,-5.4726,-5.3684,-5.3493,-5.2304,-4.9992,-4.9458,-4.8424,-4.6748,-4.4592,-4.2588,-4.08,-3.6197,-3.3004,0.0,0.0,0.0,0.0,0.0,0.0,0.0,0.0,0.0,0.0,0.0,-3.7182,-3.7561,-4.1029,-4.3777,-4.5066,-4.6184,-4.7908,-5.0467,-5.0334,-5.1566,-5.5337,-5.6171,-5.6929,-5.8104,-5.9051,-5.998,-6.089,-6.1003,-6.1477,-6.2766,-6.0947,-5.9387,-5.9228,-6.0323,-6.1031,-6.0741,-6.18,-6.2612,-6.2116,-6.2538,-6.2882,-6.2929,-6.3072,-6.307,-6.2627,-6.2598,-6.2535,-6.2157,-6.2062,-6.2142,-6.224,-6.2259,-6.2259,-6.2259,-6.2259,-6.1969,-6.1273,-6.1099,-6.1099,-6.7542,-6.7466,-6.6632,-6.5438,-6.3922,-6.178,-6.0018,-5.8672,-5.8653,-5.8163,-5.7453,-5.7633,-5.721,-5.6465,-5.7351,-5.7734,-5.7734,-5.7963,-5.844,-5.9062,-5.9081,-5.9482,-6.0132,-5.8604,-5.8222,-5.8833,-5.742,-5.6649,-5.6499,-5.6595,-5.6482,-5.6255,-5.6331,-5.5969,-5.5066,-5.3693,-5.2463,-5.1421,-5.2277,-5.3419,-5.4732,-5.458,-5.3438,-5.1408,-5.1732,-5.026,-4.6744,-4.6435,-4.5658,-4.4102,-4.2635,-4.1547,-4.0857,-3.8328,-3.6254,0.0,-3.3161,0.0,0.0,0.0,0.0,0.0,0.0,0.0,0.0,-4.1579,-4.2716,-4.3606,-4.6525,-4.8761,-4.9709,-5.1774,-5.3707,-5.5318,-5.5546,-5.6777,-5.9772,-6.0207,-6.0814,-6.2387,-6.2557,-6.2576,-6.2709,-6.2728,-6.3031,-6.3638,-6.3619,-6.3164,-6.2804,-6.2671,-6.2705,-6.2595,-6.2557,-6.2739,-6.2834,-6.2867,-6.2952,-6.2914,-6.3214,-6.3083,-6.3093,-6.3211,-6.3284,-6.3319,-6.3268,-6.337,-6.3651,-6.3632,-6.3632,-6.3555,-6.3536,-6.3129,-6.195,-6.1582,-6.1466,-6.8375,-6.8281,-6.7504,-6.6973,-6.6632,-6.6177,-6.3202,-5.8653,-5.7965,-5.7237,-5.6567,-5.6654,-5.6215,-5.5492,-5.6347,-5.6774,-5.6851,-5.8241,-5.8948,-5.9026,-5.9026,-5.9064,-5.912,-5.8149,-5.773,-5.7863,-5.7568,-5.7063,-5.6435,-5.7082,-5.6692,-5.537,-5.6064,-5.5931,-5.5057,0.0,0.0,0.0,-5.2867,-5.3457,-5.3038,-5.1744,-5.0856,-5.0342,-4.9181,0.0,-4.7319,-4.6649,-4.5827,-4.4773,-4.4412,0.0,0.0,0.0,0.0,0.0,0.0,0.0,0.0,0.0,0.0,0.0,-4.3251,-4.2848,-4.3076,-4.6222,-4.8894,-5.0391,-5.2343,-5.4105,-5.5583,-5.6152,-5.7137,-5.8729,-5.8938,-5.9753,-6.1667,-6.1932,-6.233,-6.324,-6.3372,-6.3657,-6.4263,-6.4434,-6.4471,-6.4566,-6.4661,-6.4604,-6.4415,-6.4339,-6.4149,-6.3562,-6.3391,-6.3657,-6.432,-6.4635,-6.4756,-6.5025,-6.5301,-6.5199,-6.464,-6.455,-6.4303,-6.3843,-6.3631,-6.367,-6.3768,-6.369,-6.3845,-6.371,-6.3748,-6.3594,-6.3265,-6.3207,-6.34,-6.9228,0.0,-6.8792,-6.8167,0.0,-6.6954,-6.4623,-6.1136,-6.1534,-6.0581,-5.8817,-5.9269,-5.831,-5.6407,-5.7692,-5.7587,-5.6482,-5.7376,-5.8416,-5.9549,-5.9149,-5.9805,-6.1317,-5.9661,-5.9071,-5.9433,-5.8652,-5.8014,-5.7623,-5.8003,-5.7745,-5.6899,-5.7336,-5.7495,-5.7446,-5.7427,-5.6213,-5.3784,-5.3784,-5.3974,-5.4316,-5.3119,-5.1866,-5.0688,0.0,0.0,0.0,0.0,0.0,0.0,0.0,0.0,0.0,0.0,0.0,-4.4787,-4.3748,-4.362,-4.4773,-4.5285,-4.6588,-4.9091,-5.0039,-4.9784,-4.8136,-5.1433,-5.3935,-5.4787,-5.6038,-5.727,-5.8483,-5.8976,-5.9734,-6.0966,-6.1136,-6.1629,-6.2747,-6.3012,-6.3334,-6.4073,-6.4263,-6.4434,-6.485,-6.4926,-6.4926,-6.4926,-6.4926,-6.4926,-6.4926,-6.4926,-6.4699,-6.432,-6.4263,-6.4415,-6.4794,-6.5076,-6.5252,-6.5295,-6.5494,-6.5512,-6.5173,-6.5216,-6.5153,-6.4839,-6.4784,-6.4921,-6.5469,-6.5566,-6.5566,-6.5624,-6.5915,-6.6011,-6.5663,-6.4928,-6.4309,-6.9873,-6.9873,-6.9873,-6.9114,-6.7788,-6.7087,-6.6006,-6.4756,0.0,0.0,0.0,-6.2078,-6.0798,-5.8375,-5.9688,-5.9174,-5.731,-5.7587,-5.8767,-6.0536,-5.987,-6.0917,-6.3245,-6.1133,-6.0392,-6.0817,-5.9555,-5.8764,-5.8539,-5.8691,-5.8755,-5.871,-5.8824,-5.9222,-5.9847,-5.9904,-5.8881,-5.6872,-5.5053,-5.4674,-5.5697,-5.4769,-5.3196,-5.1035,-5.1471,-5.0448,-4.7757,-4.7624,-4.7327,-4.667,-4.6011,-4.6082,-4.6992,-4.6916,-4.7296,-4.8193,-4.842,-4.9121,-5.0467,-5.0846,-5.1964,-5.42,-5.5754,-5.5754,-5.3669,-5.6038,-5.7687,-5.782,-5.8616,-5.9393,-6.0056,-6.0833,-6.1667,-6.2538,-6.2614,-6.2936,-6.3713,-6.3827,-6.4111,-6.4756,-6.4869,-6.4907,-6.4907,-6.4926,-6.4926,-6.4926,-6.4926,-6.4926,-6.4926,-6.4926,-6.4907,-6.4832,-6.4794,-6.4888,-6.4907,-6.4958,-6.4958,-6.5008,-6.5169,-6.5276,-6.5288,-6.5456,-6.5644,-6.5692,-6.5856,-6.6183,-6.6952,-6.6996,-6.7326,-6.7462,-6.8042,-6.8429,-6.781,-6.6766,-6.5857,-6.9873,-6.9873,-6.9873,-6.974,-6.9531,-6.9418,-6.9228,-6.8679,-6.4718,-6.2671,-6.2216,-6.1586,-6.1036,-6.0619,-6.0982,-6.0938,-6.071,-6.218,-6.2636,-6.2192,-6.2059,-6.1818,-6.1416,-6.0411,-5.9614,-5.9064,-5.8818,-5.8325,-5.7775,-5.8363,-5.8723,-5.8786,-5.9374,-5.9772,-5.9885,-5.9904,-5.9734,-5.9336,-5.7043,-5.5261,-5.4067,-5.2532,-5.1206,-5.0144,-4.9595,-4.9045,-4.8553,-4.8553,-4.8458,-4.837,-4.8238,-4.8901,-5.0353,-4.9811,-5.005,-5.1585,-5.24,-5.293,-5.3177,-5.4484,-5.5754,-5.6796,-5.7782,-5.818,-5.7876,-5.8237,-5.8786,-5.9468,-6.0226,-6.0795,-6.0966,-6.1724,-6.2538,-6.3296,-6.3448,-6.3789,-6.4585,-6.468,-6.4718,-6.4888,-6.4926,-6.4926,-6.4926,-6.4926,-6.4926,-6.4926,-6.5135,-6.5002,-6.5078,-6.4926,-6.4926,-6.4926,-6.4926,-6.4926,-6.4907,-6.5057,-6.5104,-6.515,-6.5337,-6.5485,-6.5475,-6.5542,-6.5616,-6.5644,-6.5801,-6.5996,-6.626,-6.6295,-6.6842,-6.7443,-6.7887,-6.8081,-6.8526,-6.8777,-6.9067,-6.9873,-6.9873,-6.9873,-6.9873,-6.9873,-6.9873,-6.9873,-6.9702,-6.7485,-6.595,-6.5097,-6.468,-6.3751,-6.2519,-6.2515,-6.1809,-6.0557,-6.0912,-6.131,-6.1695,-6.1297,-6.134,-6.1686,-6.0947,-6.0113,-5.9393,-5.9336,-5.9127,-5.8824,-5.9165,-5.9355,-5.9374,-5.9715,-5.9904,-5.9904,-5.9904,-5.9904,-5.9847,-5.835,-5.7194,-5.6398,-5.4787,-5.3707,-5.3309,-5.2513,-5.2059,-5.2059,-5.2059,-5.2059,-5.2059,-5.2059,-5.2419,-5.3139,-5.2836,-5.2949,-5.3707,-5.4124,-5.456,-5.5034,-5.6171,-5.7213,-5.8028,-5.8464,-5.8881,-5.9317,-5.9336,-5.9696,-6.0454,-6.089,-6.1496,-6.233,-6.2823,-6.3391,-6.4225,-6.432,-6.4471,-6.4813,-6.4926,-6.4926,-6.4926,-6.4926,-6.4926,-6.4926,-6.4926,-6.5116,-6.5457,-6.5912,-6.6234,-6.6234,-6.6215,-6.5893,-6.5135,-6.4926,-6.4926,-6.4926,-6.4993,-6.5042,-6.5023,-6.5213,-6.5367,-6.5416,-6.5456,-6.5589,-6.5616,-6.5776,-6.6112,-6.6439,-6.7181,-6.7731,-6.81,-6.9048,-6.9531,-6.9647,-7.0112,-7.0653,-6.9873,-6.9873,-6.9873,-6.9873,-6.9873,-6.9873,-6.9873,-6.9873,-6.9854,-6.9171,-6.8034,-6.7769,-6.6575,-6.4813,-6.4566,-6.341,-6.1667,-6.0738,-6.0966,-6.1799,-6.1117,-6.1345,-6.2273,-6.1705,-6.0966,-6.0245,-6.017,-6.0075,-5.9923,-5.9904,-5.9904,-5.9904,-5.9904,-5.9904,-5.9904,-5.9904,-5.9904,-5.9847,-5.9279,-5.8881,-5.8653,-5.7422,-5.6683,-5.6417,-5.5792,-5.5394,-5.5223,-5.5185,-5.511,-5.492,-5.4901,-5.4901,-5.492,-5.5091,-5.5204,-5.5204,-5.5375,-5.5849,-5.6683,-5.7327,-5.8066,-5.8881,-5.8957,-5.9298,-6.0056,-6.0151,-6.0397,-6.1003,-6.1458,-6.2254,-6.3315,-6.3789,-6.4187,-6.4832,-6.4926,-6.4888,-6.4907,-6.4926,-6.4926,-6.4926,-6.4926,-6.4926,-6.4926,-6.5059,-6.5533,-6.6329,-6.6992,-6.7352,-6.739,-6.739,-6.6783,-6.595,-6.5476,-6.5552,-6.5457,-6.5305,-6.5229,-6.5173,-6.5137,-6.5142,-6.5169,-6.5326,-6.5397,-6.5397,-6.5569,-6.5923,-6.6692,-6.7402,-6.7978,-6.8272,-6.9125,-6.9976,-6.9705,-7.0266,-7.104,-6.9873,-6.9873,-6.9873,-6.9873,-6.9854,-6.9854,-6.9835,-6.9854,-6.9873,-6.9835,-6.9512,-6.8849,-6.8375,-6.8053,-6.7314,-6.6746,-6.6442,-6.5779,-6.5021,-6.4415,-6.3676,-6.2974,-6.2482,-6.233,-6.1837,-6.106,-6.0966,-6.0568,-5.998,-5.9904,-5.9904,-5.9904,-5.9904,-5.9904,-5.9904,-5.9904,-5.9904,-5.9904,-5.9828,-5.943,-5.8729,-5.854,-5.8104,-5.7308,-5.7213,-5.6815,-5.6114,-5.6095,-5.5716,-5.4977,-5.4958,-5.4939,-5.5015,-5.5659,-5.6076,-5.6095,-5.6758,-5.7554,-5.8331,-5.854,-5.89,-5.9677,-5.9772,-6.0094,-6.0852,-6.1003,-6.1003,-6.1382,-6.2519,-6.3353,-6.3638,-6.4282,-6.4756,-6.4869,-6.4926,-6.4926,-6.4926,-6.4926,-6.4926,-6.4926,-6.4926,-6.4926,-6.5021,-6.5627,-6.6386,-6.7162,-6.7523,-6.7693,-6.7674,-6.7655,-6.7617,-6.7276,-6.7181,-6.7125,-6.6973,-6.6461,-6.6082,-6.595,-6.54,-6.5243,-6.5278,-6.5221,-6.5031,-6.5618,-6.5315,-6.5626,-6.5808,-6.6051,-6.6646,-6.7592,-6.8098,-6.8236,-6.8796,-6.957,-7.0286,-6.9873,-6.9873,-6.9873,-6.9588,-6.9152,-6.9133,-6.9133,-6.9171,-6.9683,-6.9873,-6.9854,-6.9512,-6.9361,-6.9323,-6.847,-6.811,-6.8053,-6.7238,-6.6404,-6.5627,-6.5229,-6.4396,-6.3202,-6.3126,-6.2671,-6.1856,-6.1345,-6.0909,-6.0586,-6.0132,-5.9904,-5.9904,-5.9904,-5.9904,-5.9904,-5.9904,-5.9904,-5.9904,-5.9904,-5.9734,-5.9393,-5.8919,-5.8521,-5.8161,-5.7668,-5.727,-5.6948,-5.691,-5.6758,-5.6417,-5.6379,-5.6379,-5.636,-5.672,-5.691,-5.6948,-5.7706,-5.8312,-5.8672,-5.9127,-5.9544,-5.9885,-6.034,-6.0757,-6.1098,-6.1989,-6.2595,-6.2671,-6.3221,-6.3789,-6.4301,-6.4699,-6.4926,-6.4926,-6.4926,-6.4926,-6.4926,-6.4926,-6.4926,-6.4926,-6.4926,-6.5097,-6.5684,-6.6765,-6.7636,-6.8148,-6.847,-6.8773,-6.883,-6.8868,-6.8868,-6.8868,-6.8868,-6.8394,-6.7674,-6.7162,-6.6897,-6.6821,-6.6613,-6.6386,-6.6291,-6.6367,-6.6386,-6.6329,-6.6102,-6.5963,-6.6159,-6.6317,-6.6667,-6.7282,-6.798,-6.841,-6.8738,-6.9048,-6.9609,-6.9873,-6.9873,-6.9873,-6.9399,-6.8622,-6.8603,-6.847,-6.8356,-6.8944,-6.9323,-6.9512,-6.9531,-6.955,-6.9475,-6.9096,-6.8944,-6.8849,-6.811,-6.7409,-6.6746,-6.6348,-6.5457,-6.4339,-6.4036,-6.3543,-6.2766,-6.2122,-6.1553,-6.1098,-6.053,-6.0132,-5.9923,-5.9904,-5.9904,-5.9904,-5.9904,-5.9904,-5.9904,-5.9904,-5.9904,-5.9809,-5.9317,-5.9014,-5.8976,-5.8426,-5.799,-5.7763,-5.7744,-5.763,-5.7403,-5.7403,-5.7403,-5.7422,-5.7611,-5.7858,-5.8085,-5.8653,-5.9014,-5.9033,-5.9563,-5.998,-6.0245,-6.0776,-6.1307,-6.1875,-6.2917,-6.3676,-6.3941,-6.3979,-6.4282,-6.4756,-6.4926,-6.4926,-6.4926,-6.4926,-6.4926,-6.4926,-6.4926,-6.4926,-6.4926,-6.4926,-6.5324,-6.6386,-6.7636,-6.8584,-6.8944,-6.9456,-6.9873,-6.9873,-6.9816,-6.9816,-6.9873,-6.9854,-6.9418,-6.83,-6.7864,-6.7788,-6.7655,-6.7523,-6.7238,-6.739,-6.7371,-6.7352,-6.6877,-6.6825,-6.6826,-6.6866,-6.7014,-6.6978,-6.7276,-6.7853,-6.8311,-6.7907,-6.8236,-6.8777,-6.9873,-6.9873,-6.9873,-6.938,-6.8603,-6.8565,-6.8148,-6.7523,-6.756,-6.7977,-6.8622,-6.866,-6.866,-6.8698,-6.9285,-6.9778,-6.9664,-6.8849,-6.8394,-6.8129,-6.6859,-6.6101,-6.595,-6.5211,-6.4415,-6.3694,-6.3372,-6.2576,-6.1231,-6.1041,-6.0662,-5.9961,-5.9923,-5.9904,-5.9904,-5.9942,-5.9923,-5.998,-5.998,-5.9942,-5.9923,-5.9866,-5.9791,-5.9753,-5.9772,-5.9336,-5.8748,-5.8635,-5.8274,-5.746,-5.7516,-5.7479,-5.7516,-5.8199,-5.8957,-5.9601,-5.9772,-5.9809,-5.9791,-5.9904,-6.0226,-6.0871,-6.1174,-6.178,-6.3088,-6.3543,-6.4017,-6.4737,-6.4737,-6.4813,-6.4888,-6.4926,-6.4926,-6.4926,-6.4926,-6.4926,-6.4926,-6.4926,-6.4926,-6.5002,-6.5173,-6.5874,-6.7181,-6.8072,-6.8963,-6.9512,-6.9835,-6.9873,-6.9873,-6.9873,-6.9873,-6.9873,-6.9873,-6.9835,-6.9664,-6.9039,-6.8603,-6.8489,-6.8167,-6.7579,-6.7428,-6.7371,-6.7466,-6.7466,-6.7482,-6.7512,-6.7593,-6.756,-6.7419,-6.7472,-6.7575,-6.7669,-6.7692,-6.7462,-6.8081,-6.9873,-6.9835,-6.9285,-6.8887,-6.8565,-6.8053,-6.7655,-6.739,-6.739,-6.756,-6.7788,-6.7826,-6.7826,-6.7864,-6.8148,-6.8584,-6.9001,-6.8735,-6.8319,-6.7883,-6.7731,-6.7125,-6.612,-6.5779,-6.5552,-6.5116,-6.413,-6.305,-6.1989,-6.1401,-6.0966,-6.0605,-6.0132,-5.9904,-5.998,-6.0397,-6.0662,-6.0662,-6.0662,-6.0662,-6.0605,-6.017,-5.9904,-5.9904,-5.9904,-5.9772,-5.9468,-5.9449,-5.9317,-5.9014,-5.8995,-5.8995,-5.9014,-5.9298,-5.9582,-5.9847,-5.9904,-5.9904,-5.9942,-6.0378,-6.0776,-6.1098,-6.2122,-6.288,-6.3562,-6.4111,-6.4585,-6.4832,-6.4926,-6.4926,-6.4926,-6.4926,-6.4926,-6.4926,-6.4926,-6.4926,-6.4926,-6.4926,-6.5078,-6.5684,-6.6518,-6.7579,-6.8015,-6.8906,-6.9531,-6.9816,-6.9873,-6.9873,-6.9873,-6.9873,-6.9873,-6.9873,-6.9873,-6.9873,-6.9873,-6.9683,-6.9418,-6.938,-6.9171,-6.9058,-6.8906,-6.8792,-6.8849,-6.8679,-6.8508,-6.8223,-6.8327,-6.8098,-6.7947,-6.7899,-6.7961,-6.805,-6.7924,-6.7965,-6.8545,-6.9873,-6.9797,-6.9266,-6.8849,-6.8527,-6.8034,-6.7466,-6.7049,-6.6973,-6.6992,-6.6973,-6.6973,-6.6973,-6.6992,-6.6992,-6.7257,-6.7807,-6.8053,-6.7921,-6.7447,-6.7674,-6.72,-6.6234,-6.5836,-6.5722,-6.5552,-6.4604,-6.3619,-6.2823,-6.2216,-6.1629,-6.106,-6.0776,-6.0549,-6.0473,-6.1098,-6.1515,-6.1515,-6.1515,-6.1534,-6.142,-6.0719,-6.0264,-6.0245,-6.0018,-5.9904,-5.9904,-5.9904,-5.9904,-5.9904,-5.9904,-5.9904,-5.9904,-5.9904,-5.9904,-5.9904,-5.9904,-6.0018,-6.0302,-6.0795,-6.1326,-6.1894,-6.2899,-6.3694,-6.3998,-6.4585,-6.4869,-6.4926,-6.4926,-6.4926,-6.4926,-6.4926,-6.4926,-6.4926,-6.4926,-6.5021,-6.5248,-6.5286,-6.5684,-6.6499,-6.7636,-6.8432,-6.8698,-6.938,-6.9778,-6.9873,-6.9873,-6.9873,-6.9873,-6.9873,-6.9873,-6.9873,-6.9873,-6.9873,-6.9873,-6.9778,-6.9702,-6.9683,-6.9664,-6.9816,-6.9873,-6.9873,-6.9854,-6.9778,-6.955,-6.9171,-6.8903,-6.8666,-6.8578,-6.8521,-6.8641,-6.881,-6.8729,-6.8661,-6.9183,-6.9873,-6.9873,-6.9873,-6.9361,-6.8754,-6.8546,-6.7636,-6.6461,-6.6215,-6.6196,-6.6139,-6.6101,-6.6101,-6.6101,-6.6101,-6.6139,-6.6329,-6.6935,-6.7276,-6.7219,-6.667,-6.6348,-6.6063,-6.5476,-6.5097,-6.504,-6.4907,-6.4434,-6.3638,-6.3391,-6.2652,-6.1591,-6.1913,-6.1761,-6.1117,-6.1951,-6.2406,-6.2406,-6.2387,-6.2406,-6.2311,-6.1572,-6.1098,-6.1022,-6.0397,-5.9999,-5.9961,-5.9923,-5.9904,-5.9904,-5.9904,-5.9904,-5.9904,-5.9904,-5.9904,-5.9904,-5.9923,-6.0321,-6.0947,-6.1193,-6.2065,-6.305,-6.36,-6.4036,-6.4623,-6.485,-6.4926,-6.4926,-6.4926,-6.4926,-6.4926,-6.5002,-6.5002,-6.4926,-6.4983,-6.5343,-6.5836,-6.612,-6.6461,-6.7333,-6.8224,-6.8603,-6.8792,-6.938,-6.9873,-6.9873,-6.9873,-6.9873,-6.9873,-6.9873,-6.9873,-6.9873,-6.9873,-6.9873,-6.9873,-6.9873,-6.9873,-6.9854,-6.9835,-6.9873,-6.9873,-6.9873,-6.9873,-6.9816,-6.9816,-6.9493,-6.9512,-6.9334,-6.9423,-6.9429,-6.9528,-6.9591,-6.9598,-6.9589,-6.9628,-6.9873,-6.9873,-6.9873,-6.9759,-6.9418,-6.8849,-6.7958,-6.6973,-6.6386,-6.5798,-6.5362,-6.5267,-6.5286,-6.5286,-6.5286,-6.5286,-6.5305,-6.559,-6.5969,-6.6461,-6.6802,-6.6594,-6.612,-6.5836,-6.5438,-6.5002,-6.4926,-6.4775,-6.4434,-6.3922,-6.3259,-6.2899,-6.2519,-6.2273,-6.2046,-6.2804,-6.3221,-6.324,-6.3221,-6.3221,-6.3164,-6.2425,-6.2008,-6.1913,-6.1174,-6.0719,-6.07,-6.0189,-5.9904,-5.9904,-5.9904,-5.9904,-5.9904,-5.9904,-5.9904,-5.9942,-6.0435,-6.0776,-6.1193,-6.2159,-6.2974,-6.3619,-6.4149,-6.4566,-6.485,-6.4926,-6.4926,-6.4926,-6.4926,-6.4926,-6.4983,-6.5438,-6.5457,-6.4983,-6.54,-6.5836,-6.6291,-6.7125,-6.7864,-6.8224,-6.8963,-6.9418,-6.9493,-6.9835,-6.9873,-6.9873,-6.9873,-6.9873,-6.9873,-6.9873,-6.9873,-6.9873,-6.9873,-6.9873,-6.9873,-6.9873,-6.9873,-6.9873,-6.9873,-6.9873,-6.9873,-6.9873,-6.9873,-6.9873,-6.9873,-6.991,-6.991,-6.9944,-6.9942,-7.0152,-7.0201,-7.0311,-7.0471,-7.0498,-7.044,-6.9873,-6.9873,-6.9873,-6.9873,-6.9778,-6.8963,-6.8148,-6.7333,-6.648,-6.5646,-6.5021,-6.4926,-6.4926,-6.4926,-6.4926,-6.4926,-6.4926,-6.4926,-6.5192,-6.5665,-6.6158,-6.6139,-6.5684,-6.5665,-6.5438,-6.5021,-6.4926,-6.4926,-6.4888,-6.4358,-6.3922,-6.3562,-6.341,-6.3145,-6.2974,-6.3638,-6.4092,-6.4092,-6.4092,-6.4092,-6.3922,-6.3278,-6.2861,-6.2747,-6.2027,-6.161,-6.1515,-6.0776,-6.0189,-5.9961,-5.9904,-5.9904,-5.9904,-6.0151,-6.034,-6.0473,-6.1079,-6.1705,-6.2084,-6.2974,-6.377,-6.4111,-6.4604,-6.4888,-6.4926,-6.4926,-6.4926,-6.4926,-6.4926,-6.4926,-6.5021,-6.5609,-6.5798,-6.5438,-6.612,-6.667,-6.7106,-6.8243,-6.8982,-6.919,-6.955,-6.9816,-6.9873,-6.9873,-6.9873,-6.9873,-6.9873,-6.9873,-6.9873,-6.9873,-6.9873,-6.9873,-6.9873,-6.9873,-6.9873,-6.9873,-6.9873,-6.9873,-6.9873,-6.9873,-6.9873,-6.9873,-6.9873,-6.9873,-6.9873,-7.0003,-6.9984,-7.0057,-7.008,-7.0407,-7.0671,-7.076,-7.0787,-7.0999,-7.1001,-6.9873,-6.9873,-6.9873,-6.9835,-6.9664,-6.8925,-6.8053,-6.7219,-6.6461,-6.5646,-6.5021,-6.4926,-6.4926,-6.4926,-6.4926,-6.4926,-6.4926,-6.4926,-6.4926,-6.5002,-6.5116,-6.5097,-6.5059,-6.5059,-6.5002,-6.4926,-6.4926,-6.4926,-6.4907,-6.4813,-6.449,-6.3884,-6.4358,-6.4471,-6.3941,-6.4528,-6.4813,-6.4775,-6.4813,-6.4813,-6.4794,-6.4111,-6.3694,-6.3638,-6.2899,-6.2463,-6.2349,-6.1648,-6.0814,-6.0113,-6.0075,-6.0132,-6.0207,-6.0776,-6.1155,-6.1212,-6.1989,-6.2728,-6.3372,-6.3676,-6.4073,-6.4699,-6.4832,-6.4926,-6.4926,-6.4926,-6.4926,-6.4926,-6.4926,-6.4926,-6.504,-6.5779,-6.6234,-6.6461,-6.7106,-6.7731,-6.8565,-6.9361,-6.9645,-6.9778,-6.9873,-6.9873,-6.9873,-6.9873,-6.9873,-6.9873,-6.9873,-6.9873,-6.9873,-6.9873,-6.9873,-6.9873,-6.9873,-6.9873,-6.9873,-6.9873,-6.9873,-6.9873,-6.9873,-6.9873,-6.9873,-6.9873,-6.9873,-6.9873,-6.991,-6.9984,-7.0038,-7.0038,-7.0194,-7.0489,-7.07,-7.0906,-7.1062,-7.1224,-7.1291,-6.9873,-6.9873,-6.9873,-6.9531,-6.8963,-6.8679,-6.775,-6.6518,-6.6234,-6.5609,-6.504,-6.4926,-6.4926,-6.4926,-6.4926,-6.4926,-6.4926,-6.4926,-6.4926,-6.4926,-6.4926,-6.4926,-6.4926,-6.4926,-6.4926,-6.4926,-6.4926,-6.4926,-6.4926,-6.4926,-6.4756,-6.4585,-6.4737,-6.4813,-6.4661,-6.4775,-6.4907,-6.4926,-6.4926,-6.4926,-6.4888,-6.4699,-6.4566,-6.449,-6.3751,-6.3315,-6.3221,-6.2501,-6.1667,-6.0871,-6.0776,-6.1098,-6.161,-6.1913,-6.2065,-6.2178,-6.2804,-6.3353,-6.3694,-6.4206,-6.4661,-6.485,-6.4926,-6.4926,-6.4926,-6.4926,-6.4926,-6.4926,-6.4926,-6.4926,-6.5135,-6.6177,-6.7371,-6.8622,-6.8508,-6.8584,-6.9304,-6.9721,-6.9873,-6.9873,-6.9873,-6.9873,-6.9873,-6.9873,-6.9873,-6.9873,-6.9873,-6.9873,-6.9873,-6.9873,-6.9873,-6.9873,-6.9873,-6.9873,-6.9873,-6.9873,-6.9873,-6.9873,-6.9873,-6.9873,-6.9873,-6.9873,-6.9873,-6.9873,-6.9873,-6.9966,-6.9985,-6.9948,-7.0247,-7.0501,-7.07,-7.086,-7.1111,-7.1291,-7.1291,-6.9342,-6.9304,-6.8982,-6.8546,-6.8053,-6.7712,-6.6992,-6.6158,-6.5722,-6.5381,-6.4983,-6.4926,-6.4926,-6.4926,-6.4926,-6.4926,-6.4926,-6.4926,-6.4926,-6.4964,-6.5267,-6.5229,-6.5021,-6.4926,-6.4926,-6.4926,-6.4926,-6.4926,-6.4926,-6.4926,-6.4926,-6.4888,-6.4926,-6.4926,-6.4888,-6.4926,-6.4926,-6.4926,-6.4926,-6.4926,-6.4926,-6.4926,-6.4907,-6.4832,-6.4377,-6.4036,-6.3619,-6.3145,-6.2519,-6.1837,-6.1667,-6.1894,-6.2368,-6.2766,-6.2899,-6.2955,-6.3676,-6.4149,-6.4225,-6.4661,-6.4888,-6.4926,-6.4926,-6.4926,-6.4926,-6.4926,-6.4926,-6.4926,-6.4926,-6.4926,-6.5192,-6.6404,-6.8072,-6.9361,-6.9437,-6.9342,-6.9854,-6.9854,-6.9873,-6.9873,-6.9873,-6.9873,-6.9873,-6.9873,-6.9873,-6.9873,-6.9873,-6.9873,-6.9873,-6.9873,-6.9873,-6.9873,-6.9873,-6.9873,-6.9873,-6.9873,-6.9873,-6.9873,-6.9873,-6.9873,-6.9873,-6.9873,-6.9873,-6.9873,-6.9873,-6.991,-6.9948,-7.0003,-7.016,-7.0407,-7.0582,-7.0777,-7.0992,-7.1291,-7.1291,-6.847,-6.8413,-6.7693,-6.7352,-6.7162,-6.6461,-6.612,-6.5836,-6.5267,-6.4964,-6.4926,-6.4926,-6.5002,-6.5021,-6.5002,-6.4964,-6.5059,-6.4983,-6.4926,-6.5192,-6.5646,-6.5893,-6.5229,-6.5419,-6.5211,-6.5021,-6.4964,-6.4983,-6.4945,-6.4926,-6.4926,-6.4926,-6.4926,-6.4926,-6.4926,-6.4926,-6.4926,-6.4926,-6.4926,-6.4926,-6.4926,-6.4926,-6.4926,-6.4888,-6.485,-6.4471,-6.4017,-6.3713,-6.3429,-6.2728,-6.2595,-6.2633,-6.2766,-6.3448,-6.3694,-6.3827,-6.4377,-6.4794,-6.485,-6.485,-6.4926,-6.4926,-6.4926,-6.4926,-6.4926,-6.4926,-6.4926,-6.4926,-6.4926,-6.5078,-6.5571,-6.6651,-6.8072,-6.9456,-6.9835,-6.9873,-6.9873,-6.9873,-6.9873,-6.9873,-6.9873,-6.9873,-6.9873,-6.9873,-6.9873,-6.9873,-6.9873,-6.9873,-6.9873,-6.9873,-6.9873,-6.9873,-6.9873,-6.9873,-6.9873,-6.9873,-6.9873,-6.9873,-6.9873,-6.9873,-6.9873,-6.9873,-6.9873,-6.9873,-6.9873,-6.9929,-7.002,-7.009,-7.0141,-7.0291,-7.0501,-7.0642,-7.0805,-7.1159,-7.1291,-6.7655,-6.7636,-6.7466,-6.6992,-6.6404,-6.6177,-6.5741,-6.5192,-6.5002,-6.4926,-6.4926,-6.4926,-6.5267,-6.5798,-6.5267,-6.5229,-6.5665,-6.5286,-6.4926,-6.5097,-6.6499,-6.6556,-6.6158,-6.6442,-6.6082,-6.5419,-6.559,-6.5476,-6.5078,-6.4926,-6.4926,-6.4926,-6.4926,-6.4926,-6.4926,-6.4926,-6.4926,-6.4926,-6.4926,-6.4926,-6.4926,-6.4926,-6.4926,-6.4926,-6.4926,-6.485,-6.4699,-6.4623,-6.4528,-6.4263,-6.3789,-6.36,-6.4111,-6.4415,-6.4528,-6.4566,-6.4718,-6.4926,-6.4926,-6.4926,-6.4926,-6.4926,-6.4926,-6.4926,-6.4926,-6.4926,-6.4926,-6.4926,-6.4945,-6.5419,-6.6518,-6.7087,-6.8224,-6.9399,-6.9873,-6.9873,-6.9873,-6.9873,-6.9873,-6.9873,-6.9873,-6.9873,-6.9873,-6.9873,-6.9873,-6.9873,-6.9873,-6.9873,-6.9873,-6.9873,-6.9873,-6.9873,-6.9873,-6.9873,-6.9873,-6.9873,-6.9873,-6.9873,-6.9873,-6.9873,-6.9873,-6.9873,-6.9873,-6.9873,-6.9873,-6.9966,-7.002,-6.9984,-7.002,-7.0228,-7.0439,-7.0593,-7.0785,-7.1091,-7.1291,-6.6802,-6.6746,-6.6386,-6.5969,-6.5571,-6.5533,-6.5286,-6.4964,-6.4926,-6.5116,-6.5419,-6.5457,-6.5722,-6.6063,-6.5703,-6.5741,-6.6044,-6.6158,-6.6101,-6.6386,-6.7371,-6.7466,-6.703,-6.7352,-6.7106,-6.576,-6.5855,-6.5627,-6.5097,-6.4926,-6.4926,-6.4926,-6.4926,-6.4926,-6.4926,-6.4926,-6.4926,-6.4926,-6.4926,-6.4926,-6.4926,-6.4926,-6.4926,-6.4926,-6.4926,-6.4926,-6.4888,-6.4888,-6.4907,-6.4775,-6.4471,-6.4377,-6.4775,-6.4926,-6.4926,-6.4926,-6.4926,-6.4926,-6.4926,-6.4926,-6.4926,-6.4926,-6.4926,-6.4926,-6.4926,-6.4926,-6.4926,-6.4926,-6.5059,-6.5571,-6.7125,-6.7371,-6.8224,-6.9418,-6.9873,-6.9873,-6.9873,-6.9873,-6.9873,-6.9873,-6.9873,-6.9873,-6.9873,-6.9873,-6.9873,-6.9873,-6.9873,-6.9873,-6.9873,-6.9873,-6.9873,-6.9873,-6.9873,-6.9873,-6.9873,-6.9873,-6.9873,-6.9873,-6.9873,-6.9873,-6.9873,-6.9873,-6.9873,-6.9873,-6.9873,-6.9873,-6.9948,-6.9929,-6.9929,-7.0076,-7.0247,-7.0501,-7.0738,-7.0966,-7.1159,-6.5912,-6.5874,-6.5192,-6.4926,-6.4926,-6.5059,-6.5173,-6.5135,-6.5248,-6.5798,-6.6196,-6.6291,-6.6442,-6.6499,-6.6386,-6.631,-6.6537,-6.7106,-6.7352,-6.6954,-6.7939,-6.775,-6.739,-6.756,-6.7466,-6.6234,-6.6101,-6.5665,-6.5097,-6.4926,-6.4926,-6.4926,-6.4926,-6.4926,-6.4926,-6.4926,-6.4926,-6.4926,-6.4926,-6.4926,-6.4926,-6.4926,-6.4926,-6.4926,-6.4926,-6.4926,-6.4926,-6.4926,-6.4926,-6.4926,-6.4926,-6.4926,-6.4926,-6.4926,-6.4926,-6.4926,-6.4926,-6.4926,-6.4926,-6.4926,-6.4926,-6.4926,-6.4926,-6.4926,-6.4926,-6.4926,-6.4926,-6.4926,-6.504,-6.5571,-6.7106,-6.739,-6.8224,-6.9418,-6.9873,-6.9873,-6.9873,-6.9873,-6.9873,-6.9873,-6.9873,-6.9873,-6.9873,-6.9873,-6.9873,-6.9873,-6.9873,-6.9873,-6.9873,-6.9873,-6.9873,-6.9873,-6.9873,-6.9873,-6.9873,-6.9873,-6.9873,-6.9873,-6.9873,-6.9873,-6.9873,-6.9873,-6.9873,-6.9873,-6.9873,-6.9873,-6.9873,-6.9891,-6.9929,-6.991,-7.0092,-7.0375,-7.0593,-7.0832,-7.1037,-6.5097,-6.5097,-6.4964,-6.4926,-6.504,-6.5609,-6.5912,-6.6025,-6.6594,-6.7049,-6.7144,-6.72,-6.7542,-6.7807,-6.7409,-6.72,-6.7371,-6.7883,-6.7693,-6.703,-6.7788,-6.7807,-6.6973,-6.72,-6.7011,-6.6386,-6.6025,-6.5571,-6.5078,-6.4926,-6.4926,-6.4926,-6.4926,-6.4926,-6.4926,-6.4926,-6.4926,-6.4926,-6.4926,-6.4926,-6.4926,-6.4926,-6.4926,-6.4926,-6.4926,-6.4926,-6.4926,-6.4926,-6.4926,-6.4926,-6.4926,-6.4926,-6.4926,-6.4926,-6.4926,-6.4926,-6.4926,-6.4926,-6.4926,-6.4926,-6.4926,-6.4926,-6.4926,-6.4926,-6.4926,-6.4926,-6.4926,-6.4926,-6.504,-6.5571,-6.7181,-6.739,-6.8205,-6.9323,-6.9873,-6.9873,-6.9873,-6.9873,-6.9873,-6.9873,-6.9873,-6.9873,-6.9873,-6.9873,-6.9873,-6.9873,-6.9873,-6.9873,-6.9873,-6.9873,-6.9873,-6.9873,-6.9873,-6.9873,-6.9873,-6.9873,-6.9873,-6.9873,-6.9873,-6.9873,-6.9873,-6.9873,-6.9873,-6.9873,-6.9873,-6.9873,-6.9873,-6.9873,-6.9873,-6.991,-7.0073,-7.0276,-7.0532,-7.0805,-7.1037,-6.5931,-6.5571,-6.5988,-6.6196,-6.6272,-6.6594,-6.6765,-6.684,-6.7219,-6.7636,-6.7921,-6.8034,-6.8224,-6.8432,-6.8243,-6.8015,-6.8129,-6.8337,-6.811,-6.7655,-6.775,-6.7674,-6.6632,-6.6802,-6.648,-6.6063,-6.5703,-6.5343,-6.4945,-6.4926,-6.4926,-6.4926,-6.4926,-6.4926,-6.4926,-6.4926,-6.4926,-6.4926,-6.4926,-6.4926,-6.4926,-6.4926,-6.4926,-6.4926,-6.4926,-6.4926,-6.4926,-6.4926,-6.4926,-6.4926,-6.4926,-6.4926,-6.4926,-6.4926,-6.4926,-6.4926,-6.4926,-6.4926,-6.4926,-6.4926,-6.4926,-6.4926,-6.4926,-6.4926,-6.4926,-6.4926,-6.4926,-6.4926,-6.4964,-6.559,-6.72,-6.7352,-6.8224,-6.9437,-6.9873,-6.9873,-6.9873,-6.9873,-6.9873,-6.9873,-6.9873,-6.9873,-6.9873,-6.9873,-6.9873,-6.9873,-6.9873,-6.9873,-6.9873,-6.9873,-6.9873,-6.9873,-6.9873,-6.9873,-6.9873,-6.9873,-6.9873,-6.9873,-6.9873,-6.9873,-6.9873,-6.9873,-6.9873,-6.9873,-6.9873,-6.9873,-6.9873,-6.9873,-6.9873,-6.9873,-7.002,-7.0179,-7.047,-7.0757,-7.0992,-6.6992,-6.6423,-6.7106,-6.739,-6.7409,-6.7579,-6.7636,-6.7655,-6.7864,-6.8319,-6.8792,-6.8849,-6.8868,-6.8868,-6.8849,-6.8792,-6.8641,-6.8603,-6.8319,-6.7712,-6.7352,-6.7068,-6.6689,-6.6329,-6.5817,-6.5665,-6.5305,-6.4926,-6.4926,-6.4926,-6.4926,-6.4926,-6.4926,-6.4926,-6.4926,-6.4926,-6.4926,-6.4926,-6.4926,-6.4926,-6.4926,-6.4926,-6.4926,-6.4926,-6.4926,-6.4926,-6.4926,-6.4926,-6.4926,-6.4926,-6.4926,-6.4926,-6.4926,-6.4926,-6.4926,-6.4926,-6.4926,-6.4926,-6.4926,-6.4926,-6.4926,-6.4926,-6.4926,-6.4926,-6.4926,-6.4926,-6.4926,-6.4926,-6.4945,-6.5609,-6.7049,-6.7371,-6.8243,-6.938,-6.9873,-6.9873,-6.9873,-6.9873,-6.9873,-6.9873,-6.9873,-6.9873,-6.9873,-6.9873,-6.9873,-6.9873,-6.9873,-6.9873,-6.9873,-6.9873,-6.9873,-6.9873,-6.9873,-6.9873,-6.9873,-6.9873,-6.9873,-6.9873,-6.9873,-6.9873,-6.9873,-6.9873,-6.9873,-6.9873,-6.9873,-6.9873,-6.9873,-6.9873,-6.9873,-6.991,-6.991,-7.0128,-7.047,-7.0757,-7.0966,-6.7352,-6.7257,-6.739,-6.739,-6.756,-6.8186,-6.8451,-6.8565,-6.9171,-6.9626,-6.9626,-6.9683,-6.9645,-6.9531,-6.9512,-6.919,-6.8735,-6.8319,-6.7712,-6.6802,-6.6404,-6.5969,-6.5381,-6.5154,-6.5192,-6.5211,-6.5002,-6.4926,-6.4926,-6.4926,-6.4926,-6.4926,-6.4926,-6.4926,-6.4926,-6.4926,-6.4926,-6.4926,-6.4926,-6.4926,-6.4926,-6.4926,-6.4926,-6.4926,-6.4926,-6.4926,-6.4926,-6.4926,-6.4926,-6.4926,-6.4926,-6.4926,-6.4926,-6.4926,-6.4926,-6.4926,-6.4926,-6.4926,-6.4926,-6.4926,-6.4926,-6.4926,-6.4926,-6.4926,-6.4926,-6.4926,-6.4926,-6.4926,-6.4926,-6.5684,-6.6973,-6.7352,-6.83,-6.919,-6.9873,-6.9873,-6.9873,-6.9873,-6.9873,-6.9873,-6.9873,-6.9873,-6.9873,-6.9873,-6.9873,-6.9873,-6.9873,-6.9873,-6.9873,-6.9873,-6.9873,-6.9873,-6.9873,-6.9873,-6.9873,-6.9873,-6.9873,-6.9873,-6.9873,-6.9873,-6.9873,-6.9873,-6.9873,-6.9873,-6.9873,-6.9873,-6.9873,-6.9873,-6.9873,-6.9948,-7.0003,-7.0228,-7.0532,-7.0738,-7.0985,-6.8527,-6.811,-6.8603,-6.8811,-6.8849,-6.9209,-6.9342,-6.9399,-6.9702,-6.9873,-6.9873,-6.9873,-6.9645,-6.919,-6.8735,-6.8262,-6.7864,-6.7466,-6.6878,-6.6101,-6.5665,-6.5267,-6.504,-6.4926,-6.4926,-6.4926,-6.4926,-6.4926,-6.4926,-6.4926,-6.4926,-6.4926,-6.4926,-6.4926,-6.4926,-6.4926,-6.4926,-6.4926,-6.4926,-6.4926,-6.4926,-6.4926,-6.4926,-6.4926,-6.4926,-6.4926,-6.4926,-6.4926,-6.4926,-6.4926,-6.4926,-6.4926,-6.4926,-6.4926,-6.4926,-6.4926,-6.4926,-6.4926,-6.4926,-6.4926,-6.4926,-6.4926,-6.4926,-6.4926,-6.4926,-6.4926,-6.4926,-6.4926,-6.4926,-6.5722,-6.6973,-6.7352,-6.8375,-6.9266,-6.9854,-6.9873,-6.9873,-6.9873,-6.9873,-6.9873,-6.9873,-6.9873,-6.9873,-6.9873,-6.9873,-6.9873,-6.9873,-6.9873,-6.9873,-6.9873,-6.9873,-6.9873,-6.9873,-6.9873,-6.9873,-6.9873,-6.9873,-6.9873,-6.9873,-6.9873,-6.9873,-6.9873,-6.9873,-6.9873,-6.9873,-6.9873,-6.9873,-6.9873,-6.9873,-6.9966,-7.0057,-7.0276,-7.0543,-7.0832,-7.1037,-6.8868,-6.8413,-6.9456,-6.9873,-6.9873,-6.9873,-6.974,-6.955,-6.9531,-6.9437,-6.9304,-6.9171,-6.883,-6.8337,-6.775,-6.739,-6.703,-6.6386,-6.6006,-6.5646,-6.5286,-6.4983,-6.4926,-6.4926,-6.4926,-6.4926,-6.4926,-6.4926,-6.4926,-6.4926,-6.4926,-6.4926,-6.4926,-6.4926,-6.4926,-6.4926,-6.4926,-6.4926,-6.4926,-6.4926,-6.4926,-6.4926,-6.4926,-6.4926,-6.4926,-6.4926,-6.4926,-6.4926,-6.4926,-6.4926,-6.4926,-6.4926,-6.4926,-6.4926,-6.4926,-6.4926,-6.4926,-6.4926,-6.4926,-6.4926,-6.4926,-6.4926,-6.4926,-6.4926,-6.4926,-6.4926,-6.4926,-6.4926,-6.4926,-6.5798,-6.6916,-6.7371,-6.83,-6.919,-6.9873,-6.9873,-6.9873,-6.9873,-6.9873,-6.9873,-6.9873,-6.9873,-6.9873,-6.9873,-6.9873,-6.9873,-6.9873,-6.9873,-6.9873,-6.9873,-6.9873,-6.9873,-6.9873,-6.9873,-6.9873,-6.9873,-6.9873,-6.9873,-6.9873,-6.9873,-6.9873,-6.9873,-6.9873,-6.9873,-6.9873,-6.9873,-6.9873,-6.9873,-6.9873,-6.9966,-7.0057,-7.0276,-7.0563,-7.0832,-7.1081,-6.7542,-6.7598,-6.9171,-6.9759,-6.9778,-6.9873,-6.9399,-6.8716,-6.8698,-6.8319,-6.7845,-6.7598,-6.7617,-6.7428,-6.72,-6.6765,-6.6177,-6.612,-6.5665,-6.5211,-6.4926,-6.4926,-6.4926,-6.4926,-6.4926,-6.4926,-6.4926,-6.4926,-6.4926,-6.4926,-6.4926,-6.4926,-6.4926,-6.4926,-6.4926,-6.4926,-6.4926,-6.4926,-6.4926,-6.4926,-6.4926,-6.4926,-6.4926,-6.4926,-6.4926,-6.4926,-6.4926,-6.4926,-6.4926,-6.4926,-6.4926,-6.4926,-6.4926,-6.4926,-6.4926,-6.4926,-6.4926,-6.4926,-6.4926,-6.4926,-6.4926,-6.4926,-6.4926,-6.4926,-6.4926,-6.4926,-6.4926,-6.4926,-6.4926,-6.5722,-6.6765,-6.7542,-6.8224,-6.9266,-6.9873,-6.9873,-6.9873,-6.9873,-6.9873,-6.9873,-6.9873,-6.9873,-6.9873,-6.9873,-6.9873,-6.9873,-6.9873,-6.9873,-6.9873,-6.9873,-6.9873,-6.9873,-6.9873,-6.9873,-6.9873,-6.9873,-6.9873,-6.9873,-6.9873,-6.9873,-6.9873,-6.9873,-6.9873,-6.9873,-6.9873,-6.9873,-6.9873,-6.9873,-6.991,-6.9948,-7.0092,-7.031,-7.0633,-7.0966,-7.1135,-6.6613,-6.6632,-6.6783,-6.7409,-6.8337,-6.8356,-6.8167,-6.7902,-6.7864,-6.7712,-6.7314,-6.6878,-6.6613,-6.6499,-6.6025,-6.5722,-6.5381,-6.5362,-6.5135,-6.5021,-6.4926,-6.4926,-6.4926,-6.4926,-6.4926,-6.4926,-6.4926,-6.4926,-6.4926,-6.4926,-6.4926,-6.4926,-6.4926,-6.4926,-6.4926,-6.4926,-6.4926,-6.4926,-6.4926,-6.4926,-6.4926,-6.4926,-6.4926,-6.4926,-6.4926,-6.4926,-6.4926,-6.4926,-6.4926,-6.4926,-6.4926,-6.4926,-6.4926,-6.4926,-6.4926,-6.4926,-6.4926,-6.4926,-6.4926,-6.4926,-6.4926,-6.4926,-6.4926,-6.4926,-6.4926,-6.4926,-6.4926,-6.4926,-6.4983,-6.5741,-6.703,-6.7466,-6.7996,-6.9266,-6.9873,-6.9873,-6.9873,-6.9873,-6.9873,-6.9873,-6.9873,-6.9873,-6.9873,-6.9873,-6.9873,-6.9873,-6.9873,-6.9873,-6.9873,-6.9873,-6.9873,-6.9873,-6.9873,-6.9873,-6.9873,-6.9873,-6.9873,-6.9873,-6.9873,-6.9873,-6.9873,-6.9873,-6.9873,-6.9873,-6.9873,-6.9873,-6.9873,-6.9873,-6.991,-6.991,-7.0128,-7.0375,-7.071,-7.1067,-7.1205,-6.5002,-6.4945,-6.4396,-6.5419,-6.7238,-6.7125,-6.703,-6.7011,-6.7011,-6.684,-6.6632,-6.6006,-6.5741,-6.5571,-6.5248,-6.4983,-6.5002,-6.4983,-6.4945,-6.4926,-6.4926,-6.4926,-6.4926,-6.4926,-6.4926,-6.4926,-6.4926,-6.4926,-6.4926,-6.4926,-6.4926,-6.4926,-6.4926,-6.4926,-6.4926,-6.4926,-6.4926,-6.4926,-6.4926,-6.4926,-6.4926,-6.4926,-6.4926,-6.4926,-6.4926,-6.4926,-6.4926,-6.4926,-6.4926,-6.4926,-6.4926,-6.4926,-6.4926,-6.4926,-6.4926,-6.4926,-6.4926,-6.4926,-6.4926,-6.4926,-6.4926,-6.4926,-6.4926,-6.4926,-6.4926,-6.4926,-6.4926,-6.4945,-6.5135,-6.5836,-6.7295,-6.7693,-6.8337,-6.9607,-6.9835,-6.9873,-6.9873,-6.9873,-6.9873,-6.9873,-6.9873,-6.9873,-6.9873,-6.9873,-6.9873,-6.9873,-6.9873,-6.9873,-6.9873,-6.9873,-6.9873,-6.9873,-6.9873,-6.9873,-6.9873,-6.9873,-6.9873,-6.9873,-6.9873,-6.9873,-6.9873,-6.9873,-6.9873,-6.9873,-6.9873,-6.9873,-6.9873,-6.9873,-6.9873,-6.9873,-7.0179,-7.0451,-7.0662,-7.0973,-7.1182,-6.2557,-6.2482,-6.2482,-6.4301,-6.6765,-6.6423,-6.6025,-6.5855,-6.5893,-6.5552,-6.5002,-6.485,-6.4907,-6.4926,-6.4832,-6.4926,-6.4926,-6.4926,-6.4926,-6.4926,-6.4926,-6.4926,-6.4926,-6.4926,-6.4926,-6.4926,-6.4926,-6.4926,-6.4926,-6.4926,-6.4926,-6.4926,-6.4926,-6.4926,-6.4926,-6.4926,-6.4926,-6.4926,-6.4926,-6.4926,-6.4926,-6.4926,-6.4926,-6.4926,-6.4926,-6.4926,-6.4926,-6.4926,-6.4926,-6.4926,-6.4926,-6.4926,-6.4926,-6.4926,-6.4926,-6.4926,-6.4926,-6.4926,-6.4926,-6.4926,-6.4926,-6.4926,-6.4926,-6.4926,-6.4926,-6.4926,-6.4926,-6.4945,-6.5495,-6.631,-6.7276,-6.8091,-6.8906,-6.9531,-6.9778,-6.9873,-6.9873,-6.9873,-6.9873,-6.9873,-6.9873,-6.9873,-6.9873,-6.9873,-6.9873,-6.9873,-6.9873,-6.9873,-6.9873,-6.9873,-6.9873,-6.9873,-6.9873,-6.9873,-6.9873,-6.9873,-6.9873,-6.9873,-6.9873,-6.9873,-6.9873,-6.9873,-6.9873,-6.9873,-6.9873,-6.9873,-6.9873,-6.9873,-6.9873,-6.9948,-7.0296,-7.0593,-7.0738,-7.0902,-7.1163,-6.1534,-6.1477,-6.0966,-6.1686,-6.3164,-6.3562,-6.3657,-6.3657,-6.3638,-6.3524,-6.3429,-6.3751,-6.4036,-6.4187,-6.4585,-6.4794,-6.4832,-6.4926,-6.4926,-6.4888,-6.485,-6.4926,-6.4926,-6.4926,-6.4926,-6.4926,-6.4926,-6.4926,-6.4926,-6.4926,-6.4926,-6.4926,-6.4926,-6.4926,-6.4926,-6.4926,-6.4926,-6.4926,-6.4926,-6.4926,-6.4926,-6.4926,-6.4926,-6.4926,-6.4926,-6.4926,-6.4926,-6.4926,-6.4926,-6.4926,-6.4926,-6.4926,-6.4926,-6.4926,-6.4926,-6.4926,-6.4926,-6.4926,-6.4926,-6.4926,-6.4926,-6.4926,-6.4926,-6.4926,-6.4926,-6.4926,-6.4926,-6.5078,-6.5665,-6.6461,-6.7314,-6.811,-6.8906,-6.9607,-6.9873,-6.9873,-6.9873,-6.9873,-6.9873,-6.9873,-6.9873,-6.9873,-6.9873,-6.9873,-6.9873,-6.9873,-6.9873,-6.9873,-6.9873,-6.9873,-6.9873,-6.9873,-6.9873,-6.9873,-6.9873,-6.9873,-6.9873,-6.9873,-6.9873,-6.9873,-6.9873,-6.9873,-6.9873,-6.9873,-6.9873,-6.9873,-6.9873,-6.9873,-6.9873,-7.0003,-7.0329,-7.0532,-7.0603,-7.0875,-7.1228,-6.1098,-6.106,-6.0871,-6.106,-6.1553,-6.1856,-6.2103,-6.2368,-6.2425,-6.2425,-6.2557,-6.2993,-6.3202,-6.3372,-6.3713,-6.4036,-6.4036,-6.4036,-6.4358,-6.4396,-6.4434,-6.4604,-6.4794,-6.4926,-6.4926,-6.4926,-6.4926,-6.4926,-6.4926,-6.4926,-6.4926,-6.4926,-6.4926,-6.4926,-6.4926,-6.4926,-6.4926,-6.4926,-6.4926,-6.4926,-6.4926,-6.4926,-6.4926,-6.4926,-6.4926,-6.4926,-6.4926,-6.4926,-6.4926,-6.4926,-6.4926,-6.4926,-6.4926,-6.4926,-6.4926,-6.4926,-6.4926,-6.4926,-6.4926,-6.4926,-6.4926,-6.4926,-6.4926,-6.4926,-6.4926,-6.4926,-6.4926,-6.5135,-6.5684,-6.648,-6.7314,-6.811,-6.8887,-6.9607,-6.9873,-6.9873,-6.9873,-6.9873,-6.9873,-6.9873,-6.9873,-6.9873,-6.9873,-6.9873,-6.9873,-6.9873,-6.9873,-6.9873,-6.9873,-6.9873,-6.9873,-6.9873,-6.9873,-6.9873,-6.9873,-6.9873,-6.9873,-6.9873,-6.9873,-6.9873,-6.9873,-6.9873,-6.9873,-6.9873,-6.9873,-6.9873,-6.9873,-6.9873,-6.9873,-6.9966,-7.0213,-7.0342,-7.0451,-7.0719,-7.1091,-6.1136,-6.125,-6.2046,-6.2311,-6.2197,-6.1401,-6.1496,-6.2216,-6.2235,-6.2235,-6.2273,-6.2235,-6.2349,-6.2387,-6.2482,-6.2633,-6.2709,-6.2671,-6.3164,-6.3562,-6.3846,-6.4263,-6.4699,-6.4926,-6.4926,-6.4926,-6.4926,-6.4926,-6.4926,-6.4926,-6.4926,-6.4926,-6.4926,-6.4926,-6.4926,-6.4926,-6.4926,-6.4926,-6.4926,-6.4926,-6.4926,-6.4926,-6.4926,-6.4926,-6.4926,-6.4926,-6.4926,-6.4926,-6.4926,-6.4926,-6.4926,-6.4926,-6.4926,-6.4926,-6.4926,-6.4926,-6.4926,-6.4926,-6.4926,-6.4926,-6.4926,-6.4926,-6.4926,-6.4926,-6.4926,-6.4926,-6.4926,-6.5154,-6.5627,-6.648,-6.7295,-6.8129,-6.8944,-6.9437,-6.9835,-6.9873,-6.9873,-6.9873,-6.9873,-6.9873,-6.9873,-6.9873,-6.9873,-6.9873,-6.9873,-6.9873,-6.9873,-6.9873,-6.9873,-6.9873,-6.9873,-6.9873,-6.9873,-6.9873,-6.9873,-6.9873,-6.9873,-6.9873,-6.9873,-6.9873,-6.9873,-6.9873,-6.9873,-6.9873,-6.9873,-6.9873,-6.9873,-6.9873,-6.9873,-7.0003,-7.0128,-7.0194,-7.0291,-7.0482,-7.0766,-6.2046,-6.2065,-6.2311,-6.2065,-6.1401,-6.0605,-6.0094,-5.9866,-6.034,-6.0624,-6.0643,-6.1231,-6.1591,-6.1496,-6.2103,-6.233,-6.2425,-6.2519,-6.2993,-6.3334,-6.3619,-6.4187,-6.4623,-6.4926,-6.4926,-6.4926,-6.4926,-6.4926,-6.4926,-6.4926,-6.4926,-6.4926,-6.4926,-6.4926,-6.4926,-6.4926,-6.4926,-6.4926,-6.4926,-6.4926,-6.4926,-6.4926,-6.4926,-6.4926,-6.4926,-6.4926,-6.4926,-6.4926,-6.4926,-6.4926,-6.4926,-6.4926,-6.4926,-6.4926,-6.4926,-6.4926,-6.4926,-6.4926,-6.4926,-6.4926,-6.4926,-6.4926,-6.4926,-6.4926,-6.4926,-6.4926,-6.4926,-6.5173,-6.5514,-6.6234,-6.7068,-6.7902,-6.8735,-6.9323,-6.9702,-6.9873,-6.9873,-6.9873,-6.9873,-6.9873,-6.9873,-6.9873,-6.9873,-6.9873,-6.9873,-6.9873,-6.9873,-6.9873,-6.9873,-6.9873,-6.9873,-6.9873,-6.9873,-6.9873,-6.9873,-6.9873,-6.9873,-6.9873,-6.9873,-6.9873,-6.9873,-6.9873,-6.9873,-6.9873,-6.9873,-6.9873,-6.9873,-6.9873,-6.9873,-6.9873,-6.9966,-7.0073,-7.0175,-7.0342,-7.0501,-6.2595,-6.2917,-6.3278,-6.2709,-6.1705,-6.1439,-6.0738,-5.9904,-6.017,-6.0378,-6.0435,-6.0909,-6.1269,-6.1648,-6.1856,-6.2046,-6.2425,-6.2444,-6.2842,-6.3448,-6.3619,-6.4187,-6.4642,-6.4926,-6.4926,-6.4926,-6.4926,-6.4926,-6.4926,-6.4926,-6.4926,-6.4926,-6.4926,-6.4926,-6.4926,-6.4926,-6.4926,-6.4926,-6.4926,-6.4926,-6.4926,-6.4926,-6.4926,-6.4926,-6.4926,-6.4926,-6.4926,-6.4926,-6.4926,-6.4926,-6.4926,-6.4926,-6.4926,-6.4926,-6.4926,-6.4926,-6.4926,-6.4926,-6.4926,-6.4926,-6.4926,-6.4926,-6.4926,-6.4926,-6.4926,-6.4926,-6.4926,-6.504,-6.5419,-6.5931,-6.6765,-6.7617,-6.8432,-6.9228,-6.955,-6.9854,-6.9873,-6.9873,-6.9873,-6.9873,-6.9873,-6.9873,-6.9873,-6.9873,-6.9873,-6.9873,-6.9873,-6.9873,-6.9873,-6.9873,-6.9873,-6.9873,-6.9873,-6.9873,-6.9873,-6.9873,-6.9873,-6.9873,-6.9873,-6.9873,-6.9873,-6.9873,-6.9873,-6.9873,-6.9873,-6.9873,-6.9873,-6.9873,-6.9873,-6.9873,-6.9873,-6.9966,-7.002,-7.0128,-7.0213,-6.2823,-6.3505,-6.4358,-6.3694,-6.269,-6.305,-6.2519,-6.1363,-6.1363,-6.1269,-6.1231,-6.1212,-6.1686,-6.2065,-6.1875,-6.1913,-6.2254,-6.2444,-6.2842,-6.36,-6.3619,-6.4073,-6.468,-6.4926,-6.4926,-6.4926,-6.4926,-6.4926,-6.4926,-6.4926,-6.4926,-6.4926,-6.4926,-6.4926,-6.4926,-6.4926,-6.4926,-6.4926,-6.4926,-6.4926,-6.4926,-6.4926,-6.4926,-6.4926,-6.4926,-6.4926,-6.4926,-6.4926,-6.4926,-6.4926,-6.4926,-6.4926,-6.4926,-6.4926,-6.4926,-6.4926,-6.4926,-6.4926,-6.4926,-6.4926,-6.4926,-6.4926,-6.4926,-6.4926,-6.4926,-6.4926,-6.4926,-6.4926,-6.5248,-6.5646,-6.6386,-6.6954,-6.7674,-6.8565,-6.9171,-6.9588,-6.9873,-6.9873,-6.9873,-6.9873,-6.9873,-6.9873,-6.9873,-6.9873,-6.9873,-6.9873,-6.9873,-6.9873,-6.9873,-6.9873,-6.9873,-6.9873,-6.9873,-6.9873,-6.9873,-6.9873,-6.9873,-6.9873,-6.9873,-6.9873,-6.9873,-6.9873,-6.9873,-6.9873,-6.9873,-6.9873,-6.9873,-6.9873,-6.9873,-6.9873,-6.9873,-6.9873,-6.991,-6.9985,-7.0003,-6.2519,-6.2728,-6.2917,-6.3069,-6.324,-6.2861,-6.2861,-6.2993,-6.3012,-6.2595,-6.2178,-6.2103,-6.2235,-6.2482,-6.2292,-6.233,-6.2482,-6.2823,-6.2955,-6.3486,-6.3713,-6.4168,-6.4775,-6.4926,-6.4926,-6.4926,-6.4926,-6.4926,-6.4926,-6.4926,-6.4926,-6.4926,-6.4926,-6.4926,-6.4926,-6.4926,-6.4926,-6.4926,-6.4926,-6.4926,-6.4926,-6.4926,-6.4926,-6.4926,-6.4926,-6.4926,-6.4926,-6.4926,-6.4926,-6.4926,-6.4926,-6.4926,-6.4926,-6.4926,-6.4926,-6.4926,-6.4926,-6.4926,-6.4926,-6.4926,-6.4926,-6.4926,-6.4926,-6.4926,-6.4926,-6.4926,-6.4926,-6.4926,-6.5078,-6.5476,-6.5874,-6.6367,-6.6897,-6.7845,-6.883,-6.9323,-6.9816,-6.9873,-6.9873,-6.9873,-6.9873,-6.9873,-6.9873,-6.9873,-6.9873,-6.9873,-6.9873,-6.9873,-6.9873,-6.9873,-6.9873,-6.9873,-6.9873,-6.9873,-6.9873,-6.9873,-6.9873,-6.9873,-6.9873,-6.9873,-6.9873,-6.9873,-6.9873,-6.9873,-6.9873,-6.9873,-6.9873,-6.9873,-6.9873,-6.9873,-6.9873,-6.9873,-6.9873,-6.991,-6.991,-6.1764,-6.2102,-6.2318,-6.2652,-6.2955,-6.2595,-6.2671,-6.3012,-6.3088,-6.305,-6.2974,-6.2974,-6.3126,-6.3278,-6.3145,-6.3221,-6.3353,-6.3543,-6.3884,-6.413,-6.4168,-6.4471,-6.4775,-6.4926,-6.4926,-6.4926,-6.4926,-6.4926,-6.4926,-6.4926,-6.4926,-6.4926,-6.4926,-6.4926,-6.4926,-6.4926,-6.4926,-6.4926,-6.4926,-6.4926,-6.4926,-6.4926,-6.4926,-6.4926,-6.4926,-6.4926,-6.4926,-6.4926,-6.4926,-6.4926,-6.4926,-6.4926,-6.4926,-6.4926,-6.4926,-6.4926,-6.4926,-6.4926,-6.4926,-6.4926,-6.4926,-6.4926,-6.4926,-6.4926,-6.4926,-6.4926,-6.4926,-6.4926,-6.4926,-6.5248,-6.5495,-6.5912,-6.631,-6.703,-6.8205,-6.9077,-6.9569,-6.9873,-6.9873,-6.9873,-6.9873,-6.9873,-6.9873,-6.9873,-6.9873,-6.9873,-6.9873,-6.9873,-6.9873,-6.9873,-6.9873,-6.9873,-6.9873,-6.9873,-6.9873,-6.9873,-6.9873,-6.9873,-6.9873,-6.9873,-6.9873,-6.9873,-6.9873,-6.9873,-6.9873,-6.9873,-6.9873,-6.9873,-6.9873,-6.9873,-6.9873,-6.9873,-6.9873,-6.9873,-6.991,-6.0641,-6.1337,-6.171,-6.1965,-6.206,-6.2006,-6.21,-6.2213,-6.2303,-6.2662,-6.3151,-6.3262,-6.4017,-6.4358,-6.4225,-6.449,-6.4585,-6.4434,-6.4737,-6.4794,-6.4813,-6.4813,-6.4832,-6.4926,-6.4926,-6.4926,-6.4926,-6.4926,-6.4926,-6.4926,-6.4926,-6.4926,-6.4926,-6.4926,-6.4926,-6.4926,-6.4926,-6.4926,-6.4926,-6.4926,-6.4926,-6.4926,-6.4926,-6.4926,-6.4926,-6.4926,-6.4926,-6.4926,-6.4926,-6.4926,-6.4926,-6.4926,-6.4926,-6.4926,-6.4926,-6.4926,-6.4926,-6.4926,-6.4926,-6.4926,-6.4926,-6.4926,-6.4926,-6.4926,-6.4926,-6.4926,-6.4926,-6.4926,-6.4926,-6.4983,-6.5229,-6.5419,-6.5798,-6.6442,-6.7674,-6.8773,-6.9266,-6.9778,-6.9854,-6.9854,-6.9873,-6.9873,-6.9873,-6.9873,-6.9873,-6.9873,-6.9873,-6.9873,-6.9873,-6.9873,-6.9873,-6.9873,-6.9873,-6.9873,-6.9873,-6.9873,-6.9873,-6.9873,-6.9873,-6.9873,-6.9873,-6.9873,-6.9873,-6.9873,-6.9873,-6.9873,-6.9873,-6.9873,-6.9873,-6.9873,-6.9873,-6.9873,-6.9873,-6.9873,-6.991,-5.9026,-5.9197,-5.9297,-5.971,-6.0252,-6.0308,-6.0699,-6.1319,-6.1637,-6.1977,-6.209,-6.257,-6.341,-6.4869,-6.4775,-6.4718,-6.4415,-6.468,-6.4869,-6.4907,-6.4888,-6.4907,-6.4926,-6.4926,-6.4926,-6.4926,-6.4926,-6.4926,-6.4926,-6.4926,-6.4926,-6.4926,-6.4926,-6.4926,-6.4926,-6.4926,-6.4926,-6.4926,-6.4926,-6.4926,-6.4926,-6.4926,-6.4926,-6.4926,-6.4926,-6.4926,-6.4926,-6.4926,-6.4926,-6.4926,-6.4926,-6.4926,-6.4926,-6.4926,-6.4926,-6.4926,-6.4926,-6.4926,-6.4926,-6.4926,-6.4926,-6.4926,-6.4926,-6.4926,-6.4926,-6.4926,-6.4926,-6.4926,-6.4926,-6.4926,-6.5059,-6.5059,-6.5381,-6.631,-6.7428,-6.8205,-6.8849,-6.938,-6.9759,-6.9816,-6.9873,-6.9873,-6.9873,-6.9873,-6.9873,-6.9873,-6.9873,-6.9873,-6.9873,-6.9873,-6.9873,-6.9873,-6.9873,-6.9873,-6.9873,-6.9873,-6.9873,-6.9873,-6.9873,-6.9873,-6.9873,-6.9873,-6.9873,-6.9873,-6.9873,-6.9873,-6.9873,-6.9873,-6.9873,-6.9873,-6.9873,-6.9873,-6.9873,-6.9929,-7.0003]}]]